<?xml version="1.0" encoding="UTF-8" standalone="no" ?><gpx xmlns="http://www.topografix.com/GPX/1/1" xmlns:gpxx="http://www.garmin.com/xmlschemas/GpxExtensions/v3" xmlns:gpxtrkx="http://www.garmin.com/xmlschemas/TrackStatsExtension/v1" xmlns:wptx1="http://www.garmin.com/xmlschemas/WaypointExtension/v1" xmlns:gpxtpx="http://www.garmin.com/xmlschemas/TrackPointExtension/v1" creator="GPSMAP 64" version="1.1" xmlns:xsi="http://www.w3.org/2001/XMLSchema-instance" xsi:schemaLocation="http://www.topografix.com/GPX/1/1 http://www.topografix.com/GPX/1/1/gpx.xsd http://www.garmin.com/xmlschemas/GpxExtensions/v3 http://www8.garmin.com/xmlschemas/GpxExtensionsv3.xsd http://www.garmin.com/xmlschemas/TrackStatsExtension/v1 http://www8.garmin.com/xmlschemas/TrackStatsExtension.xsd http://www.garmin.com/xmlschemas/WaypointExtension/v1 http://www8.garmin.com/xmlschemas/WaypointExtensionv1.xsd http://www.garmin.com/xmlschemas/TrackPointExtension/v1 http://www.garmin.com/xmlschemas/TrackPointExtensionv1.xsd"><metadata><link href="http://www.garmin.com"><text>Garmin International</text></link><time>2026-08-14T14:13:43Z</time></metadata><trk><name>20260814LISA8</name><extensions><gpxx:TrackExtension><gpxx:DisplayColor>Magenta</gpxx:DisplayColor></gpxx:TrackExtension><gpxtrkx:TrackStatsExtension><gpxtrkx:Distance>235285.000</gpxtrkx:Distance><gpxtrkx:TotalElapsedTime>292638</gpxtrkx:TotalElapsedTime><gpxtrkx:MovingTime>43148</gpxtrkx:MovingTime><gpxtrkx:StoppedTime>13743</gpxtrkx:StoppedTime><gpxtrkx:MovingSpeed>5.453</gpxtrkx:MovingSpeed><gpxtrkx:MaxSpeed>382.928</gpxtrkx:MaxSpeed><gpxtrkx:MaxElevation>4747.654</gpxtrkx:MaxElevation><gpxtrkx:MinElevation>-1251.412</gpxtrkx:MinElevation><gpxtrkx:Ascent>44594.000</gpxtrkx:Ascent><gpxtrkx:Descent>51166.270</gpxtrkx:Descent><gpxtrkx:AvgAscentRate>0.054</gpxtrkx:AvgAscentRate><gpxtrkx:MaxAscentRate>10.066</gpxtrkx:MaxAscentRate><gpxtrkx:AvgDescentRate>0.063</gpxtrkx:AvgDescentRate><gpxtrkx:MaxDescentRate>-9.814</gpxtrkx:MaxDescentRate></gpxtrkx:TrackStatsExtension></extensions><trkseg><trkpt lat="59.6332610026" lon="31.0313907266"><ele>32.91</ele><time>2026-08-11T04:56:25Z</time></trkpt><trkpt lat="59.6332600806" lon="31.0314015392"><ele>32.59</ele><time>2026-08-11T04:56:42Z</time></trkpt></trkseg><trkseg><trkpt lat="59.3505985010" lon="34.6996500157"><ele>147.82</ele><time>2026-08-13T22:01:27Z</time></trkpt><trkpt lat="59.3506060448" lon="34.6996683720"><ele>151.94</ele><time>2026-08-13T22:01:57Z</time></trkpt><trkpt lat="59.3506167736" lon="34.6996804420"><ele>151.89</ele><time>2026-08-13T22:02:28Z</time></trkpt><trkpt lat="59.3505447730" lon="34.6995153185"><ele>158.01</ele><time>2026-08-13T22:02:59Z</time></trkpt><trkpt lat="59.3505452760" lon="34.6995144803"><ele>158.54</ele><time>2026-08-13T22:03:34Z</time></trkpt><trkpt lat="59.3505547475" lon="34.6995285619"><ele>157.21</ele><time>2026-08-13T22:04:08Z</time></trkpt><trkpt lat="59.3505421747" lon="34.6995009016"><ele>156.19</ele><time>2026-08-13T22:04:41Z</time></trkpt><trkpt lat="59.3505448569" lon="34.6994770970"><ele>156.94</ele><time>2026-08-13T22:05:14Z</time></trkpt><trkpt lat="59.3505568430" lon="34.6995097864"><ele>157.51</ele><time>2026-08-13T22:05:46Z</time></trkpt><trkpt lat="59.3505826592" lon="34.6995335910"><ele>158.51</ele><time>2026-08-13T22:06:23Z</time></trkpt><trkpt lat="59.3505651411" lon="34.6995095350"><ele>158.28</ele><time>2026-08-13T22:06:53Z</time></trkpt><trkpt lat="59.3505758699" lon="34.6995165758"><ele>157.48</ele><time>2026-08-13T22:07:28Z</time></trkpt><trkpt lat="59.3505581841" lon="34.6995329205"><ele>157.91</ele><time>2026-08-13T22:07:57Z</time></trkpt><trkpt lat="59.3505709246" lon="34.6994108800"><ele>157.63</ele><time>2026-08-13T22:08:23Z</time></trkpt><trkpt lat="59.3505890295" lon="34.6994731575"><ele>156.87</ele><time>2026-08-13T22:08:42Z</time></trkpt><trkpt lat="59.3505627103" lon="34.6995195933"><ele>156.94</ele><time>2026-08-13T22:09:06Z</time></trkpt><trkpt lat="59.3505952321" lon="34.6996282227"><ele>157.22</ele><time>2026-08-13T22:09:31Z</time></trkpt><trkpt lat="59.3505948968" lon="34.6996930987"><ele>158.04</ele><time>2026-08-13T22:09:52Z</time></trkpt><trkpt lat="59.3506134208" lon="34.6996503510"><ele>157.98</ele><time>2026-08-13T22:10:19Z</time></trkpt><trkpt lat="59.3506509718" lon="34.6996713057"><ele>159.52</ele><time>2026-08-13T22:10:54Z</time></trkpt><trkpt lat="59.3505982496" lon="34.6996190026"><ele>160.26</ele><time>2026-08-13T22:11:14Z</time></trkpt><trkpt lat="59.3505193759" lon="34.6995235328"><ele>160.43</ele><time>2026-08-13T22:11:40Z</time></trkpt><trkpt lat="59.3505162746" lon="34.6995087806"><ele>159.85</ele><time>2026-08-13T22:12:10Z</time></trkpt><trkpt lat="59.3505131733" lon="34.6995226108"><ele>158.32</ele><time>2026-08-13T22:12:42Z</time></trkpt><trkpt lat="59.3505429290" lon="34.6995320823"><ele>158.74</ele><time>2026-08-13T22:12:59Z</time></trkpt><trkpt lat="59.3505220581" lon="34.6994011570"><ele>159.30</ele><time>2026-08-13T22:13:17Z</time></trkpt><trkpt lat="59.3505312782" lon="34.6993646957"><ele>160.54</ele><time>2026-08-13T22:13:44Z</time></trkpt><trkpt lat="59.3505260814" lon="34.6993606724"><ele>160.49</ele><time>2026-08-13T22:14:13Z</time></trkpt><trkpt lat="59.3505406659" lon="34.6993568167"><ele>160.64</ele><time>2026-08-13T22:14:46Z</time></trkpt><trkpt lat="59.3505178671" lon="34.6993567329"><ele>158.89</ele><time>2026-08-13T22:15:22Z</time></trkpt><trkpt lat="59.3505259976" lon="34.6993196011"><ele>157.07</ele><time>2026-08-13T22:15:53Z</time></trkpt><trkpt lat="59.3504859321" lon="34.6992955450"><ele>155.66</ele><time>2026-08-13T22:16:23Z</time></trkpt><trkpt lat="59.3505018577" lon="34.6993723232"><ele>155.57</ele><time>2026-08-13T22:16:52Z</time></trkpt><trkpt lat="59.3505145982" lon="34.6993721556"><ele>156.96</ele><time>2026-08-13T22:17:20Z</time></trkpt><trkpt lat="59.3505255785" lon="34.6993931942"><ele>157.94</ele><time>2026-08-13T22:17:51Z</time></trkpt><trkpt lat="59.3505274225" lon="34.6993655339"><ele>158.23</ele><time>2026-08-13T22:18:20Z</time></trkpt><trkpt lat="59.3505224772" lon="34.6993454173"><ele>160.87</ele><time>2026-08-13T22:18:50Z</time></trkpt><trkpt lat="59.3505259138" lon="34.6993712336"><ele>162.08</ele><time>2026-08-13T22:19:24Z</time></trkpt><trkpt lat="59.3505285122" lon="34.6994128916"><ele>162.38</ele><time>2026-08-13T22:19:52Z</time></trkpt><trkpt lat="59.3505257461" lon="34.6994063538"><ele>161.13</ele><time>2026-08-13T22:20:21Z</time></trkpt><trkpt lat="59.3505249079" lon="34.6994012408"><ele>159.92</ele><time>2026-08-13T22:20:49Z</time></trkpt><trkpt lat="59.3505240697" lon="34.6994031686"><ele>158.57</ele><time>2026-08-13T22:21:20Z</time></trkpt><trkpt lat="59.3505022768" lon="34.6993883327"><ele>157.98</ele><time>2026-08-13T22:21:47Z</time></trkpt><trkpt lat="59.3504982535" lon="34.6993745863"><ele>157.90</ele><time>2026-08-13T22:22:17Z</time></trkpt><trkpt lat="59.3505035341" lon="34.6993620973"><ele>157.53</ele><time>2026-08-13T22:22:50Z</time></trkpt><trkpt lat="59.3504994269" lon="34.6994214412"><ele>157.74</ele><time>2026-08-13T22:23:21Z</time></trkpt><trkpt lat="59.3505047075" lon="34.6993962117"><ele>157.55</ele><time>2026-08-13T22:23:54Z</time></trkpt><trkpt lat="59.3505124189" lon="34.6993916854"><ele>158.55</ele><time>2026-08-13T22:24:24Z</time></trkpt><trkpt lat="59.3505273387" lon="34.6993577387"><ele>158.83</ele><time>2026-08-13T22:24:56Z</time></trkpt><trkpt lat="59.3505545799" lon="34.6993599180"><ele>160.71</ele><time>2026-08-13T22:25:26Z</time></trkpt><trkpt lat="59.3505565915" lon="34.6993707307"><ele>161.26</ele><time>2026-08-13T22:25:55Z</time></trkpt><trkpt lat="59.3505273387" lon="34.6993585769"><ele>160.76</ele><time>2026-08-13T22:26:25Z</time></trkpt><trkpt lat="59.3505189568" lon="34.6993461717"><ele>160.62</ele><time>2026-08-13T22:26:55Z</time></trkpt><trkpt lat="59.3505327869" lon="34.6993439086"><ele>160.56</ele><time>2026-08-13T22:27:25Z</time></trkpt><trkpt lat="59.3505202141" lon="34.6993313357"><ele>160.67</ele><time>2026-08-13T22:28:00Z</time></trkpt><trkpt lat="59.3505312782" lon="34.6993421484"><ele>161.90</ele><time>2026-08-13T22:28:30Z</time></trkpt><trkpt lat="59.3505443539" lon="34.6993526258"><ele>164.91</ele><time>2026-08-13T22:29:00Z</time></trkpt><trkpt lat="59.3505691644" lon="34.6993522067"><ele>165.84</ele><time>2026-08-13T22:29:24Z</time></trkpt><trkpt lat="59.3505609501" lon="34.6993576549"><ele>165.52</ele><time>2026-08-13T22:29:53Z</time></trkpt><trkpt lat="59.3505543284" lon="34.6993686352"><ele>163.42</ele><time>2026-08-13T22:30:24Z</time></trkpt><trkpt lat="59.3505414203" lon="34.6993749216"><ele>161.58</ele><time>2026-08-13T22:30:56Z</time></trkpt><trkpt lat="59.3505535740" lon="34.6993687190"><ele>160.49</ele><time>2026-08-13T22:31:24Z</time></trkpt><trkpt lat="59.3505619559" lon="34.6993817948"><ele>161.76</ele><time>2026-08-13T22:31:55Z</time></trkpt><trkpt lat="59.3505612016" lon="34.6993640251"><ele>164.02</ele><time>2026-08-13T22:32:23Z</time></trkpt><trkpt lat="59.3505513947" lon="34.6993419807"><ele>165.04</ele><time>2026-08-13T22:32:53Z</time></trkpt><trkpt lat="59.3505465332" lon="34.6993423998"><ele>165.34</ele><time>2026-08-13T22:33:22Z</time></trkpt><trkpt lat="59.3505312782" lon="34.6993394662"><ele>164.91</ele><time>2026-08-13T22:33:51Z</time></trkpt><trkpt lat="59.3505593576" lon="34.6993606724"><ele>165.34</ele><time>2026-08-13T22:34:19Z</time></trkpt><trkpt lat="59.3505733553" lon="34.6993294079"><ele>166.04</ele><time>2026-08-13T22:34:51Z</time></trkpt><trkpt lat="59.3505741097" lon="34.6993309166"><ele>166.11</ele><time>2026-08-13T22:35:25Z</time></trkpt><trkpt lat="59.3505754508" lon="34.6993409749"><ele>166.08</ele><time>2026-08-13T22:35:58Z</time></trkpt><trkpt lat="59.3505798094" lon="34.6993335988"><ele>164.99</ele><time>2026-08-13T22:36:30Z</time></trkpt><trkpt lat="59.3505932204" lon="34.6993890870"><ele>164.09</ele><time>2026-08-13T22:37:00Z</time></trkpt><trkpt lat="59.3505962379" lon="34.6993801184"><ele>163.20</ele><time>2026-08-13T22:37:30Z</time></trkpt><trkpt lat="59.3505543284" lon="34.6993781067"><ele>163.02</ele><time>2026-08-13T22:37:49Z</time></trkpt><trkpt lat="59.3505413365" lon="34.6993699763"><ele>164.43</ele><time>2026-08-13T22:39:18Z</time></trkpt><trkpt lat="59.3505351339" lon="34.6993789449"><ele>163.65</ele><time>2026-08-13T22:40:42Z</time></trkpt><trkpt lat="59.3505254108" lon="34.6993949544"><ele>164.23</ele><time>2026-08-13T22:42:06Z</time></trkpt><trkpt lat="59.3505130056" lon="34.6993801184"><ele>164.07</ele><time>2026-08-13T22:43:15Z</time></trkpt><trkpt lat="59.3505292665" lon="34.6993756760"><ele>163.63</ele><time>2026-08-13T22:44:36Z</time></trkpt><trkpt lat="59.3505262490" lon="34.6993769333"><ele>163.77</ele><time>2026-08-13T22:46:01Z</time></trkpt><trkpt lat="59.3505220581" lon="34.6993928589"><ele>161.95</ele><time>2026-08-13T22:47:29Z</time></trkpt><trkpt lat="59.3505195435" lon="34.6994045097"><ele>159.95</ele><time>2026-08-13T22:48:55Z</time></trkpt><trkpt lat="59.3505350500" lon="34.6993734967"><ele>159.97</ele><time>2026-08-13T22:50:20Z</time></trkpt><trkpt lat="59.3505235668" lon="34.6993843932"><ele>162.55</ele><time>2026-08-13T22:51:55Z</time></trkpt><trkpt lat="59.3505219743" lon="34.6993826330"><ele>163.51</ele><time>2026-08-13T22:53:23Z</time></trkpt><trkpt lat="59.3505322002" lon="34.6993985586"><ele>162.88</ele><time>2026-08-13T22:54:31Z</time></trkpt><trkpt lat="59.3505365588" lon="34.6994009055"><ele>162.22</ele><time>2026-08-13T22:55:53Z</time></trkpt><trkpt lat="59.3505338766" lon="34.6993970498"><ele>160.54</ele><time>2026-08-13T22:57:22Z</time></trkpt><trkpt lat="59.3505358882" lon="34.6993852314"><ele>163.97</ele><time>2026-08-13T22:58:57Z</time></trkpt><trkpt lat="59.3505342118" lon="34.6994006541"><ele>165.54</ele><time>2026-08-13T23:00:27Z</time></trkpt><trkpt lat="59.3505496345" lon="34.6994121373"><ele>167.45</ele><time>2026-08-13T23:01:49Z</time></trkpt><trkpt lat="59.3505342957" lon="34.6994384564"><ele>166.91</ele><time>2026-08-13T23:02:01Z</time></trkpt><trkpt lat="59.3505400792" lon="34.6994166635"><ele>166.05</ele><time>2026-08-13T23:02:39Z</time></trkpt><trkpt lat="59.3505703378" lon="34.6994418930"><ele>165.42</ele><time>2026-08-13T23:03:12Z</time></trkpt><trkpt lat="59.3505544122" lon="34.6994264703"><ele>164.73</ele><time>2026-08-13T23:03:41Z</time></trkpt><trkpt lat="59.3505334575" lon="34.6994420607"><ele>164.34</ele><time>2026-08-13T23:04:22Z</time></trkpt><trkpt lat="59.3505387381" lon="34.6994229499"><ele>164.84</ele><time>2026-08-13T23:05:09Z</time></trkpt><trkpt lat="59.3505403306" lon="34.6994247101"><ele>164.33</ele><time>2026-08-13T23:05:50Z</time></trkpt><trkpt lat="59.3505384866" lon="34.6993816271"><ele>163.47</ele><time>2026-08-13T23:06:21Z</time></trkpt><trkpt lat="59.3505362235" lon="34.6993860696"><ele>163.00</ele><time>2026-08-13T23:06:54Z</time></trkpt><trkpt lat="59.3505488802" lon="34.6994007379"><ele>164.16</ele><time>2026-08-13T23:07:24Z</time></trkpt><trkpt lat="59.3505486287" lon="34.6994336788"><ele>165.95</ele><time>2026-08-13T23:07:56Z</time></trkpt><trkpt lat="59.3505601957" lon="34.6994265541"><ele>166.85</ele><time>2026-08-13T23:08:21Z</time></trkpt><trkpt lat="59.3505320325" lon="34.6994338464"><ele>166.59</ele><time>2026-08-13T23:08:56Z</time></trkpt><trkpt lat="59.3505487964" lon="34.6993721556"><ele>167.09</ele><time>2026-08-13T23:09:42Z</time></trkpt><trkpt lat="59.3505347148" lon="34.6994154900"><ele>166.70</ele><time>2026-08-13T23:10:15Z</time></trkpt><trkpt lat="59.3505667336" lon="34.6993988100"><ele>166.57</ele><time>2026-08-13T23:10:49Z</time></trkpt><trkpt lat="59.3505654763" lon="34.6993724909"><ele>166.69</ele><time>2026-08-13T23:11:21Z</time></trkpt><trkpt lat="59.3505503051" lon="34.6993888356"><ele>165.23</ele><time>2026-08-13T23:11:52Z</time></trkpt><trkpt lat="59.3505389057" lon="34.6993808728"><ele>164.24</ele><time>2026-08-13T23:12:25Z</time></trkpt><trkpt lat="59.3505405821" lon="34.6993834712"><ele>164.57</ele><time>2026-08-13T23:12:56Z</time></trkpt><trkpt lat="59.3505544122" lon="34.6993541345"><ele>164.81</ele><time>2026-08-13T23:13:26Z</time></trkpt><trkpt lat="59.3505589385" lon="34.6993910987"><ele>165.29</ele><time>2026-08-13T23:13:56Z</time></trkpt><trkpt lat="59.3505598605" lon="34.6994051803"><ele>166.45</ele><time>2026-08-13T23:14:27Z</time></trkpt><trkpt lat="59.3505708408" lon="34.6994263027"><ele>167.56</ele><time>2026-08-13T23:14:59Z</time></trkpt><trkpt lat="59.3505374808" lon="34.6994305775"><ele>165.91</ele><time>2026-08-13T23:15:31Z</time></trkpt><trkpt lat="59.3505390733" lon="34.6994350199"><ele>166.34</ele><time>2026-08-13T23:16:02Z</time></trkpt><trkpt lat="59.3505318649" lon="34.6994195133"><ele>168.14</ele><time>2026-08-13T23:16:35Z</time></trkpt><trkpt lat="59.3505206332" lon="34.6994750015"><ele>169.64</ele><time>2026-08-13T23:17:06Z</time></trkpt><trkpt lat="59.3505175319" lon="34.6994592436"><ele>169.18</ele><time>2026-08-13T23:17:38Z</time></trkpt><trkpt lat="59.3505182862" lon="34.6994693018"><ele>168.40</ele><time>2026-08-13T23:18:10Z</time></trkpt><trkpt lat="59.3505506404" lon="34.6994491015"><ele>168.57</ele><time>2026-08-13T23:18:41Z</time></trkpt><trkpt lat="59.3505419232" lon="34.6994612552"><ele>168.98</ele><time>2026-08-13T23:19:10Z</time></trkpt><trkpt lat="59.3505367264" lon="34.6994763426"><ele>168.47</ele><time>2026-08-13T23:19:39Z</time></trkpt><trkpt lat="59.3505226448" lon="34.6994541306"><ele>169.46</ele><time>2026-08-13T23:20:14Z</time></trkpt><trkpt lat="59.3504950684" lon="34.6994509455"><ele>169.01</ele><time>2026-08-13T23:20:48Z</time></trkpt><trkpt lat="59.3505030312" lon="34.6994289849"><ele>169.21</ele><time>2026-08-13T23:21:49Z</time></trkpt><trkpt lat="59.3505211361" lon="34.6994316671"><ele>168.95</ele><time>2026-08-13T23:22:25Z</time></trkpt><trkpt lat="59.3505301885" lon="34.6994559746"><ele>168.02</ele><time>2026-08-13T23:23:05Z</time></trkpt><trkpt lat="59.3505469523" lon="34.6994485147"><ele>167.58</ele><time>2026-08-13T23:23:46Z</time></trkpt><trkpt lat="59.3505383190" lon="34.6994486824"><ele>166.46</ele><time>2026-08-13T23:24:48Z</time></trkpt><trkpt lat="59.3505508918" lon="34.6994411387"><ele>164.87</ele><time>2026-08-13T23:25:30Z</time></trkpt><trkpt lat="59.3505394924" lon="34.6994471736"><ele>164.41</ele><time>2026-08-13T23:26:32Z</time></trkpt><trkpt lat="59.3505375646" lon="34.6994570643"><ele>163.68</ele><time>2026-08-13T23:27:30Z</time></trkpt><trkpt lat="59.3505477067" lon="34.6994038392"><ele>163.54</ele><time>2026-08-13T23:28:00Z</time></trkpt><trkpt lat="59.3505546637" lon="34.6994295716"><ele>162.98</ele><time>2026-08-13T23:28:33Z</time></trkpt><trkpt lat="59.3505601119" lon="34.6994232014"><ele>162.30</ele><time>2026-08-13T23:29:03Z</time></trkpt><trkpt lat="59.3505617883" lon="34.6994170826"><ele>161.60</ele><time>2026-08-13T23:29:29Z</time></trkpt><trkpt lat="59.3505668174" lon="34.6994036715"><ele>160.01</ele><time>2026-08-13T23:30:01Z</time></trkpt><trkpt lat="59.3505738582" lon="34.6994017437"><ele>160.04</ele><time>2026-08-13T23:30:27Z</time></trkpt><trkpt lat="59.3505400792" lon="34.6994055156"><ele>160.63</ele><time>2026-08-13T23:30:56Z</time></trkpt><trkpt lat="59.3505404145" lon="34.6993713174"><ele>160.30</ele><time>2026-08-13T23:31:25Z</time></trkpt><trkpt lat="59.3505464494" lon="34.6994155739"><ele>161.78</ele><time>2026-08-13T23:31:42Z</time></trkpt><trkpt lat="59.3505402468" lon="34.6994215250"><ele>163.73</ele><time>2026-08-13T23:55:16Z</time></trkpt><trkpt lat="59.3505346309" lon="34.6994154062"><ele>164.64</ele><time>2026-08-13T23:55:51Z</time></trkpt><trkpt lat="59.3505534902" lon="34.6993978880"><ele>164.83</ele><time>2026-08-13T23:56:11Z</time></trkpt><trkpt lat="59.3505622074" lon="34.6994218603"><ele>165.04</ele><time>2026-08-13T23:56:47Z</time></trkpt><trkpt lat="59.3505544960" lon="34.6994396299"><ele>164.14</ele><time>2026-08-13T23:57:24Z</time></trkpt><trkpt lat="59.3505651411" lon="34.6994682960"><ele>164.76</ele><time>2026-08-13T23:58:06Z</time></trkpt><trkpt lat="59.3505580164" lon="34.6994704753"><ele>164.83</ele><time>2026-08-13T23:58:40Z</time></trkpt><trkpt lat="59.3505699188" lon="34.6994813718"><ele>164.66</ele><time>2026-08-13T23:59:01Z</time></trkpt><trkpt lat="59.3505594414" lon="34.6994930226"><ele>164.49</ele><time>2026-08-13T23:59:28Z</time></trkpt><trkpt lat="59.3505617045" lon="34.6995097026"><ele>165.70</ele><time>2026-08-13T23:59:58Z</time></trkpt><trkpt lat="59.3505589385" lon="34.6994700562"><ele>164.89</ele><time>2026-08-14T00:00:26Z</time></trkpt><trkpt lat="59.3505689129" lon="34.6994802821"><ele>163.90</ele><time>2026-08-14T00:01:00Z</time></trkpt><trkpt lat="59.3505767919" lon="34.6994816232"><ele>164.49</ele><time>2026-08-14T00:01:29Z</time></trkpt><trkpt lat="59.3505444378" lon="34.6994798630"><ele>164.50</ele><time>2026-08-14T00:01:49Z</time></trkpt><trkpt lat="59.3505555857" lon="34.6994979680"><ele>164.94</ele><time>2026-08-14T00:02:17Z</time></trkpt><trkpt lat="59.3505578488" lon="34.6995269693"><ele>165.64</ele><time>2026-08-14T00:03:04Z</time></trkpt><trkpt lat="59.3505489640" lon="34.6995214373"><ele>165.87</ele><time>2026-08-14T00:03:27Z</time></trkpt><trkpt lat="59.3505487125" lon="34.6994636860"><ele>165.50</ele><time>2026-08-14T00:03:49Z</time></trkpt><trkpt lat="59.3505855929" lon="34.6995367762"><ele>165.40</ele><time>2026-08-14T00:04:12Z</time></trkpt><trkpt lat="59.3505864311" lon="34.6995309927"><ele>165.10</ele><time>2026-08-14T00:04:29Z</time></trkpt><trkpt lat="59.3505913764" lon="34.6995568089"><ele>163.74</ele><time>2026-08-14T00:04:50Z</time></trkpt><trkpt lat="59.3505681586" lon="34.6995722316"><ele>163.39</ele><time>2026-08-14T00:05:10Z</time></trkpt><trkpt lat="59.3505596928" lon="34.6995951142"><ele>163.79</ele><time>2026-08-14T00:05:28Z</time></trkpt><trkpt lat="59.3505597766" lon="34.6996185835"><ele>163.54</ele><time>2026-08-14T00:05:52Z</time></trkpt><trkpt lat="59.3505449407" lon="34.6995895822"><ele>163.66</ele><time>2026-08-14T00:06:14Z</time></trkpt><trkpt lat="59.3505504727" lon="34.6995735727"><ele>163.78</ele><time>2026-08-14T00:06:42Z</time></trkpt><trkpt lat="59.3505333737" lon="34.6995374467"><ele>164.17</ele><time>2026-08-14T00:06:56Z</time></trkpt><trkpt lat="59.3505058810" lon="34.6994447429"><ele>164.06</ele><time>2026-08-14T00:07:00Z</time></trkpt><trkpt lat="59.3502153642" lon="34.6993692219"><ele>164.56</ele><time>2026-08-14T00:07:14Z</time></trkpt><trkpt lat="59.3498336524" lon="34.6993623488"><ele>165.46</ele><time>2026-08-14T00:07:29Z</time></trkpt><trkpt lat="59.3496246915" lon="34.6993494406"><ele>165.02</ele><time>2026-08-14T00:07:41Z</time></trkpt><trkpt lat="59.3496937584" lon="34.6993293241"><ele>166.59</ele><time>2026-08-14T00:07:56Z</time></trkpt><trkpt lat="59.3497160543" lon="34.6993326768"><ele>166.26</ele><time>2026-08-14T00:07:59Z</time></trkpt><trkpt lat="59.3498986959" lon="34.6993521228"><ele>166.82</ele><time>2026-08-14T00:08:14Z</time></trkpt><trkpt lat="59.3501082435" lon="34.6993877459"><ele>165.48</ele><time>2026-08-14T00:08:30Z</time></trkpt><trkpt lat="59.3501449563" lon="34.6993796155"><ele>164.70</ele><time>2026-08-14T00:08:39Z</time></trkpt><trkpt lat="59.3499457184" lon="34.6991296671"><ele>164.15</ele><time>2026-08-14T00:08:50Z</time></trkpt><trkpt lat="59.3494916707" lon="34.6986979153"><ele>163.85</ele><time>2026-08-14T00:09:05Z</time></trkpt><trkpt lat="59.3489719927" lon="34.6982587036"><ele>164.89</ele><time>2026-08-14T00:09:21Z</time></trkpt><trkpt lat="59.3484762870" lon="34.6977186576"><ele>166.73</ele><time>2026-08-14T00:09:37Z</time></trkpt><trkpt lat="59.3480508216" lon="34.6973100398"><ele>165.41</ele><time>2026-08-14T00:09:52Z</time></trkpt><trkpt lat="59.3477045652" lon="34.6969675552"><ele>166.47</ele><time>2026-08-14T00:10:03Z</time></trkpt><trkpt lat="59.3473811075" lon="34.6964289341"><ele>166.88</ele><time>2026-08-14T00:10:17Z</time></trkpt><trkpt lat="59.3470134772" lon="34.6959781554"><ele>165.46</ele><time>2026-08-14T00:10:32Z</time></trkpt><trkpt lat="59.3466160912" lon="34.6954790130"><ele>165.38</ele><time>2026-08-14T00:10:47Z</time></trkpt><trkpt lat="59.3462595250" lon="34.6950239595"><ele>163.45</ele><time>2026-08-14T00:11:01Z</time></trkpt><trkpt lat="59.3459727801" lon="34.6946046967"><ele>161.07</ele><time>2026-08-14T00:11:14Z</time></trkpt><trkpt lat="59.3457463011" lon="34.6942811552"><ele>159.43</ele><time>2026-08-14T00:11:25Z</time></trkpt><trkpt lat="59.3455147091" lon="34.6939449571"><ele>158.07</ele><time>2026-08-14T00:11:36Z</time></trkpt><trkpt lat="59.3453059159" lon="34.6936803404"><ele>160.58</ele><time>2026-08-14T00:11:47Z</time></trkpt><trkpt lat="59.3450243678" lon="34.6932718903"><ele>160.81</ele><time>2026-08-14T00:12:02Z</time></trkpt><trkpt lat="59.3447237089" lon="34.6928473469"><ele>159.12</ele><time>2026-08-14T00:12:16Z</time></trkpt><trkpt lat="59.3444507942" lon="34.6925048623"><ele>159.90</ele><time>2026-08-14T00:12:29Z</time></trkpt><trkpt lat="59.3442088086" lon="34.6922309417"><ele>161.56</ele><time>2026-08-14T00:12:42Z</time></trkpt><trkpt lat="59.3440595269" lon="34.6920650639"><ele>159.76</ele><time>2026-08-14T00:12:53Z</time></trkpt><trkpt lat="59.3439485505" lon="34.6918589529"><ele>159.96</ele><time>2026-08-14T00:13:06Z</time></trkpt><trkpt lat="59.3437048048" lon="34.6914422885"><ele>158.90</ele><time>2026-08-14T00:13:19Z</time></trkpt><trkpt lat="59.3433566205" lon="34.6910058428"><ele>161.00</ele><time>2026-08-14T00:13:33Z</time></trkpt><trkpt lat="59.3430416286" lon="34.6906739194"><ele>157.89</ele><time>2026-08-14T00:13:45Z</time></trkpt><trkpt lat="59.3427372817" lon="34.6902387310"><ele>158.21</ele><time>2026-08-14T00:13:57Z</time></trkpt><trkpt lat="59.3425817974" lon="34.6896354016"><ele>163.70</ele><time>2026-08-14T00:14:10Z</time></trkpt><trkpt lat="59.3425297458" lon="34.6892138757"><ele>162.56</ele><time>2026-08-14T00:14:21Z</time></trkpt><trkpt lat="59.3424888421" lon="34.6886133123"><ele>161.51</ele><time>2026-08-14T00:14:32Z</time></trkpt><trkpt lat="59.3424294982" lon="34.6877449472"><ele>160.24</ele><time>2026-08-14T00:14:46Z</time></trkpt><trkpt lat="59.3423713278" lon="34.6872037277"><ele>160.49</ele><time>2026-08-14T00:14:57Z</time></trkpt><trkpt lat="59.3423342798" lon="34.6865993086"><ele>159.42</ele><time>2026-08-14T00:15:08Z</time></trkpt><trkpt lat="59.3423025124" lon="34.6859244816"><ele>158.40</ele><time>2026-08-14T00:15:21Z</time></trkpt><trkpt lat="59.3421380594" lon="34.6854730323"><ele>159.13</ele><time>2026-08-14T00:15:32Z</time></trkpt><trkpt lat="59.3419137597" lon="34.6851456352"><ele>160.31</ele><time>2026-08-14T00:15:42Z</time></trkpt><trkpt lat="59.3414861150" lon="34.6847517695"><ele>162.13</ele><time>2026-08-14T00:15:59Z</time></trkpt><trkpt lat="59.3411223404" lon="34.6845247038"><ele>159.98</ele><time>2026-08-14T00:16:13Z</time></trkpt><trkpt lat="59.3407085259" lon="34.6841896791"><ele>158.09</ele><time>2026-08-14T00:16:26Z</time></trkpt><trkpt lat="59.3404636066" lon="34.6840545628"><ele>151.45</ele><time>2026-08-14T00:16:37Z</time></trkpt><trkpt lat="59.3402218726" lon="34.6835446917"><ele>148.42</ele><time>2026-08-14T00:16:49Z</time></trkpt><trkpt lat="59.3401285820" lon="34.6832325496"><ele>153.88</ele><time>2026-08-14T00:16:56Z</time></trkpt><trkpt lat="59.3399525620" lon="34.6831063181"><ele>154.89</ele><time>2026-08-14T00:17:03Z</time></trkpt><trkpt lat="59.3395000231" lon="34.6829825174"><ele>150.57</ele><time>2026-08-14T00:17:17Z</time></trkpt><trkpt lat="59.3390733842" lon="34.6827370115"><ele>146.81</ele><time>2026-08-14T00:17:30Z</time></trkpt><trkpt lat="59.3387661874" lon="34.6824971214"><ele>146.76</ele><time>2026-08-14T00:17:42Z</time></trkpt><trkpt lat="59.3383555580" lon="34.6820589155"><ele>140.22</ele><time>2026-08-14T00:17:57Z</time></trkpt><trkpt lat="59.3382297456" lon="34.6818517148"><ele>146.90</ele><time>2026-08-14T00:18:06Z</time></trkpt><trkpt lat="59.3381624389" lon="34.6817285847"><ele>161.20</ele><time>2026-08-14T00:18:29Z</time></trkpt><trkpt lat="59.3381139915" lon="34.6817293391"><ele>167.05</ele><time>2026-08-14T00:18:52Z</time></trkpt><trkpt lat="59.3381085433" lon="34.6817307640"><ele>167.62</ele><time>2026-08-14T00:19:18Z</time></trkpt><trkpt lat="59.3381030951" lon="34.6817549877"><ele>168.89</ele><time>2026-08-14T00:19:49Z</time></trkpt><trkpt lat="59.3381217867" lon="34.6817067079"><ele>169.31</ele><time>2026-08-14T00:20:18Z</time></trkpt><trkpt lat="59.3380452599" lon="34.6816249844"><ele>169.42</ele><time>2026-08-14T00:20:43Z</time></trkpt><trkpt lat="59.3380828947" lon="34.6816734318"><ele>170.21</ele><time>2026-08-14T00:21:07Z</time></trkpt><trkpt lat="59.3380678911" lon="34.6816764493"><ele>171.45</ele><time>2026-08-14T00:21:35Z</time></trkpt><trkpt lat="59.3380412366" lon="34.6815519780"><ele>174.29</ele><time>2026-08-14T00:22:01Z</time></trkpt><trkpt lat="59.3380310945" lon="34.6815563366"><ele>177.44</ele><time>2026-08-14T00:22:29Z</time></trkpt><trkpt lat="59.3380144984" lon="34.6815630421"><ele>178.99</ele><time>2026-08-14T00:23:00Z</time></trkpt><trkpt lat="59.3380160071" lon="34.6815616172"><ele>178.34</ele><time>2026-08-14T00:23:33Z</time></trkpt><trkpt lat="59.3380229641" lon="34.6815867629"><ele>179.58</ele><time>2026-08-14T00:24:06Z</time></trkpt><trkpt lat="59.3380476907" lon="34.6817000862"><ele>178.80</ele><time>2026-08-14T00:24:43Z</time></trkpt><trkpt lat="59.3380523846" lon="34.6816833224"><ele>178.91</ele><time>2026-08-14T00:25:10Z</time></trkpt><trkpt lat="59.3380482774" lon="34.6816780418"><ele>177.50</ele><time>2026-08-14T00:25:40Z</time></trkpt><trkpt lat="59.3380307592" lon="34.6816400718"><ele>177.27</ele><time>2026-08-14T00:26:13Z</time></trkpt><trkpt lat="59.3380953837" lon="34.6816238109"><ele>176.58</ele><time>2026-08-14T00:26:42Z</time></trkpt><trkpt lat="59.3381062802" lon="34.6816473641"><ele>175.30</ele><time>2026-08-14T00:27:09Z</time></trkpt><trkpt lat="59.3381372094" lon="34.6816221345"><ele>174.04</ele><time>2026-08-14T00:27:40Z</time></trkpt><trkpt lat="59.3381605949" lon="34.6816368029"><ele>172.20</ele><time>2026-08-14T00:28:10Z</time></trkpt><trkpt lat="59.3380928691" lon="34.6816441789"><ele>171.42</ele><time>2026-08-14T00:28:39Z</time></trkpt><trkpt lat="59.3379572500" lon="34.6815943904"><ele>170.23</ele><time>2026-08-14T00:29:00Z</time></trkpt><trkpt lat="59.3378957268" lon="34.6815071348"><ele>169.26</ele><time>2026-08-14T00:29:30Z</time></trkpt><trkpt lat="59.3379184417" lon="34.6814561728"><ele>170.41</ele><time>2026-08-14T00:30:05Z</time></trkpt><trkpt lat="59.3379406538" lon="34.6814947296"><ele>169.62</ele><time>2026-08-14T00:30:32Z</time></trkpt><trkpt lat="59.3379298411" lon="34.6815053746"><ele>168.97</ele><time>2026-08-14T00:31:06Z</time></trkpt><trkpt lat="59.3379057851" lon="34.6814803965"><ele>173.42</ele><time>2026-08-14T00:31:47Z</time></trkpt><trkpt lat="59.3379246444" lon="34.6814829949"><ele>175.67</ele><time>2026-08-14T00:32:32Z</time></trkpt><trkpt lat="59.3378827348" lon="34.6814775467"><ele>175.19</ele><time>2026-08-14T00:33:14Z</time></trkpt><trkpt lat="59.3379269075" lon="34.6815208811"><ele>174.85</ele><time>2026-08-14T00:33:32Z</time></trkpt><trkpt lat="59.3379562441" lon="34.6815644670"><ele>174.25</ele><time>2026-08-14T00:33:49Z</time></trkpt><trkpt lat="59.3379766122" lon="34.6816105675"><ele>173.54</ele><time>2026-08-14T00:34:17Z</time></trkpt><trkpt lat="59.3379569147" lon="34.6816300135"><ele>173.52</ele><time>2026-08-14T00:34:20Z</time></trkpt><trkpt lat="59.3379290868" lon="34.6817222983"><ele>171.98</ele><time>2026-08-14T00:34:45Z</time></trkpt><trkpt lat="59.3379936274" lon="34.6816572547"><ele>171.99</ele><time>2026-08-14T00:35:06Z</time></trkpt><trkpt lat="59.3379325233" lon="34.6815930493"><ele>172.79</ele><time>2026-08-14T00:35:33Z</time></trkpt><trkpt lat="59.3378950562" lon="34.6814714279"><ele>173.33</ele><time>2026-08-14T00:36:07Z</time></trkpt><trkpt lat="59.3378971517" lon="34.6812805720"><ele>172.10</ele><time>2026-08-14T00:36:28Z</time></trkpt><trkpt lat="59.3378704973" lon="34.6809646580"><ele>167.20</ele><time>2026-08-14T00:36:46Z</time></trkpt><trkpt lat="59.3379873410" lon="34.6809934918"><ele>162.82</ele><time>2026-08-14T00:37:02Z</time></trkpt><trkpt lat="59.3380898517" lon="34.6807827707"><ele>161.36</ele><time>2026-08-14T00:37:21Z</time></trkpt><trkpt lat="59.3381259777" lon="34.6806557011"><ele>159.86</ele><time>2026-08-14T00:37:42Z</time></trkpt><trkpt lat="59.3381951284" lon="34.6805410367"><ele>161.32</ele><time>2026-08-14T00:38:01Z</time></trkpt><trkpt lat="59.3382649496" lon="34.6804720536"><ele>161.33</ele><time>2026-08-14T00:38:20Z</time></trkpt><trkpt lat="59.3383262213" lon="34.6804426331"><ele>161.16</ele><time>2026-08-14T00:38:31Z</time></trkpt><trkpt lat="59.3384122197" lon="34.6803528629"><ele>163.57</ele><time>2026-08-14T00:38:59Z</time></trkpt><trkpt lat="59.3383922707" lon="34.6802293137"><ele>166.35</ele><time>2026-08-14T00:39:28Z</time></trkpt><trkpt lat="59.3384358566" lon="34.6803065948"><ele>168.43</ele><time>2026-08-14T00:40:00Z</time></trkpt><trkpt lat="59.3384837173" lon="34.6802824549"><ele>169.79</ele><time>2026-08-14T00:40:32Z</time></trkpt><trkpt lat="59.3384153210" lon="34.6803195029"><ele>172.18</ele><time>2026-08-14T00:41:00Z</time></trkpt><trkpt lat="59.3383728247" lon="34.6802987158"><ele>174.20</ele><time>2026-08-14T00:41:33Z</time></trkpt><trkpt lat="59.3383998144" lon="34.6803139709"><ele>175.30</ele><time>2026-08-14T00:41:59Z</time></trkpt><trkpt lat="59.3383789435" lon="34.6802844666"><ele>175.45</ele><time>2026-08-14T00:42:25Z</time></trkpt><trkpt lat="59.3384528719" lon="34.6802235302"><ele>174.70</ele><time>2026-08-14T00:42:45Z</time></trkpt><trkpt lat="59.3385457434" lon="34.6800772659"><ele>173.25</ele><time>2026-08-14T00:43:02Z</time></trkpt><trkpt lat="59.3386477511" lon="34.6799227875"><ele>171.66</ele><time>2026-08-14T00:43:22Z</time></trkpt><trkpt lat="59.3387488369" lon="34.6799018327"><ele>169.50</ele><time>2026-08-14T00:43:39Z</time></trkpt><trkpt lat="59.3387604039" lon="34.6798024233"><ele>168.82</ele><time>2026-08-14T00:43:55Z</time></trkpt><trkpt lat="59.3386817817" lon="34.6796269901"><ele>168.10</ele><time>2026-08-14T00:44:15Z</time></trkpt><trkpt lat="59.3386014830" lon="34.6794322785"><ele>165.32</ele><time>2026-08-14T00:44:37Z</time></trkpt><trkpt lat="59.3385525327" lon="34.6792238206"><ele>163.97</ele><time>2026-08-14T00:44:59Z</time></trkpt><trkpt lat="59.3386034109" lon="34.6790136863"><ele>163.96</ele><time>2026-08-14T00:45:16Z</time></trkpt><trkpt lat="59.3386584800" lon="34.6789043862"><ele>165.96</ele><time>2026-08-14T00:45:35Z</time></trkpt><trkpt lat="59.3387566321" lon="34.6788044740"><ele>165.58</ele><time>2026-08-14T00:45:53Z</time></trkpt><trkpt lat="59.3387839571" lon="34.6786730457"><ele>165.85</ele><time>2026-08-14T00:46:11Z</time></trkpt><trkpt lat="59.3388187420" lon="34.6786079183"><ele>164.84</ele><time>2026-08-14T00:46:32Z</time></trkpt><trkpt lat="59.3388200831" lon="34.6785960998"><ele>163.10</ele><time>2026-08-14T00:47:02Z</time></trkpt><trkpt lat="59.3388431333" lon="34.6787723713"><ele>164.30</ele><time>2026-08-14T00:47:34Z</time></trkpt><trkpt lat="59.3388470728" lon="34.6787557751"><ele>166.10</ele><time>2026-08-14T00:48:04Z</time></trkpt><trkpt lat="59.3389283773" lon="34.6787202358"><ele>166.80</ele><time>2026-08-14T00:48:33Z</time></trkpt><trkpt lat="59.3388785049" lon="34.6787659172"><ele>171.41</ele><time>2026-08-14T00:49:04Z</time></trkpt><trkpt lat="59.3389094342" lon="34.6785819344"><ele>172.05</ele><time>2026-08-14T00:49:30Z</time></trkpt><trkpt lat="59.3389502540" lon="34.6785916574"><ele>171.42</ele><time>2026-08-14T00:49:54Z</time></trkpt><trkpt lat="59.3390339054" lon="34.6785505861"><ele>169.99</ele><time>2026-08-14T00:50:15Z</time></trkpt><trkpt lat="59.3390861247" lon="34.6784431301"><ele>169.16</ele><time>2026-08-14T00:50:37Z</time></trkpt><trkpt lat="59.3390966021" lon="34.6782034915"><ele>168.25</ele><time>2026-08-14T00:50:57Z</time></trkpt><trkpt lat="59.3390890583" lon="34.6779701393"><ele>166.60</ele><time>2026-08-14T00:51:17Z</time></trkpt><trkpt lat="59.3390571233" lon="34.6779120527"><ele>166.49</ele><time>2026-08-14T00:51:42Z</time></trkpt><trkpt lat="59.3390759826" lon="34.6778934449"><ele>167.49</ele><time>2026-08-14T00:52:08Z</time></trkpt><trkpt lat="59.3390809279" lon="34.6779222786"><ele>167.28</ele><time>2026-08-14T00:52:27Z</time></trkpt><trkpt lat="59.3390872143" lon="34.6779163275"><ele>167.68</ele><time>2026-08-14T00:52:50Z</time></trkpt><trkpt lat="59.3391334824" lon="34.6777387150"><ele>166.92</ele><time>2026-08-14T00:53:11Z</time></trkpt><trkpt lat="59.3391213287" lon="34.6775369626"><ele>166.43</ele><time>2026-08-14T00:53:31Z</time></trkpt><trkpt lat="59.3391271960" lon="34.6774877608"><ele>166.47</ele><time>2026-08-14T00:53:57Z</time></trkpt><trkpt lat="59.3391217478" lon="34.6774232201"><ele>166.05</ele><time>2026-08-14T00:54:19Z</time></trkpt><trkpt lat="59.3391803373" lon="34.6775412373"><ele>166.52</ele><time>2026-08-14T00:54:48Z</time></trkpt><trkpt lat="59.3391928263" lon="34.6774957236"><ele>166.34</ele><time>2026-08-14T00:55:19Z</time></trkpt><trkpt lat="59.3391499948" lon="34.6773996670"><ele>166.54</ele><time>2026-08-14T00:55:48Z</time></trkpt><trkpt lat="59.3391278666" lon="34.6775782853"><ele>166.94</ele><time>2026-08-14T00:56:19Z</time></trkpt><trkpt lat="59.3390910700" lon="34.6775949653"><ele>167.04</ele><time>2026-08-14T00:56:31Z</time></trkpt><trkpt lat="59.3391429540" lon="34.6775568277"><ele>167.15</ele><time>2026-08-14T00:57:03Z</time></trkpt><trkpt lat="59.3391655013" lon="34.6774078812"><ele>166.88</ele><time>2026-08-14T00:57:27Z</time></trkpt><trkpt lat="59.3391638249" lon="34.6772272512"><ele>165.86</ele><time>2026-08-14T00:57:45Z</time></trkpt><trkpt lat="59.3391620647" lon="34.6771430969"><ele>165.55</ele><time>2026-08-14T00:58:00Z</time></trkpt><trkpt lat="59.3391640764" lon="34.6770523209"><ele>165.64</ele><time>2026-08-14T00:58:22Z</time></trkpt><trkpt lat="59.3392356578" lon="34.6769685857"><ele>165.19</ele><time>2026-08-14T00:58:45Z</time></trkpt><trkpt lat="59.3392731249" lon="34.6769257542"><ele>165.09</ele><time>2026-08-14T00:59:12Z</time></trkpt><trkpt lat="59.3394136056" lon="34.6769249160"><ele>163.46</ele><time>2026-08-14T00:59:33Z</time></trkpt><trkpt lat="59.3395227380" lon="34.6767167933"><ele>162.73</ele><time>2026-08-14T00:59:51Z</time></trkpt><trkpt lat="59.3395350594" lon="34.6767001133"><ele>162.18</ele><time>2026-08-14T01:00:12Z</time></trkpt><trkpt lat="59.3395637255" lon="34.6765739657"><ele>162.50</ele><time>2026-08-14T01:00:31Z</time></trkpt><trkpt lat="59.3396257516" lon="34.6762774140"><ele>164.00</ele><time>2026-08-14T01:01:05Z</time></trkpt><trkpt lat="59.3396675773" lon="34.6762003843"><ele>164.35</ele><time>2026-08-14T01:01:23Z</time></trkpt><trkpt lat="59.3396741152" lon="34.6761240251"><ele>164.96</ele><time>2026-08-14T01:01:43Z</time></trkpt><trkpt lat="59.3396792281" lon="34.6760486718"><ele>165.55</ele><time>2026-08-14T01:02:02Z</time></trkpt><trkpt lat="59.3396819942" lon="34.6759894118"><ele>167.45</ele><time>2026-08-14T01:02:32Z</time></trkpt><trkpt lat="59.3396349717" lon="34.6760231908"><ele>169.11</ele><time>2026-08-14T01:03:07Z</time></trkpt><trkpt lat="59.3396971654" lon="34.6760956105"><ele>168.74</ele><time>2026-08-14T01:03:35Z</time></trkpt><trkpt lat="59.3397741951" lon="34.6761583071"><ele>172.06</ele><time>2026-08-14T01:04:02Z</time></trkpt><trkpt lat="59.3397512287" lon="34.6761270426"><ele>173.41</ele><time>2026-08-14T01:04:39Z</time></trkpt><trkpt lat="59.3397720996" lon="34.6760473307"><ele>174.14</ele><time>2026-08-14T01:05:06Z</time></trkpt><trkpt lat="59.3397130910" lon="34.6759744920"><ele>173.17</ele><time>2026-08-14T01:05:36Z</time></trkpt><trkpt lat="59.3397815712" lon="34.6758438181"><ele>173.40</ele><time>2026-08-14T01:05:54Z</time></trkpt><trkpt lat="59.3397984188" lon="34.6757022478"><ele>173.56</ele><time>2026-08-14T01:06:13Z</time></trkpt><trkpt lat="59.3397601973" lon="34.6755910199"><ele>171.91</ele><time>2026-08-14T01:06:29Z</time></trkpt><trkpt lat="59.3397357222" lon="34.6755068656"><ele>171.41</ele><time>2026-08-14T01:06:41Z</time></trkpt><trkpt lat="59.3397023622" lon="34.6752537321"><ele>170.89</ele><time>2026-08-14T01:07:02Z</time></trkpt><trkpt lat="59.3396877777" lon="34.6751126647"><ele>170.41</ele><time>2026-08-14T01:07:20Z</time></trkpt><trkpt lat="59.3397145998" lon="34.6749514807"><ele>169.45</ele><time>2026-08-14T01:07:42Z</time></trkpt><trkpt lat="59.3397563417" lon="34.6747206431"><ele>168.84</ele><time>2026-08-14T01:08:02Z</time></trkpt><trkpt lat="59.3398369756" lon="34.6746323816"><ele>167.69</ele><time>2026-08-14T01:08:20Z</time></trkpt><trkpt lat="59.3398844171" lon="34.6746542584"><ele>167.07</ele><time>2026-08-14T01:08:38Z</time></trkpt><trkpt lat="59.3399152625" lon="34.6747263428"><ele>164.78</ele><time>2026-08-14T01:09:02Z</time></trkpt><trkpt lat="59.3398829084" lon="34.6746151149"><ele>163.47</ele><time>2026-08-14T01:09:35Z</time></trkpt><trkpt lat="59.3398208823" lon="34.6746990178"><ele>163.48</ele><time>2026-08-14T01:10:04Z</time></trkpt><trkpt lat="59.3398993369" lon="34.6746696811"><ele>164.85</ele><time>2026-08-14T01:10:37Z</time></trkpt><trkpt lat="59.3398765381" lon="34.6745824255"><ele>164.82</ele><time>2026-08-14T01:11:04Z</time></trkpt><trkpt lat="59.3399009295" lon="34.6745108441"><ele>165.59</ele><time>2026-08-14T01:11:33Z</time></trkpt><trkpt lat="59.3399502151" lon="34.6743775718"><ele>166.15</ele><time>2026-08-14T01:11:45Z</time></trkpt><trkpt lat="59.3399941362" lon="34.6743172221"><ele>164.19</ele><time>2026-08-14T01:12:09Z</time></trkpt><trkpt lat="59.3400208745" lon="34.6742891427"><ele>163.69</ele><time>2026-08-14T01:12:33Z</time></trkpt><trkpt lat="59.3400683999" lon="34.6742614824"><ele>163.66</ele><time>2026-08-14T01:12:47Z</time></trkpt><trkpt lat="59.3401448429" lon="34.6743064933"><ele>163.83</ele><time>2026-08-14T01:13:09Z</time></trkpt><trkpt lat="59.3402038515" lon="34.6741532721"><ele>163.09</ele><time>2026-08-14T01:13:25Z</time></trkpt><trkpt lat="59.3402572442" lon="34.6740315668"><ele>163.37</ele><time>2026-08-14T01:13:45Z</time></trkpt><trkpt lat="59.3402010016" lon="34.6740912460"><ele>162.42</ele><time>2026-08-14T01:14:12Z</time></trkpt><trkpt lat="59.3402383849" lon="34.6742067486"><ele>162.08</ele><time>2026-08-14T01:14:39Z</time></trkpt><trkpt lat="59.3402310926" lon="34.6741313115"><ele>163.48</ele><time>2026-08-14T01:14:56Z</time></trkpt><trkpt lat="59.3403075356" lon="34.6740296390"><ele>170.58</ele><time>2026-08-14T01:15:28Z</time></trkpt><trkpt lat="59.3403112236" lon="34.6739365160"><ele>172.56</ele><time>2026-08-14T01:15:57Z</time></trkpt><trkpt lat="59.3403221201" lon="34.6740140487"><ele>173.39</ele><time>2026-08-14T01:16:31Z</time></trkpt><trkpt lat="59.3403434940" lon="34.6740240231"><ele>175.81</ele><time>2026-08-14T01:16:58Z</time></trkpt><trkpt lat="59.3403185159" lon="34.6740376856"><ele>175.96</ele><time>2026-08-14T01:17:29Z</time></trkpt><trkpt lat="59.3403308373" lon="34.6739666909"><ele>174.32</ele><time>2026-08-14T01:18:02Z</time></trkpt><trkpt lat="59.3403261434" lon="34.6739604045"><ele>173.16</ele><time>2026-08-14T01:18:26Z</time></trkpt><trkpt lat="59.3403538875" lon="34.6739841253"><ele>172.66</ele><time>2026-08-14T01:18:55Z</time></trkpt><trkpt lat="59.3403725792" lon="34.6740000509"><ele>175.29</ele><time>2026-08-14T01:19:25Z</time></trkpt><trkpt lat="59.3403626885" lon="34.6739842929"><ele>175.20</ele><time>2026-08-14T01:19:55Z</time></trkpt><trkpt lat="59.3403697293" lon="34.6739754081"><ele>175.61</ele><time>2026-08-14T01:20:23Z</time></trkpt><trkpt lat="59.3403457571" lon="34.6740241908"><ele>176.17</ele><time>2026-08-14T01:20:50Z</time></trkpt><trkpt lat="59.3403845653" lon="34.6740166470"><ele>176.34</ele><time>2026-08-14T01:21:18Z</time></trkpt><trkpt lat="59.3404031731" lon="34.6740007214"><ele>176.14</ele><time>2026-08-14T01:21:45Z</time></trkpt><trkpt lat="59.3403398897" lon="34.6739054192"><ele>175.73</ele><time>2026-08-14T01:21:59Z</time></trkpt><trkpt lat="59.3404227868" lon="34.6737138927"><ele>175.88</ele><time>2026-08-14T01:22:22Z</time></trkpt><trkpt lat="59.3405244593" lon="34.6735524572"><ele>175.28</ele><time>2026-08-14T01:22:40Z</time></trkpt><trkpt lat="59.3406011537" lon="34.6733898483"><ele>174.98</ele><time>2026-08-14T01:22:53Z</time></trkpt><trkpt lat="59.3405895028" lon="34.6732885111"><ele>174.57</ele><time>2026-08-14T01:23:06Z</time></trkpt><trkpt lat="59.3405335117" lon="34.6731955558"><ele>173.75</ele><time>2026-08-14T01:23:20Z</time></trkpt><trkpt lat="59.3406304903" lon="34.6731927898"><ele>173.92</ele><time>2026-08-14T01:23:37Z</time></trkpt><trkpt lat="59.3406644370" lon="34.6730566677"><ele>174.11</ele><time>2026-08-14T01:23:52Z</time></trkpt><trkpt lat="59.3406131398" lon="34.6728524845"><ele>174.46</ele><time>2026-08-14T01:24:08Z</time></trkpt><trkpt lat="59.3405702244" lon="34.6727197152"><ele>173.52</ele><time>2026-08-14T01:24:26Z</time></trkpt><trkpt lat="59.3405477609" lon="34.6725493111"><ele>172.92</ele><time>2026-08-14T01:24:41Z</time></trkpt><trkpt lat="59.3405174185" lon="34.6724565234"><ele>172.61</ele><time>2026-08-14T01:25:18Z</time></trkpt><trkpt lat="59.3405017443" lon="34.6724760532"><ele>171.89</ele><time>2026-08-14T01:25:43Z</time></trkpt><trkpt lat="59.3405428156" lon="34.6725119278"><ele>170.44</ele><time>2026-08-14T01:26:11Z</time></trkpt><trkpt lat="59.3405162450" lon="34.6724509075"><ele>170.69</ele><time>2026-08-14T01:26:38Z</time></trkpt><trkpt lat="59.3405143172" lon="34.6724551823"><ele>170.65</ele><time>2026-08-14T01:27:08Z</time></trkpt><trkpt lat="59.3404966313" lon="34.6724897157"><ele>171.40</ele><time>2026-08-14T01:27:36Z</time></trkpt><trkpt lat="59.3403937016" lon="34.6724804956"><ele>172.31</ele><time>2026-08-14T01:28:03Z</time></trkpt><trkpt lat="59.3403543066" lon="34.6725329664"><ele>173.69</ele><time>2026-08-14T01:28:32Z</time></trkpt><trkpt lat="59.3404180091" lon="34.6725771390"><ele>175.31</ele><time>2026-08-14T01:28:55Z</time></trkpt><trkpt lat="59.3404479325" lon="34.6723840199"><ele>176.86</ele><time>2026-08-14T01:29:27Z</time></trkpt><trkpt lat="59.3405470904" lon="34.6722626500"><ele>176.68</ele><time>2026-08-14T01:29:52Z</time></trkpt><trkpt lat="59.3405738287" lon="34.6721316408"><ele>177.14</ele><time>2026-08-14T01:30:06Z</time></trkpt><trkpt lat="59.3405378703" lon="34.6720556170"><ele>179.01</ele><time>2026-08-14T01:30:39Z</time></trkpt><trkpt lat="59.3405133951" lon="34.6719245240"><ele>178.65</ele><time>2026-08-14T01:30:53Z</time></trkpt><trkpt lat="59.3404567335" lon="34.6717694588"><ele>178.98</ele><time>2026-08-14T01:31:06Z</time></trkpt><trkpt lat="59.3404551409" lon="34.6717134677"><ele>179.60</ele><time>2026-08-14T01:31:19Z</time></trkpt><trkpt lat="59.3404805381" lon="34.6715414710"><ele>179.16</ele><time>2026-08-14T01:31:36Z</time></trkpt><trkpt lat="59.3404976372" lon="34.6715384535"><ele>179.38</ele><time>2026-08-14T01:31:47Z</time></trkpt><trkpt lat="59.3404953741" lon="34.6713328455"><ele>181.08</ele><time>2026-08-14T01:32:06Z</time></trkpt><trkpt lat="59.3405037560" lon="34.6711641178"><ele>181.17</ele><time>2026-08-14T01:32:25Z</time></trkpt><trkpt lat="59.3405050971" lon="34.6709004231"><ele>179.63</ele><time>2026-08-14T01:32:45Z</time></trkpt><trkpt lat="59.3404407240" lon="34.6706092358"><ele>176.13</ele><time>2026-08-14T01:33:03Z</time></trkpt><trkpt lat="59.3403984793" lon="34.6705941483"><ele>174.99</ele><time>2026-08-14T01:33:08Z</time></trkpt><trkpt lat="59.3403468467" lon="34.6704969183"><ele>176.19</ele><time>2026-08-14T01:33:35Z</time></trkpt><trkpt lat="59.3402603455" lon="34.6704691742"><ele>174.81</ele><time>2026-08-14T01:34:06Z</time></trkpt><trkpt lat="59.3402974773" lon="34.6704457887"><ele>173.39</ele><time>2026-08-14T01:34:31Z</time></trkpt><trkpt lat="59.3402901012" lon="34.6705104131"><ele>172.66</ele><time>2026-08-14T01:34:57Z</time></trkpt><trkpt lat="59.3402291648" lon="34.6705152746"><ele>173.25</ele><time>2026-08-14T01:35:24Z</time></trkpt><trkpt lat="59.3402667157" lon="34.6705275122"><ele>172.82</ele><time>2026-08-14T01:35:55Z</time></trkpt><trkpt lat="59.3403172586" lon="34.6705536637"><ele>173.81</ele><time>2026-08-14T01:36:22Z</time></trkpt><trkpt lat="59.3403913546" lon="34.6705783904"><ele>176.36</ele><time>2026-08-14T01:36:59Z</time></trkpt><trkpt lat="59.3403260596" lon="34.6704835072"><ele>177.23</ele><time>2026-08-14T01:37:26Z</time></trkpt><trkpt lat="59.3403377105" lon="34.6702769771"><ele>177.15</ele><time>2026-08-14T01:37:43Z</time></trkpt><trkpt lat="59.3404400535" lon="34.6700908151"><ele>177.49</ele><time>2026-08-14T01:38:01Z</time></trkpt><trkpt lat="59.3404325936" lon="34.6698258631"><ele>177.62</ele><time>2026-08-14T01:38:21Z</time></trkpt><trkpt lat="59.3404432386" lon="34.6695469972"><ele>176.89</ele><time>2026-08-14T01:38:41Z</time></trkpt><trkpt lat="59.3404024187" lon="34.6694348473"><ele>176.32</ele><time>2026-08-14T01:39:01Z</time></trkpt><trkpt lat="59.3404719047" lon="34.6692142356"><ele>175.48</ele><time>2026-08-14T01:39:22Z</time></trkpt><trkpt lat="59.3405396305" lon="34.6690162551"><ele>175.13</ele><time>2026-08-14T01:39:41Z</time></trkpt><trkpt lat="59.3405833840" lon="34.6687311027"><ele>175.12</ele><time>2026-08-14T01:40:03Z</time></trkpt><trkpt lat="59.3405965436" lon="34.6686528996"><ele>175.44</ele><time>2026-08-14T01:40:22Z</time></trkpt><trkpt lat="59.3405387923" lon="34.6686400753"><ele>174.90</ele><time>2026-08-14T01:40:46Z</time></trkpt><trkpt lat="59.3405422289" lon="34.6686165221"><ele>174.52</ele><time>2026-08-14T01:41:13Z</time></trkpt><trkpt lat="59.3405532092" lon="34.6686803922"><ele>174.75</ele><time>2026-08-14T01:41:25Z</time></trkpt><trkpt lat="59.3405770138" lon="34.6687067114"><ele>175.85</ele><time>2026-08-14T01:41:54Z</time></trkpt><trkpt lat="59.3406259641" lon="34.6686869301"><ele>174.55</ele><time>2026-08-14T01:42:23Z</time></trkpt><trkpt lat="59.3405248784" lon="34.6687692404"><ele>173.76</ele><time>2026-08-14T01:42:50Z</time></trkpt><trkpt lat="59.3405032530" lon="34.6687715873"><ele>173.91</ele><time>2026-08-14T01:43:15Z</time></trkpt><trkpt lat="59.3405435700" lon="34.6687281691"><ele>170.93</ele><time>2026-08-14T01:43:44Z</time></trkpt><trkpt lat="59.3405226152" lon="34.6687499620"><ele>170.48</ele><time>2026-08-14T01:44:11Z</time></trkpt><trkpt lat="59.3405433185" lon="34.6686639637"><ele>170.37</ele><time>2026-08-14T01:44:37Z</time></trkpt><trkpt lat="59.3405500241" lon="34.6684790589"><ele>170.49</ele><time>2026-08-14T01:44:59Z</time></trkpt><trkpt lat="59.3406507745" lon="34.6683895402"><ele>170.25</ele><time>2026-08-14T01:45:14Z</time></trkpt><trkpt lat="59.3407328334" lon="34.6684868541"><ele>171.49</ele><time>2026-08-14T01:45:38Z</time></trkpt><trkpt lat="59.3407797720" lon="34.6684232354"><ele>171.88</ele><time>2026-08-14T01:45:55Z</time></trkpt><trkpt lat="59.3408110365" lon="34.6682415996"><ele>171.96</ele><time>2026-08-14T01:46:21Z</time></trkpt><trkpt lat="59.3408138026" lon="34.6682345588"><ele>171.86</ele><time>2026-08-14T01:46:22Z</time></trkpt><trkpt lat="59.3407597393" lon="34.6680470556"><ele>170.77</ele><time>2026-08-14T01:46:47Z</time></trkpt><trkpt lat="59.3408120424" lon="34.6678981092"><ele>171.53</ele><time>2026-08-14T01:47:15Z</time></trkpt><trkpt lat="59.3408260401" lon="34.6678757295"><ele>172.75</ele><time>2026-08-14T01:47:39Z</time></trkpt><trkpt lat="59.3408520240" lon="34.6677522641"><ele>171.99</ele><time>2026-08-14T01:48:02Z</time></trkpt><trkpt lat="59.3407858908" lon="34.6675276291"><ele>171.13</ele><time>2026-08-14T01:48:23Z</time></trkpt><trkpt lat="59.3406711426" lon="34.6672724001"><ele>172.33</ele><time>2026-08-14T01:48:44Z</time></trkpt><trkpt lat="59.3406343460" lon="34.6670916863"><ele>172.78</ele><time>2026-08-14T01:49:08Z</time></trkpt><trkpt lat="59.3406494334" lon="34.6670892555"><ele>172.68</ele><time>2026-08-14T01:49:19Z</time></trkpt><trkpt lat="59.3408161495" lon="34.6669543907"><ele>171.50</ele><time>2026-08-14T01:49:41Z</time></trkpt><trkpt lat="59.3408880662" lon="34.6669377945"><ele>172.10</ele><time>2026-08-14T01:50:01Z</time></trkpt><trkpt lat="59.3409881461" lon="34.6669363696"><ele>174.07</ele><time>2026-08-14T01:50:20Z</time></trkpt><trkpt lat="59.3410572130" lon="34.6667756047"><ele>174.80</ele><time>2026-08-14T01:50:37Z</time></trkpt><trkpt lat="59.3410940934" lon="34.6666774526"><ele>176.26</ele><time>2026-08-14T01:50:53Z</time></trkpt><trkpt lat="59.3411729671" lon="34.6667166799"><ele>176.78</ele><time>2026-08-14T01:51:13Z</time></trkpt><trkpt lat="59.3412716221" lon="34.6666588448"><ele>177.08</ele><time>2026-08-14T01:51:32Z</time></trkpt><trkpt lat="59.3412744720" lon="34.6664563380"><ele>176.66</ele><time>2026-08-14T01:51:51Z</time></trkpt><trkpt lat="59.3412867934" lon="34.6664352994"><ele>176.98</ele><time>2026-08-14T01:52:18Z</time></trkpt><trkpt lat="59.3413046468" lon="34.6663256641"><ele>176.35</ele><time>2026-08-14T01:52:53Z</time></trkpt><trkpt lat="59.3412769865" lon="34.6662884485"><ele>177.03</ele><time>2026-08-14T01:53:24Z</time></trkpt><trkpt lat="59.3412724603" lon="34.6664911229"><ele>177.29</ele><time>2026-08-14T01:54:14Z</time></trkpt><trkpt lat="59.3413059879" lon="34.6665228065"><ele>178.99</ele><time>2026-08-14T01:54:51Z</time></trkpt><trkpt lat="59.3412711192" lon="34.6662735287"><ele>179.68</ele><time>2026-08-14T01:55:40Z</time></trkpt><trkpt lat="59.3412732147" lon="34.6662217285"><ele>179.71</ele><time>2026-08-14T01:56:10Z</time></trkpt><trkpt lat="59.3412314728" lon="34.6663560905"><ele>179.53</ele><time>2026-08-14T01:56:42Z</time></trkpt><trkpt lat="59.3413254339" lon="34.6663966589"><ele>178.67</ele><time>2026-08-14T01:57:22Z</time></trkpt><trkpt lat="59.3412913196" lon="34.6663071401"><ele>177.48</ele><time>2026-08-14T01:57:49Z</time></trkpt><trkpt lat="59.3412925769" lon="34.6663895342"><ele>178.62</ele><time>2026-08-14T01:58:19Z</time></trkpt><trkpt lat="59.3412773218" lon="34.6663174499"><ele>180.55</ele><time>2026-08-14T01:58:46Z</time></trkpt><trkpt lat="59.3413370010" lon="34.6661962476"><ele>179.69</ele><time>2026-08-14T01:59:07Z</time></trkpt><trkpt lat="59.3413741328" lon="34.6661459561"><ele>177.98</ele><time>2026-08-14T01:59:32Z</time></trkpt><trkpt lat="59.3413151242" lon="34.6660514921"><ele>177.17</ele><time>2026-08-14T01:59:57Z</time></trkpt><trkpt lat="59.3413059879" lon="34.6659002826"><ele>175.64</ele><time>2026-08-14T02:00:14Z</time></trkpt><trkpt lat="59.3413874600" lon="34.6656104364"><ele>173.85</ele><time>2026-08-14T02:00:35Z</time></trkpt><trkpt lat="59.3414115999" lon="34.6654631663"><ele>175.82</ele><time>2026-08-14T02:00:57Z</time></trkpt><trkpt lat="59.3414285313" lon="34.6654614899"><ele>176.43</ele><time>2026-08-14T02:01:17Z</time></trkpt><trkpt lat="59.3415108416" lon="34.6653721388"><ele>177.14</ele><time>2026-08-14T02:01:36Z</time></trkpt><trkpt lat="59.3415496498" lon="34.6652708016"><ele>176.49</ele><time>2026-08-14T02:01:54Z</time></trkpt><trkpt lat="59.3416211475" lon="34.6652487572"><ele>176.83</ele><time>2026-08-14T02:02:15Z</time></trkpt><trkpt lat="59.3416848499" lon="34.6651312429"><ele>176.40</ele><time>2026-08-14T02:02:29Z</time></trkpt><trkpt lat="59.3417047989" lon="34.6650380362"><ele>175.88</ele><time>2026-08-14T02:02:47Z</time></trkpt><trkpt lat="59.3417679984" lon="34.6650522854"><ele>175.10</ele><time>2026-08-14T02:03:11Z</time></trkpt><trkpt lat="59.3418297730" lon="34.6652049199"><ele>174.59</ele><time>2026-08-14T02:03:33Z</time></trkpt><trkpt lat="59.3419004325" lon="34.6653091069"><ele>175.92</ele><time>2026-08-14T02:03:55Z</time></trkpt><trkpt lat="59.3419148494" lon="34.6653954405"><ele>178.60</ele><time>2026-08-14T02:04:24Z</time></trkpt><trkpt lat="59.3419296853" lon="34.6650783531"><ele>179.15</ele><time>2026-08-14T02:04:52Z</time></trkpt><trkpt lat="59.3419780489" lon="34.6651407983"><ele>177.98</ele><time>2026-08-14T02:05:21Z</time></trkpt><trkpt lat="59.3419565074" lon="34.6651338413"><ele>179.43</ele><time>2026-08-14T02:05:51Z</time></trkpt><trkpt lat="59.3419664819" lon="34.6650244575"><ele>179.46</ele><time>2026-08-14T02:06:16Z</time></trkpt><trkpt lat="59.3419731036" lon="34.6650618408"><ele>177.61</ele><time>2026-08-14T02:06:45Z</time></trkpt><trkpt lat="59.3420226406" lon="34.6650477592"><ele>177.53</ele><time>2026-08-14T02:07:10Z</time></trkpt><trkpt lat="59.3419748638" lon="34.6650506090"><ele>183.18</ele><time>2026-08-14T02:07:37Z</time></trkpt><trkpt lat="59.3418857642" lon="34.6650652774"><ele>185.38</ele><time>2026-08-14T02:08:02Z</time></trkpt><trkpt lat="59.3418546673" lon="34.6648590825"><ele>183.14</ele><time>2026-08-14T02:08:20Z</time></trkpt><trkpt lat="59.3418764602" lon="34.6647129022"><ele>181.43</ele><time>2026-08-14T02:08:39Z</time></trkpt><trkpt lat="59.3418084830" lon="34.6644774545"><ele>180.18</ele><time>2026-08-14T02:08:58Z</time></trkpt><trkpt lat="59.3418301921" lon="34.6642917953"><ele>179.99</ele><time>2026-08-14T02:09:14Z</time></trkpt><trkpt lat="59.3418245763" lon="34.6641641390"><ele>179.82</ele><time>2026-08-14T02:09:34Z</time></trkpt><trkpt lat="59.3417938147" lon="34.6640024520"><ele>179.26</ele><time>2026-08-14T02:09:53Z</time></trkpt><trkpt lat="59.3417536654" lon="34.6638581995"><ele>178.50</ele><time>2026-08-14T02:10:14Z</time></trkpt><trkpt lat="59.3417627178" lon="34.6636141185"><ele>177.67</ele><time>2026-08-14T02:10:32Z</time></trkpt><trkpt lat="59.3418207206" lon="34.6634235978"><ele>176.33</ele><time>2026-08-14T02:10:51Z</time></trkpt><trkpt lat="59.3419025280" lon="34.6632844582"><ele>174.47</ele><time>2026-08-14T02:11:11Z</time></trkpt><trkpt lat="59.3419451080" lon="34.6631848812"><ele>173.48</ele><time>2026-08-14T02:11:29Z</time></trkpt><trkpt lat="59.3419734389" lon="34.6628614236"><ele>172.78</ele><time>2026-08-14T02:11:48Z</time></trkpt><trkpt lat="59.3420082238" lon="34.6626374591"><ele>173.24</ele><time>2026-08-14T02:12:07Z</time></trkpt><trkpt lat="59.3420042843" lon="34.6625933703"><ele>173.95</ele><time>2026-08-14T02:12:29Z</time></trkpt><trkpt lat="59.3419352174" lon="34.6625483595"><ele>174.32</ele><time>2026-08-14T02:13:02Z</time></trkpt><trkpt lat="59.3418868538" lon="34.6625140775"><ele>174.86</ele><time>2026-08-14T02:13:43Z</time></trkpt><trkpt lat="59.3419698346" lon="34.6625880897"><ele>174.04</ele><time>2026-08-14T02:14:40Z</time></trkpt><trkpt lat="59.3420968205" lon="34.6626428235"><ele>174.96</ele><time>2026-08-14T02:15:09Z</time></trkpt><trkpt lat="59.3420311064" lon="34.6626227908"><ele>173.64</ele><time>2026-08-14T02:16:00Z</time></trkpt><trkpt lat="59.3419073895" lon="34.6623871755"><ele>170.76</ele><time>2026-08-14T02:16:33Z</time></trkpt><trkpt lat="59.3419540767" lon="34.6623426676"><ele>171.52</ele><time>2026-08-14T02:16:58Z</time></trkpt><trkpt lat="59.3420549110" lon="34.6623268258"><ele>171.20</ele><time>2026-08-14T02:17:13Z</time></trkpt><trkpt lat="59.3422097247" lon="34.6622704156"><ele>172.49</ele><time>2026-08-14T02:17:33Z</time></trkpt><trkpt lat="59.3422771152" lon="34.6621383168"><ele>173.63</ele><time>2026-08-14T02:17:53Z</time></trkpt><trkpt lat="59.3422842398" lon="34.6620866843"><ele>174.42</ele><time>2026-08-14T02:18:16Z</time></trkpt><trkpt lat="59.3422829825" lon="34.6618380770"><ele>174.65</ele><time>2026-08-14T02:18:35Z</time></trkpt><trkpt lat="59.3422657996" lon="34.6618038788"><ele>174.33</ele><time>2026-08-14T02:18:45Z</time></trkpt><trkpt lat="59.3422652967" lon="34.6614485700"><ele>175.10</ele><time>2026-08-14T02:19:07Z</time></trkpt><trkpt lat="59.3423436675" lon="34.6613782458"><ele>174.72</ele><time>2026-08-14T02:19:26Z</time></trkpt><trkpt lat="59.3423296697" lon="34.6614544373"><ele>176.46</ele><time>2026-08-14T02:19:46Z</time></trkpt><trkpt lat="59.3423363753" lon="34.6614428703"><ele>176.41</ele><time>2026-08-14T02:20:23Z</time></trkpt><trkpt lat="59.3423849065" lon="34.6613441315"><ele>176.47</ele><time>2026-08-14T02:21:42Z</time></trkpt><trkpt lat="59.3423988204" lon="34.6611533593"><ele>175.85</ele><time>2026-08-14T02:21:59Z</time></trkpt><trkpt lat="59.3423832301" lon="34.6608874854"><ele>174.59</ele><time>2026-08-14T02:22:20Z</time></trkpt><trkpt lat="59.3423262332" lon="34.6607458312"><ele>173.40</ele><time>2026-08-14T02:22:42Z</time></trkpt><trkpt lat="59.3422558252" lon="34.6605938673"><ele>172.80</ele><time>2026-08-14T02:23:01Z</time></trkpt><trkpt lat="59.3421604391" lon="34.6604834776"><ele>173.82</ele><time>2026-08-14T02:23:19Z</time></trkpt><trkpt lat="59.3420611136" lon="34.6603608504"><ele>174.18</ele><time>2026-08-14T02:23:38Z</time></trkpt><trkpt lat="59.3420422543" lon="34.6601067111"><ele>172.04</ele><time>2026-08-14T02:23:58Z</time></trkpt><trkpt lat="59.3420488760" lon="34.6599063836"><ele>170.34</ele><time>2026-08-14T02:24:14Z</time></trkpt><trkpt lat="59.3420354649" lon="34.6598614566"><ele>169.31</ele><time>2026-08-14T02:24:33Z</time></trkpt><trkpt lat="59.3419956509" lon="34.6598422620"><ele>169.18</ele><time>2026-08-14T02:24:53Z</time></trkpt><trkpt lat="59.3419874366" lon="34.6598267555"><ele>170.35</ele><time>2026-08-14T02:25:12Z</time></trkpt><trkpt lat="59.3420566712" lon="34.6597172040"><ele>172.54</ele><time>2026-08-14T02:25:33Z</time></trkpt><trkpt lat="59.3420091458" lon="34.6598125063"><ele>171.98</ele><time>2026-08-14T02:25:56Z</time></trkpt><trkpt lat="59.3419767916" lon="34.6598998457"><ele>173.57</ele><time>2026-08-14T02:26:23Z</time></trkpt><trkpt lat="59.3419869337" lon="34.6598651446"><ele>174.77</ele><time>2026-08-14T02:27:18Z</time></trkpt><trkpt lat="59.3420622870" lon="34.6597283520"><ele>173.09</ele><time>2026-08-14T02:27:38Z</time></trkpt><trkpt lat="59.3421798013" lon="34.6596685890"><ele>172.31</ele><time>2026-08-14T02:27:56Z</time></trkpt><trkpt lat="59.3422436714" lon="34.6596155316"><ele>172.37</ele><time>2026-08-14T02:28:14Z</time></trkpt><trkpt lat="59.3422738463" lon="34.6594780684"><ele>172.23</ele><time>2026-08-14T02:28:30Z</time></trkpt><trkpt lat="59.3423353694" lon="34.6593975183"><ele>172.09</ele><time>2026-08-14T02:28:51Z</time></trkpt><trkpt lat="59.3423933722" lon="34.6593115199"><ele>172.65</ele><time>2026-08-14T02:29:07Z</time></trkpt><trkpt lat="59.3423740938" lon="34.6592342388"><ele>173.12</ele><time>2026-08-14T02:29:28Z</time></trkpt><trkpt lat="59.3424502015" lon="34.6591189038"><ele>172.85</ele><time>2026-08-14T02:29:45Z</time></trkpt><trkpt lat="59.3423776142" lon="34.6589386091"><ele>172.42</ele><time>2026-08-14T02:30:04Z</time></trkpt><trkpt lat="59.3423052784" lon="34.6588960290"><ele>172.97</ele><time>2026-08-14T02:30:23Z</time></trkpt><trkpt lat="59.3422455993" lon="34.6588262077"><ele>173.23</ele><time>2026-08-14T02:30:41Z</time></trkpt><trkpt lat="59.3422135804" lon="34.6586494334"><ele>172.02</ele><time>2026-08-14T02:31:02Z</time></trkpt><trkpt lat="59.3421272468" lon="34.6583958808"><ele>169.59</ele><time>2026-08-14T02:31:22Z</time></trkpt><trkpt lat="59.3420614488" lon="34.6583819669"><ele>171.46</ele><time>2026-08-14T02:31:41Z</time></trkpt><trkpt lat="59.3420699984" lon="34.6584278997"><ele>170.38</ele><time>2026-08-14T02:32:08Z</time></trkpt><trkpt lat="59.3420350458" lon="34.6583501156"><ele>168.55</ele><time>2026-08-14T02:32:38Z</time></trkpt><trkpt lat="59.3420254905" lon="34.6583080385"><ele>168.67</ele><time>2026-08-14T02:33:06Z</time></trkpt><trkpt lat="59.3420291785" lon="34.6582597587"><ele>169.70</ele><time>2026-08-14T02:33:36Z</time></trkpt><trkpt lat="59.3420408294" lon="34.6582558192"><ele>168.83</ele><time>2026-08-14T02:34:06Z</time></trkpt><trkpt lat="59.3420644663" lon="34.6582436655"><ele>168.23</ele><time>2026-08-14T02:34:31Z</time></trkpt><trkpt lat="59.3420680705" lon="34.6582928672"><ele>168.70</ele><time>2026-08-14T02:35:03Z</time></trkpt><trkpt lat="59.3420627061" lon="34.6582864132"><ele>173.25</ele><time>2026-08-14T02:35:32Z</time></trkpt><trkpt lat="59.3420739379" lon="34.6582403965"><ele>172.46</ele><time>2026-08-14T02:35:59Z</time></trkpt><trkpt lat="59.3420681544" lon="34.6582185198"><ele>171.83</ele><time>2026-08-14T02:36:27Z</time></trkpt><trkpt lat="59.3420509715" lon="34.6582486108"><ele>173.62</ele><time>2026-08-14T02:36:59Z</time></trkpt><trkpt lat="59.3420559168" lon="34.6582427435"><ele>174.82</ele><time>2026-08-14T02:37:23Z</time></trkpt><trkpt lat="59.3420505524" lon="34.6580595151"><ele>175.79</ele><time>2026-08-14T02:37:42Z</time></trkpt><trkpt lat="59.3421027716" lon="34.6579254046"><ele>175.38</ele><time>2026-08-14T02:38:03Z</time></trkpt><trkpt lat="59.3421528954" lon="34.6579095628"><ele>173.59</ele><time>2026-08-14T02:38:25Z</time></trkpt><trkpt lat="59.3422599323" lon="34.6579433419"><ele>173.97</ele><time>2026-08-14T02:38:43Z</time></trkpt><trkpt lat="59.3423371296" lon="34.6579424199"><ele>173.75</ele><time>2026-08-14T02:39:04Z</time></trkpt><trkpt lat="59.3423685618" lon="34.6578628756"><ele>173.77</ele><time>2026-08-14T02:39:33Z</time></trkpt><trkpt lat="59.3423933722" lon="34.6577475406"><ele>173.35</ele><time>2026-08-14T02:39:53Z</time></trkpt><trkpt lat="59.3423864152" lon="34.6577056311"><ele>174.40</ele><time>2026-08-14T02:40:14Z</time></trkpt><trkpt lat="59.3424016703" lon="34.6576822456"><ele>174.96</ele><time>2026-08-14T02:40:22Z</time></trkpt><trkpt lat="59.3424693961" lon="34.6574715246"><ele>174.77</ele><time>2026-08-14T02:40:42Z</time></trkpt><trkpt lat="59.3424597569" lon="34.6572768968"><ele>174.53</ele><time>2026-08-14T02:41:04Z</time></trkpt><trkpt lat="59.3424340244" lon="34.6573315468"><ele>171.68</ele><time>2026-08-14T02:41:33Z</time></trkpt><trkpt lat="59.3424294982" lon="34.6573081613"><ele>173.99</ele><time>2026-08-14T02:42:06Z</time></trkpt><trkpt lat="59.3424525484" lon="34.6573174652"><ele>174.44</ele><time>2026-08-14T02:42:35Z</time></trkpt><trkpt lat="59.3424514588" lon="34.6572791599"><ele>175.33</ele><time>2026-08-14T02:43:12Z</time></trkpt><trkpt lat="59.3424560688" lon="34.6573212370"><ele>174.98</ele><time>2026-08-14T02:43:38Z</time></trkpt><trkpt lat="59.3424968887" lon="34.6572898049"><ele>175.06</ele><time>2026-08-14T02:43:56Z</time></trkpt><trkpt lat="59.3424910214" lon="34.6572580375"><ele>174.31</ele><time>2026-08-14T02:44:23Z</time></trkpt><trkpt lat="59.3424939550" lon="34.6572294552"><ele>172.64</ele><time>2026-08-14T02:44:52Z</time></trkpt><trkpt lat="59.3424751796" lon="34.6572311316"><ele>170.40</ele><time>2026-08-14T02:45:22Z</time></trkpt><trkpt lat="59.3424579129" lon="34.6572316345"><ele>169.63</ele><time>2026-08-14T02:46:05Z</time></trkpt><trkpt lat="59.3424834777" lon="34.6572446264"><ele>171.66</ele><time>2026-08-14T02:46:37Z</time></trkpt><trkpt lat="59.3424957152" lon="34.6571877971"><ele>170.89</ele><time>2026-08-14T02:47:12Z</time></trkpt><trkpt lat="59.3424544763" lon="34.6572224982"><ele>170.51</ele><time>2026-08-14T02:47:44Z</time></trkpt><trkpt lat="59.3423718307" lon="34.6572052315"><ele>170.60</ele><time>2026-08-14T02:47:59Z</time></trkpt><trkpt lat="59.3423208687" lon="34.6571449656"><ele>171.71</ele><time>2026-08-14T02:48:16Z</time></trkpt><trkpt lat="59.3422714155" lon="34.6570616495"><ele>172.76</ele><time>2026-08-14T02:48:31Z</time></trkpt><trkpt lat="59.3421974033" lon="34.6571365837"><ele>173.75</ele><time>2026-08-14T02:48:47Z</time></trkpt><trkpt lat="59.3421544041" lon="34.6571052354"><ele>174.03</ele><time>2026-08-14T02:49:00Z</time></trkpt><trkpt lat="59.3421388138" lon="34.6570902318"><ele>174.82</ele><time>2026-08-14T02:49:11Z</time></trkpt><trkpt lat="59.3420926295" lon="34.6570290439"><ele>175.25</ele><time>2026-08-14T02:49:24Z</time></trkpt><trkpt lat="59.3420512229" lon="34.6571421996"><ele>174.68</ele><time>2026-08-14T02:49:36Z</time></trkpt><trkpt lat="59.3420074694" lon="34.6571575385"><ele>174.48</ele><time>2026-08-14T02:49:49Z</time></trkpt><trkpt lat="59.3419767078" lon="34.6570896450"><ele>175.00</ele><time>2026-08-14T02:50:06Z</time></trkpt><trkpt lat="59.3419245724" lon="34.6569905709"><ele>174.27</ele><time>2026-08-14T02:50:23Z</time></trkpt><trkpt lat="59.3419306912" lon="34.6568917483"><ele>174.00</ele><time>2026-08-14T02:50:43Z</time></trkpt><trkpt lat="59.3419244047" lon="34.6567438077"><ele>173.36</ele><time>2026-08-14T02:51:01Z</time></trkpt><trkpt lat="59.3419133406" lon="34.6567299776"><ele>172.95</ele><time>2026-08-14T02:51:25Z</time></trkpt><trkpt lat="59.3418977503" lon="34.6567249484"><ele>172.98</ele><time>2026-08-14T02:51:52Z</time></trkpt><trkpt lat="59.3418886140" lon="34.6566079371"><ele>174.98</ele><time>2026-08-14T02:52:25Z</time></trkpt><trkpt lat="59.3419321999" lon="34.6566568036"><ele>176.91</ele><time>2026-08-14T02:53:01Z</time></trkpt><trkpt lat="59.3419182021" lon="34.6566675324"><ele>177.69</ele><time>2026-08-14T02:53:30Z</time></trkpt><trkpt lat="59.3418661505" lon="34.6566858049"><ele>177.42</ele><time>2026-08-14T02:53:53Z</time></trkpt><trkpt lat="59.3417918030" lon="34.6566361003"><ele>178.42</ele><time>2026-08-14T02:54:15Z</time></trkpt><trkpt lat="59.3417109177" lon="34.6566770039"><ele>178.18</ele><time>2026-08-14T02:54:33Z</time></trkpt><trkpt lat="59.3416624703" lon="34.6565952804"><ele>175.92</ele><time>2026-08-14T02:54:44Z</time></trkpt><trkpt lat="59.3416152801" lon="34.6564417239"><ele>171.92</ele><time>2026-08-14T02:55:01Z</time></trkpt><trkpt lat="59.3415522482" lon="34.6564014070"><ele>169.48</ele><time>2026-08-14T02:55:12Z</time></trkpt><trkpt lat="59.3415383343" lon="34.6563899238"><ele>171.47</ele><time>2026-08-14T02:55:30Z</time></trkpt><trkpt lat="59.3415315449" lon="34.6563445777"><ele>172.21</ele><time>2026-08-14T02:55:54Z</time></trkpt><trkpt lat="59.3414760567" lon="34.6562429052"><ele>171.33</ele><time>2026-08-14T02:56:11Z</time></trkpt><trkpt lat="59.3414466362" lon="34.6562218666"><ele>173.39</ele><time>2026-08-14T02:56:48Z</time></trkpt><trkpt lat="59.3414471392" lon="34.6562484372"><ele>173.72</ele><time>2026-08-14T02:57:23Z</time></trkpt><trkpt lat="59.3414601311" lon="34.6561823878"><ele>173.75</ele><time>2026-08-14T02:57:44Z</time></trkpt><trkpt lat="59.3414737936" lon="34.6561984811"><ele>174.84</ele><time>2026-08-14T02:58:14Z</time></trkpt><trkpt lat="59.3414546829" lon="34.6562491078"><ele>176.24</ele><time>2026-08-14T02:59:00Z</time></trkpt><trkpt lat="59.3414492346" lon="34.6562279854"><ele>175.71</ele><time>2026-08-14T02:59:29Z</time></trkpt><trkpt lat="59.3414584547" lon="34.6562652010"><ele>176.38</ele><time>2026-08-14T02:59:55Z</time></trkpt><trkpt lat="59.3414488994" lon="34.6562996507"><ele>176.59</ele><time>2026-08-14T03:00:28Z</time></trkpt><trkpt lat="59.3414391764" lon="34.6563781891"><ele>176.57</ele><time>2026-08-14T03:00:45Z</time></trkpt><trkpt lat="59.3413733784" lon="34.6565461624"><ele>175.70</ele><time>2026-08-14T03:01:07Z</time></trkpt><trkpt lat="59.3413386773" lon="34.6566377766"><ele>176.13</ele><time>2026-08-14T03:01:31Z</time></trkpt><trkpt lat="59.3413353246" lon="34.6568163112"><ele>175.85</ele><time>2026-08-14T03:01:51Z</time></trkpt><trkpt lat="59.3413199857" lon="34.6568627469"><ele>175.95</ele><time>2026-08-14T03:01:56Z</time></trkpt><trkpt lat="59.3413072452" lon="34.6569075063"><ele>176.17</ele><time>2026-08-14T03:02:02Z</time></trkpt><trkpt lat="59.3413197342" lon="34.6570908185"><ele>175.50</ele><time>2026-08-14T03:02:22Z</time></trkpt><trkpt lat="59.3413302116" lon="34.6571910661"><ele>176.16</ele><time>2026-08-14T03:02:46Z</time></trkpt><trkpt lat="59.3413123582" lon="34.6572459675"><ele>178.44</ele><time>2026-08-14T03:03:12Z</time></trkpt><trkpt lat="59.3413256854" lon="34.6572627313"><ele>179.42</ele><time>2026-08-14T03:03:39Z</time></trkpt><trkpt lat="59.3413366657" lon="34.6572539303"><ele>180.39</ele><time>2026-08-14T03:04:01Z</time></trkpt><trkpt lat="59.3412599713" lon="34.6574205626"><ele>179.50</ele><time>2026-08-14T03:04:21Z</time></trkpt><trkpt lat="59.3412680179" lon="34.6575492248"><ele>178.22</ele><time>2026-08-14T03:04:38Z</time></trkpt><trkpt lat="59.3412590493" lon="34.6577234846"><ele>177.91</ele><time>2026-08-14T03:05:03Z</time></trkpt><trkpt lat="59.3412864581" lon="34.6577347163"><ele>178.08</ele><time>2026-08-14T03:05:42Z</time></trkpt><trkpt lat="59.3412705325" lon="34.6578146797"><ele>178.23</ele><time>2026-08-14T03:06:13Z</time></trkpt><trkpt lat="59.3412510026" lon="34.6578115784"><ele>177.91</ele><time>2026-08-14T03:06:41Z</time></trkpt><trkpt lat="59.3412577920" lon="34.6578594390"><ele>177.89</ele><time>2026-08-14T03:07:14Z</time></trkpt><trkpt lat="59.3413046468" lon="34.6578471176"><ele>178.89</ele><time>2026-08-14T03:07:44Z</time></trkpt><trkpt lat="59.3412854522" lon="34.6578276716"><ele>178.23</ele><time>2026-08-14T03:08:16Z</time></trkpt><trkpt lat="59.3412919901" lon="34.6578302700"><ele>178.51</ele><time>2026-08-14T03:08:45Z</time></trkpt><trkpt lat="59.3413058203" lon="34.6577938087"><ele>180.26</ele><time>2026-08-14T03:09:14Z</time></trkpt><trkpt lat="59.3414017092" lon="34.6579121612"><ele>179.20</ele><time>2026-08-14T03:09:29Z</time></trkpt><trkpt lat="59.3414458819" lon="34.6580325253"><ele>177.84</ele><time>2026-08-14T03:09:44Z</time></trkpt><trkpt lat="59.3415219057" lon="34.6580723394"><ele>176.39</ele><time>2026-08-14T03:10:01Z</time></trkpt><trkpt lat="59.3415814172" lon="34.6582063660"><ele>174.19</ele><time>2026-08-14T03:10:17Z</time></trkpt><trkpt lat="59.3416674156" lon="34.6583228745"><ele>171.41</ele><time>2026-08-14T03:10:34Z</time></trkpt><trkpt lat="59.3418140989" lon="34.6583719086"><ele>170.08</ele><time>2026-08-14T03:10:54Z</time></trkpt><trkpt lat="59.3418226484" lon="34.6584102139"><ele>172.34</ele><time>2026-08-14T03:11:24Z</time></trkpt><trkpt lat="59.3418301083" lon="34.6584114712"><ele>173.97</ele><time>2026-08-14T03:11:51Z</time></trkpt><trkpt lat="59.3417743687" lon="34.6585372835"><ele>172.98</ele><time>2026-08-14T03:12:21Z</time></trkpt><trkpt lat="59.3418118358" lon="34.6584891714"><ele>175.32</ele><time>2026-08-14T03:12:52Z</time></trkpt><trkpt lat="59.3418271746" lon="34.6585099585"><ele>180.21</ele><time>2026-08-14T03:13:23Z</time></trkpt><trkpt lat="59.3417669088" lon="34.6585112158"><ele>179.66</ele><time>2026-08-14T03:13:56Z</time></trkpt><trkpt lat="59.3417897075" lon="34.6584740840"><ele>179.73</ele><time>2026-08-14T03:14:28Z</time></trkpt><trkpt lat="59.3417850975" lon="34.6585070249"><ele>181.56</ele><time>2026-08-14T03:14:53Z</time></trkpt><trkpt lat="59.3417016976" lon="34.6586324181"><ele>180.71</ele><time>2026-08-14T03:15:06Z</time></trkpt><trkpt lat="59.3416032940" lon="34.6588365175"><ele>180.21</ele><time>2026-08-14T03:15:24Z</time></trkpt><trkpt lat="59.3415405136" lon="34.6589192469"><ele>179.33</ele><time>2026-08-14T03:15:41Z</time></trkpt><trkpt lat="59.3415319640" lon="34.6588622499"><ele>177.39</ele><time>2026-08-14T03:16:01Z</time></trkpt><trkpt lat="59.3415515777" lon="34.6591194067"><ele>173.80</ele><time>2026-08-14T03:16:21Z</time></trkpt><trkpt lat="59.3415307067" lon="34.6592736337"><ele>171.88</ele><time>2026-08-14T03:16:38Z</time></trkpt><trkpt lat="59.3415198941" lon="34.6593691874"><ele>172.78</ele><time>2026-08-14T03:16:59Z</time></trkpt><trkpt lat="59.3415121827" lon="34.6594064869"><ele>173.16</ele><time>2026-08-14T03:17:25Z</time></trkpt><trkpt lat="59.3415120989" lon="34.6594044752"><ele>175.01</ele><time>2026-08-14T03:17:58Z</time></trkpt><trkpt lat="59.3414993584" lon="34.6594828460"><ele>174.12</ele><time>2026-08-14T03:18:29Z</time></trkpt><trkpt lat="59.3414833490" lon="34.6595336404"><ele>172.96</ele><time>2026-08-14T03:19:01Z</time></trkpt><trkpt lat="59.3414884619" lon="34.6595240850"><ele>172.99</ele><time>2026-08-14T03:19:02Z</time></trkpt><trkpt lat="59.3414922338" lon="34.6594313812"><ele>173.30</ele><time>2026-08-14T03:19:32Z</time></trkpt><trkpt lat="59.3415289465" lon="34.6593950875"><ele>176.10</ele><time>2026-08-14T03:19:58Z</time></trkpt><trkpt lat="59.3414763082" lon="34.6593265235"><ele>175.81</ele><time>2026-08-14T03:20:25Z</time></trkpt><trkpt lat="59.3413940817" lon="34.6590826102"><ele>173.58</ele><time>2026-08-14T03:20:42Z</time></trkpt><trkpt lat="59.3413401861" lon="34.6589883976"><ele>173.93</ele><time>2026-08-14T03:21:05Z</time></trkpt><trkpt lat="59.3412934989" lon="34.6587234456"><ele>172.23</ele><time>2026-08-14T03:21:25Z</time></trkpt><trkpt lat="59.3412029743" lon="34.6585986391"><ele>171.26</ele><time>2026-08-14T03:21:42Z</time></trkpt><trkpt lat="59.3410576321" lon="34.6584739164"><ele>170.50</ele><time>2026-08-14T03:22:00Z</time></trkpt><trkpt lat="59.3409179058" lon="34.6583646163"><ele>168.61</ele><time>2026-08-14T03:22:17Z</time></trkpt><trkpt lat="59.3408850487" lon="34.6583506186"><ele>169.75</ele><time>2026-08-14T03:22:35Z</time></trkpt><trkpt lat="59.3408438098" lon="34.6584655344"><ele>170.45</ele><time>2026-08-14T03:22:58Z</time></trkpt><trkpt lat="59.3408158142" lon="34.6585403848"><ele>170.26</ele><time>2026-08-14T03:23:26Z</time></trkpt><trkpt lat="59.3408423010" lon="34.6585652791"><ele>172.18</ele><time>2026-08-14T03:23:55Z</time></trkpt><trkpt lat="59.3408456538" lon="34.6585937776"><ele>171.25</ele><time>2026-08-14T03:24:25Z</time></trkpt><trkpt lat="59.3408174068" lon="34.6586012375"><ele>169.77</ele><time>2026-08-14T03:24:51Z</time></trkpt><trkpt lat="59.3407604937" lon="34.6583196893"><ele>169.66</ele><time>2026-08-14T03:25:14Z</time></trkpt><trkpt lat="59.3406412192" lon="34.6581057832"><ele>167.20</ele><time>2026-08-14T03:25:31Z</time></trkpt><trkpt lat="59.3405023310" lon="34.6580483671"><ele>165.61</ele><time>2026-08-14T03:25:50Z</time></trkpt><trkpt lat="59.3404113874" lon="34.6580012608"><ele>165.51</ele><time>2026-08-14T03:26:00Z</time></trkpt><trkpt lat="59.3403653707" lon="34.6579956450"><ele>166.04</ele><time>2026-08-14T03:26:24Z</time></trkpt><trkpt lat="59.3402997404" lon="34.6578717604"><ele>164.91</ele><time>2026-08-14T03:26:36Z</time></trkpt><trkpt lat="59.3402284104" lon="34.6578107402"><ele>165.95</ele><time>2026-08-14T03:26:51Z</time></trkpt><trkpt lat="59.3401864171" lon="34.6577420924"><ele>164.80</ele><time>2026-08-14T03:27:19Z</time></trkpt><trkpt lat="59.3401595112" lon="34.6577125043"><ele>167.21</ele><time>2026-08-14T03:27:52Z</time></trkpt><trkpt lat="59.3402202800" lon="34.6577928867"><ele>170.42</ele><time>2026-08-14T03:28:20Z</time></trkpt><trkpt lat="59.3401830643" lon="34.6578462794"><ele>171.04</ele><time>2026-08-14T03:28:43Z</time></trkpt><trkpt lat="59.3402110599" lon="34.6577717643"><ele>169.00</ele><time>2026-08-14T03:29:12Z</time></trkpt><trkpt lat="59.3402201962" lon="34.6577864327"><ele>172.94</ele><time>2026-08-14T03:29:48Z</time></trkpt><trkpt lat="59.3401869200" lon="34.6578782983"><ele>173.99</ele><time>2026-08-14T03:30:17Z</time></trkpt><trkpt lat="59.3401541468" lon="34.6578212176"><ele>176.75</ele><time>2026-08-14T03:30:46Z</time></trkpt><trkpt lat="59.3400739320" lon="34.6578484587"><ele>178.47</ele><time>2026-08-14T03:31:12Z</time></trkpt><trkpt lat="59.3400844932" lon="34.6577182040"><ele>180.06</ele><time>2026-08-14T03:31:41Z</time></trkpt><trkpt lat="59.3401740119" lon="34.6577652264"><ele>179.34</ele><time>2026-08-14T03:32:13Z</time></trkpt><trkpt lat="59.3401280791" lon="34.6579100657"><ele>178.46</ele><time>2026-08-14T03:32:38Z</time></trkpt><trkpt lat="59.3401057832" lon="34.6579464432"><ele>178.31</ele><time>2026-08-14T03:33:07Z</time></trkpt><trkpt lat="59.3401250616" lon="34.6579078864"><ele>178.45</ele><time>2026-08-14T03:33:38Z</time></trkpt><trkpt lat="59.3401310965" lon="34.6579785459"><ele>178.76</ele><time>2026-08-14T03:33:55Z</time></trkpt><trkpt lat="59.3401062023" lon="34.6581723355"><ele>178.40</ele><time>2026-08-14T03:34:15Z</time></trkpt><trkpt lat="59.3400688190" lon="34.6583539713"><ele>177.91</ele><time>2026-08-14T03:34:38Z</time></trkpt><trkpt lat="59.3400599342" lon="34.6585396305"><ele>176.72</ele><time>2026-08-14T03:34:59Z</time></trkpt><trkpt lat="59.3400735129" lon="34.6585451625"><ele>176.55</ele><time>2026-08-14T03:35:04Z</time></trkpt><trkpt lat="59.3399834074" lon="34.6588715538"><ele>173.21</ele><time>2026-08-14T03:35:21Z</time></trkpt><trkpt lat="59.3398982473" lon="34.6588646807"><ele>175.06</ele><time>2026-08-14T03:35:42Z</time></trkpt><trkpt lat="59.3398127519" lon="34.6587921772"><ele>174.59</ele><time>2026-08-14T03:36:01Z</time></trkpt><trkpt lat="59.3397563417" lon="34.6589584742"><ele>173.20</ele><time>2026-08-14T03:36:21Z</time></trkpt><trkpt lat="59.3396912981" lon="34.6590966079"><ele>170.50</ele><time>2026-08-14T03:36:47Z</time></trkpt><trkpt lat="59.3396377377" lon="34.6592087578"><ele>168.29</ele><time>2026-08-14T03:37:17Z</time></trkpt><trkpt lat="59.3396204710" lon="34.6592513379"><ele>168.25</ele><time>2026-08-14T03:37:19Z</time></trkpt><trkpt lat="59.3396546692" lon="34.6592166368"><ele>168.51</ele><time>2026-08-14T03:37:53Z</time></trkpt><trkpt lat="59.3397499714" lon="34.6590865497"><ele>167.29</ele><time>2026-08-14T03:38:19Z</time></trkpt><trkpt lat="59.3397335429" lon="34.6590546984"><ele>167.77</ele><time>2026-08-14T03:38:45Z</time></trkpt><trkpt lat="59.3398098182" lon="34.6591571253"><ele>169.09</ele><time>2026-08-14T03:39:15Z</time></trkpt><trkpt lat="59.3397638015" lon="34.6589695383"><ele>168.01</ele><time>2026-08-14T03:39:50Z</time></trkpt><trkpt lat="59.3397111632" lon="34.6591509227"><ele>168.64</ele><time>2026-08-14T03:40:24Z</time></trkpt><trkpt lat="59.3397214729" lon="34.6590517648"><ele>166.94</ele><time>2026-08-14T03:40:53Z</time></trkpt><trkpt lat="59.3397993408" lon="34.6589609049"><ele>164.78</ele><time>2026-08-14T03:42:49Z</time></trkpt><trkpt lat="59.3397964910" lon="34.6589784231"><ele>167.11</ele><time>2026-08-14T03:43:06Z</time></trkpt><trkpt lat="59.3398844171" lon="34.6590524353"><ele>166.73</ele><time>2026-08-14T03:43:24Z</time></trkpt><trkpt lat="59.3400028534" lon="34.6591055766"><ele>165.90</ele><time>2026-08-14T03:43:39Z</time></trkpt><trkpt lat="59.3401406519" lon="34.6593054850"><ele>163.85</ele><time>2026-08-14T03:43:56Z</time></trkpt><trkpt lat="59.3401643727" lon="34.6593715344"><ele>163.54</ele><time>2026-08-14T03:44:01Z</time></trkpt><trkpt lat="59.3402709905" lon="34.6594965085"><ele>162.73</ele><time>2026-08-14T03:44:16Z</time></trkpt><trkpt lat="59.3403767701" lon="34.6594721172"><ele>160.93</ele><time>2026-08-14T03:44:31Z</time></trkpt><trkpt lat="59.3404036760" lon="34.6594684292"><ele>160.11</ele><time>2026-08-14T03:44:50Z</time></trkpt><trkpt lat="59.3403746746" lon="34.6595061477"><ele>159.45</ele><time>2026-08-14T03:45:20Z</time></trkpt><trkpt lat="59.3403968867" lon="34.6594258491"><ele>160.60</ele><time>2026-08-14T03:45:43Z</time></trkpt><trkpt lat="59.3403946236" lon="34.6595753822"><ele>161.52</ele><time>2026-08-14T03:46:11Z</time></trkpt><trkpt lat="59.3403782789" lon="34.6595689282"><ele>161.21</ele><time>2026-08-14T03:46:44Z</time></trkpt><trkpt lat="59.3403727468" lon="34.6595934872"><ele>160.09</ele><time>2026-08-14T03:46:48Z</time></trkpt><trkpt lat="59.3403731659" lon="34.6595458779"><ele>158.50</ele><time>2026-08-14T03:47:16Z</time></trkpt><trkpt lat="59.3402866647" lon="34.6596519928"><ele>157.04</ele><time>2026-08-14T03:47:42Z</time></trkpt><trkpt lat="59.3403383810" lon="34.6596531663"><ele>158.36</ele><time>2026-08-14T03:48:12Z</time></trkpt><trkpt lat="59.3404420651" lon="34.6595180500"><ele>162.69</ele><time>2026-08-14T03:48:38Z</time></trkpt><trkpt lat="59.3404280674" lon="34.6595467161"><ele>166.53</ele><time>2026-08-14T03:49:08Z</time></trkpt><trkpt lat="59.3404324260" lon="34.6595434472"><ele>167.83</ele><time>2026-08-14T03:49:41Z</time></trkpt><trkpt lat="59.3404885009" lon="34.6595009509"><ele>168.31</ele><time>2026-08-14T03:50:10Z</time></trkpt><trkpt lat="59.3405128084" lon="34.6594804153"><ele>167.83</ele><time>2026-08-14T03:50:34Z</time></trkpt><trkpt lat="59.3405918498" lon="34.6595275216"><ele>167.97</ele><time>2026-08-14T03:50:49Z</time></trkpt><trkpt lat="59.3406672869" lon="34.6596097481"><ele>167.52</ele><time>2026-08-14T03:51:02Z</time></trkpt><trkpt lat="59.3407682888" lon="34.6596942376"><ele>166.30</ele><time>2026-08-14T03:51:16Z</time></trkpt><trkpt lat="59.3408036605" lon="34.6596958302"><ele>165.64</ele><time>2026-08-14T03:51:38Z</time></trkpt><trkpt lat="59.3407936022" lon="34.6596646495"><ele>166.24</ele><time>2026-08-14T03:52:02Z</time></trkpt><trkpt lat="59.3407879025" lon="34.6597812418"><ele>166.90</ele><time>2026-08-14T03:52:26Z</time></trkpt><trkpt lat="59.3407502677" lon="34.6598896198"><ele>166.34</ele><time>2026-08-14T03:52:45Z</time></trkpt><trkpt lat="59.3408150598" lon="34.6600409970"><ele>166.10</ele><time>2026-08-14T03:53:03Z</time></trkpt><trkpt lat="59.3408384454" lon="34.6600348782"><ele>165.40</ele><time>2026-08-14T03:53:31Z</time></trkpt><trkpt lat="59.3408222683" lon="34.6599890292"><ele>165.37</ele><time>2026-08-14T03:53:55Z</time></trkpt><trkpt lat="59.3408436421" lon="34.6599729359"><ele>165.56</ele><time>2026-08-14T03:54:20Z</time></trkpt><trkpt lat="59.3408272136" lon="34.6601732634"><ele>168.68</ele><time>2026-08-14T03:54:46Z</time></trkpt><trkpt lat="59.3408373557" lon="34.6601897758"><ele>165.54</ele><time>2026-08-14T03:55:15Z</time></trkpt><trkpt lat="59.3408177420" lon="34.6601500455"><ele>164.01</ele><time>2026-08-14T03:55:46Z</time></trkpt><trkpt lat="59.3408205081" lon="34.6600554138"><ele>162.25</ele><time>2026-08-14T03:56:13Z</time></trkpt><trkpt lat="59.3408106174" lon="34.6600002609"><ele>162.32</ele><time>2026-08-14T03:56:43Z</time></trkpt><trkpt lat="59.3408171553" lon="34.6599774621"><ele>162.92</ele><time>2026-08-14T03:57:17Z</time></trkpt><trkpt lat="59.3407503515" lon="34.6597772185"><ele>162.86</ele><time>2026-08-14T03:57:46Z</time></trkpt><trkpt lat="59.3407704681" lon="34.6597728599"><ele>162.80</ele><time>2026-08-14T03:57:54Z</time></trkpt><trkpt lat="59.3407878187" lon="34.6597964130"><ele>162.77</ele><time>2026-08-14T03:58:29Z</time></trkpt><trkpt lat="59.3407879025" lon="34.6597508993"><ele>163.60</ele><time>2026-08-14T03:58:58Z</time></trkpt><trkpt lat="59.3408122938" lon="34.6597728599"><ele>164.41</ele><time>2026-08-14T03:59:25Z</time></trkpt><trkpt lat="59.3408036605" lon="34.6597997658"><ele>162.84</ele><time>2026-08-14T04:00:00Z</time></trkpt><trkpt lat="59.3407936860" lon="34.6597845946"><ele>164.17</ele><time>2026-08-14T04:00:32Z</time></trkpt><trkpt lat="59.3408090249" lon="34.6597343870"><ele>166.29</ele><time>2026-08-14T04:00:59Z</time></trkpt><trkpt lat="59.3407868966" lon="34.6597365662"><ele>165.95</ele><time>2026-08-14T04:01:30Z</time></trkpt><trkpt lat="59.3408118747" lon="34.6596770547"><ele>164.13</ele><time>2026-08-14T04:02:01Z</time></trkpt><trkpt lat="59.3408382777" lon="34.6596045513"><ele>164.93</ele><time>2026-08-14T04:02:35Z</time></trkpt><trkpt lat="59.3408208434" lon="34.6597416792"><ele>163.12</ele><time>2026-08-14T04:03:08Z</time></trkpt><trkpt lat="59.3408140540" lon="34.6597829182"><ele>162.45</ele><time>2026-08-14T04:03:38Z</time></trkpt><trkpt lat="59.3408049177" lon="34.6597313695"><ele>160.54</ele><time>2026-08-14T04:04:07Z</time></trkpt><trkpt lat="59.3407967873" lon="34.6598030347"><ele>159.29</ele><time>2026-08-14T04:04:38Z</time></trkpt><trkpt lat="59.3407908361" lon="34.6597573534"><ele>158.43</ele><time>2026-08-14T04:05:12Z</time></trkpt><trkpt lat="59.3407987151" lon="34.6597100794"><ele>159.41</ele><time>2026-08-14T04:05:42Z</time></trkpt><trkpt lat="59.3407969549" lon="34.6597342193"><ele>160.27</ele><time>2026-08-14T04:06:23Z</time></trkpt><trkpt lat="59.3407793529" lon="34.6597697586"><ele>162.42</ele><time>2026-08-14T04:06:59Z</time></trkpt><trkpt lat="59.3408072647" lon="34.6597549226"><ele>162.13</ele><time>2026-08-14T04:07:49Z</time></trkpt><trkpt lat="59.3408065103" lon="34.6597929765"><ele>161.77</ele><time>2026-08-14T04:08:09Z</time></trkpt><trkpt lat="59.3407905009" lon="34.6598415915"><ele>162.17</ele><time>2026-08-14T04:08:37Z</time></trkpt><trkpt lat="59.3408042472" lon="34.6598812379"><ele>163.48</ele><time>2026-08-14T04:09:01Z</time></trkpt><trkpt lat="59.3408510182" lon="34.6598979179"><ele>163.94</ele><time>2026-08-14T04:09:23Z</time></trkpt><trkpt lat="59.3409645092" lon="34.6599807311"><ele>163.90</ele><time>2026-08-14T04:09:40Z</time></trkpt><trkpt lat="59.3410614040" lon="34.6599601954"><ele>164.81</ele><time>2026-08-14T04:09:59Z</time></trkpt><trkpt lat="59.3411298003" lon="34.6599642187"><ele>165.15</ele><time>2026-08-14T04:10:06Z</time></trkpt><trkpt lat="59.3411995377" lon="34.6599773783"><ele>165.10</ele><time>2026-08-14T04:10:12Z</time></trkpt><trkpt lat="59.3412969355" lon="34.6600777935"><ele>165.22</ele><time>2026-08-14T04:10:28Z</time></trkpt><trkpt lat="59.3413250148" lon="34.6601476148"><ele>165.69</ele><time>2026-08-14T04:10:43Z</time></trkpt><trkpt lat="59.3412947562" lon="34.6602458507"><ele>167.51</ele><time>2026-08-14T04:10:56Z</time></trkpt><trkpt lat="59.3413152080" lon="34.6603208687"><ele>168.27</ele><time>2026-08-14T04:11:25Z</time></trkpt><trkpt lat="59.3412728794" lon="34.6602988243"><ele>169.08</ele><time>2026-08-14T04:11:45Z</time></trkpt><trkpt lat="59.3412715383" lon="34.6602871735"><ele>168.97</ele><time>2026-08-14T04:12:12Z</time></trkpt><trkpt lat="59.3412706163" lon="34.6602984890"><ele>168.98</ele><time>2026-08-14T04:12:40Z</time></trkpt><trkpt lat="59.3412942532" lon="34.6603081282"><ele>167.99</ele><time>2026-08-14T04:13:05Z</time></trkpt><trkpt lat="59.3413539324" lon="34.6602593455"><ele>168.98</ele><time>2026-08-14T04:13:31Z</time></trkpt><trkpt lat="59.3413009588" lon="34.6604264807"><ele>168.73</ele><time>2026-08-14T04:13:49Z</time></trkpt><trkpt lat="59.3412851170" lon="34.6604716592"><ele>168.88</ele><time>2026-08-14T04:13:53Z</time></trkpt><trkpt lat="59.3412435427" lon="34.6606838051"><ele>168.46</ele><time>2026-08-14T04:14:14Z</time></trkpt><trkpt lat="59.3411362544" lon="34.6608102042"><ele>167.21</ele><time>2026-08-14T04:14:31Z</time></trkpt><trkpt lat="59.3410681933" lon="34.6609449852"><ele>166.18</ele><time>2026-08-14T04:14:49Z</time></trkpt><trkpt lat="59.3410323188" lon="34.6610396169"><ele>164.92</ele><time>2026-08-14T04:15:11Z</time></trkpt><trkpt lat="59.3410031497" lon="34.6611153893"><ele>165.21</ele><time>2026-08-14T04:15:36Z</time></trkpt><trkpt lat="59.3410195783" lon="34.6611674409"><ele>164.15</ele><time>2026-08-14T04:16:04Z</time></trkpt><trkpt lat="59.3410321511" lon="34.6611244418"><ele>163.11</ele><time>2026-08-14T04:16:35Z</time></trkpt><trkpt lat="59.3409878947" lon="34.6612660959"><ele>163.23</ele><time>2026-08-14T04:16:56Z</time></trkpt><trkpt lat="59.3409805186" lon="34.6614384279"><ele>163.15</ele><time>2026-08-14T04:17:20Z</time></trkpt><trkpt lat="59.3409848772" lon="34.6614314709"><ele>163.41</ele><time>2026-08-14T04:17:27Z</time></trkpt><trkpt lat="59.3409631681" lon="34.6614152938"><ele>164.89</ele><time>2026-08-14T04:17:54Z</time></trkpt><trkpt lat="59.3409549538" lon="34.6615045611"><ele>166.35</ele><time>2026-08-14T04:18:13Z</time></trkpt><trkpt lat="59.3408961128" lon="34.6616253443"><ele>166.45</ele><time>2026-08-14T04:18:31Z</time></trkpt><trkpt lat="59.3408562150" lon="34.6617478877"><ele>167.01</ele><time>2026-08-14T04:18:44Z</time></trkpt><trkpt lat="59.3408213463" lon="34.6618069801"><ele>167.25</ele><time>2026-08-14T04:19:07Z</time></trkpt><trkpt lat="59.3408438936" lon="34.6618187986"><ele>168.49</ele><time>2026-08-14T04:19:36Z</time></trkpt><trkpt lat="59.3408015650" lon="34.6618302818"><ele>169.20</ele><time>2026-08-14T04:20:02Z</time></trkpt><trkpt lat="59.3407526147" lon="34.6617695969"><ele>170.77</ele><time>2026-08-14T04:20:36Z</time></trkpt><trkpt lat="59.3406954501" lon="34.6616760548"><ele>172.40</ele><time>2026-08-14T04:21:05Z</time></trkpt><trkpt lat="59.3407174945" lon="34.6617157850"><ele>174.07</ele><time>2026-08-14T04:21:31Z</time></trkpt><trkpt lat="59.3406911753" lon="34.6617181320"><ele>173.46</ele><time>2026-08-14T04:21:54Z</time></trkpt><trkpt lat="59.3406865653" lon="34.6615643241"><ele>173.59</ele><time>2026-08-14T04:22:16Z</time></trkpt><trkpt lat="59.3406283949" lon="34.6614355780"><ele>173.37</ele><time>2026-08-14T04:22:36Z</time></trkpt><trkpt lat="59.3405335955" lon="34.6613258589"><ele>173.07</ele><time>2026-08-14T04:22:56Z</time></trkpt><trkpt lat="59.3404467590" lon="34.6612278745"><ele>172.55</ele><time>2026-08-14T04:23:16Z</time></trkpt><trkpt lat="59.3403536361" lon="34.6612248570"><ele>171.68</ele><time>2026-08-14T04:23:33Z</time></trkpt><trkpt lat="59.3403222878" lon="34.6611131262"><ele>171.35</ele><time>2026-08-14T04:23:47Z</time></trkpt><trkpt lat="59.3402315117" lon="34.6610697079"><ele>171.15</ele><time>2026-08-14T04:24:06Z</time></trkpt><trkpt lat="59.3401651271" lon="34.6609658562"><ele>170.90</ele><time>2026-08-14T04:24:27Z</time></trkpt><trkpt lat="59.3401717488" lon="34.6608423069"><ele>170.76</ele><time>2026-08-14T04:24:45Z</time></trkpt><trkpt lat="59.3401226308" lon="34.6607019939"><ele>171.62</ele><time>2026-08-14T04:25:11Z</time></trkpt><trkpt lat="59.3401336111" lon="34.6607023291"><ele>173.35</ele><time>2026-08-14T04:25:30Z</time></trkpt><trkpt lat="59.3400984071" lon="34.6606666222"><ele>173.46</ele><time>2026-08-14T04:25:59Z</time></trkpt><trkpt lat="59.3401381373" lon="34.6606330108"><ele>173.65</ele><time>2026-08-14T04:26:24Z</time></trkpt><trkpt lat="59.3400634546" lon="34.6607612539"><ele>172.90</ele><time>2026-08-14T04:26:54Z</time></trkpt><trkpt lat="59.3400188629" lon="34.6608325001"><ele>171.47</ele><time>2026-08-14T04:27:25Z</time></trkpt><trkpt lat="59.3400204554" lon="34.6608571429"><ele>172.62</ele><time>2026-08-14T04:27:53Z</time></trkpt><trkpt lat="59.3399815634" lon="34.6607131418"><ele>173.63</ele><time>2026-08-14T04:28:21Z</time></trkpt><trkpt lat="59.3398884404" lon="34.6606519539"><ele>170.82</ele><time>2026-08-14T04:28:43Z</time></trkpt><trkpt lat="59.3398508057" lon="34.6606242098"><ele>169.98</ele><time>2026-08-14T04:28:50Z</time></trkpt><trkpt lat="59.3397850916" lon="34.6604635287"><ele>169.15</ele><time>2026-08-14T04:29:11Z</time></trkpt><trkpt lat="59.3397250772" lon="34.6603426617"><ele>168.48</ele><time>2026-08-14T04:29:31Z</time></trkpt><trkpt lat="59.3396748696" lon="34.6602976508"><ele>167.97</ele><time>2026-08-14T04:29:41Z</time></trkpt><trkpt lat="59.3395814952" lon="34.6602810547"><ele>166.94</ele><time>2026-08-14T04:30:00Z</time></trkpt><trkpt lat="59.3393994402" lon="34.6602922864"><ele>166.51</ele><time>2026-08-14T04:30:39Z</time></trkpt><trkpt lat="59.3393255956" lon="34.6602725051"><ele>166.11</ele><time>2026-08-14T04:31:05Z</time></trkpt><trkpt lat="59.3393488973" lon="34.6604996547"><ele>165.70</ele><time>2026-08-14T04:31:22Z</time></trkpt><trkpt lat="59.3393750489" lon="34.6605601721"><ele>165.78</ele><time>2026-08-14T04:31:31Z</time></trkpt><trkpt lat="59.3393882085" lon="34.6605968010"><ele>166.37</ele><time>2026-08-14T04:31:43Z</time></trkpt><trkpt lat="59.3393381685" lon="34.6602927055"><ele>167.81</ele><time>2026-08-14T04:32:03Z</time></trkpt><trkpt lat="59.3393277749" lon="34.6602017619"><ele>168.89</ele><time>2026-08-14T04:32:23Z</time></trkpt><trkpt lat="59.3393460475" lon="34.6600314416"><ele>168.90</ele><time>2026-08-14T04:32:42Z</time></trkpt><trkpt lat="59.3393480591" lon="34.6600103192"><ele>167.44</ele><time>2026-08-14T04:33:09Z</time></trkpt><trkpt lat="59.3393499870" lon="34.6600396559"><ele>165.31</ele><time>2026-08-14T04:33:31Z</time></trkpt><trkpt lat="59.3393421080" lon="34.6600507200"><ele>163.38</ele><time>2026-08-14T04:33:55Z</time></trkpt><trkpt lat="59.3393408507" lon="34.6600777935"><ele>162.22</ele><time>2026-08-14T04:34:23Z</time></trkpt><trkpt lat="59.3393519986" lon="34.6600397397"><ele>162.39</ele><time>2026-08-14T04:34:45Z</time></trkpt><trkpt lat="59.3393830117" lon="34.6599342115"><ele>160.89</ele><time>2026-08-14T04:35:14Z</time></trkpt><trkpt lat="59.3393607996" lon="34.6600627899"><ele>161.43</ele><time>2026-08-14T04:35:42Z</time></trkpt><trkpt lat="59.3392144516" lon="34.6599661466"><ele>161.29</ele><time>2026-08-14T04:36:02Z</time></trkpt><trkpt lat="59.3390926626" lon="34.6599003486"><ele>161.27</ele><time>2026-08-14T04:36:17Z</time></trkpt><trkpt lat="59.3390259426" lon="34.6598835010"><ele>161.69</ele><time>2026-08-14T04:36:25Z</time></trkpt><trkpt lat="59.3390096817" lon="34.6599836648"><ele>161.89</ele><time>2026-08-14T04:36:42Z</time></trkpt><trkpt lat="59.3390039820" lon="34.6600233112"><ele>162.13</ele><time>2026-08-14T04:36:46Z</time></trkpt><trkpt lat="59.3389604799" lon="34.6599988360"><ele>163.15</ele><time>2026-08-14T04:37:04Z</time></trkpt><trkpt lat="59.3389423750" lon="34.6599768754"><ele>163.25</ele><time>2026-08-14T04:37:06Z</time></trkpt><trkpt lat="59.3388725538" lon="34.6598436031"><ele>163.00</ele><time>2026-08-14T04:37:25Z</time></trkpt><trkpt lat="59.3387785088" lon="34.6597022843"><ele>162.96</ele><time>2026-08-14T04:37:38Z</time></trkpt><trkpt lat="59.3386801891" lon="34.6595535055"><ele>163.52</ele><time>2026-08-14T04:37:53Z</time></trkpt><trkpt lat="59.3386128824" lon="34.6595205646"><ele>165.27</ele><time>2026-08-14T04:38:11Z</time></trkpt><trkpt lat="59.3385331705" lon="34.6595929842"><ele>169.30</ele><time>2026-08-14T04:38:40Z</time></trkpt><trkpt lat="59.3385501020" lon="34.6594868694"><ele>169.25</ele><time>2026-08-14T04:39:06Z</time></trkpt><trkpt lat="59.3386185821" lon="34.6595503204"><ele>173.19</ele><time>2026-08-14T04:39:34Z</time></trkpt><trkpt lat="59.3386175763" lon="34.6595410164"><ele>174.53</ele><time>2026-08-14T04:40:02Z</time></trkpt><trkpt lat="59.3385682907" lon="34.6594494022"><ele>175.21</ele><time>2026-08-14T04:40:25Z</time></trkpt><trkpt lat="59.3386293948" lon="34.6594302915"><ele>179.53</ele><time>2026-08-14T04:40:53Z</time></trkpt><trkpt lat="59.3386100326" lon="34.6594343148"><ele>179.78</ele><time>2026-08-14T04:41:22Z</time></trkpt><trkpt lat="59.3386265449" lon="34.6593563631"><ele>179.05</ele><time>2026-08-14T04:41:48Z</time></trkpt><trkpt lat="59.3384854775" lon="34.6592283715"><ele>178.62</ele><time>2026-08-14T04:42:07Z</time></trkpt><trkpt lat="59.3384300731" lon="34.6592068300"><ele>177.91</ele><time>2026-08-14T04:42:17Z</time></trkpt><trkpt lat="59.3383755069" lon="34.6591744758"><ele>176.46</ele><time>2026-08-14T04:42:39Z</time></trkpt><trkpt lat="59.3382998183" lon="34.6590177342"><ele>175.35</ele><time>2026-08-14T04:43:01Z</time></trkpt><trkpt lat="59.3381641153" lon="34.6587423049"><ele>175.72</ele><time>2026-08-14T04:43:21Z</time></trkpt><trkpt lat="59.3381503690" lon="34.6587788500"><ele>175.32</ele><time>2026-08-14T04:43:51Z</time></trkpt><trkpt lat="59.3381828908" lon="34.6589884814"><ele>173.44</ele><time>2026-08-14T04:44:14Z</time></trkpt><trkpt lat="59.3382028397" lon="34.6588070970"><ele>172.17</ele><time>2026-08-14T04:44:42Z</time></trkpt><trkpt lat="59.3381277379" lon="34.6588374395"><ele>170.35</ele><time>2026-08-14T04:45:10Z</time></trkpt><trkpt lat="59.3381559849" lon="34.6588864736"><ele>169.21</ele><time>2026-08-14T04:45:38Z</time></trkpt><trkpt lat="59.3381221220" lon="34.6588513535"><ele>171.16</ele><time>2026-08-14T04:46:08Z</time></trkpt><trkpt lat="59.3381339405" lon="34.6589245275"><ele>171.44</ele><time>2026-08-14T04:46:38Z</time></trkpt><trkpt lat="59.3381202780" lon="34.6589241084"><ele>169.75</ele><time>2026-08-14T04:47:10Z</time></trkpt><trkpt lat="59.3380743451" lon="34.6589604858"><ele>168.23</ele><time>2026-08-14T04:47:49Z</time></trkpt><trkpt lat="59.3380124867" lon="34.6593487356"><ele>169.34</ele><time>2026-08-14T04:48:29Z</time></trkpt><trkpt lat="59.3379739299" lon="34.6597310342"><ele>168.53</ele><time>2026-08-14T04:48:50Z</time></trkpt><trkpt lat="59.3379622791" lon="34.6597861871"><ele>168.51</ele><time>2026-08-14T04:48:54Z</time></trkpt><trkpt lat="59.3379258178" lon="34.6601200383"><ele>168.97</ele><time>2026-08-14T04:49:11Z</time></trkpt><trkpt lat="59.3378761131" lon="34.6602911968"><ele>171.57</ele><time>2026-08-14T04:49:31Z</time></trkpt><trkpt lat="59.3379024323" lon="34.6602631174"><ele>172.67</ele><time>2026-08-14T04:49:59Z</time></trkpt><trkpt lat="59.3379246444" lon="34.6601671446"><ele>172.96</ele><time>2026-08-14T04:50:30Z</time></trkpt><trkpt lat="59.3380583357" lon="34.6601528954"><ele>173.76</ele><time>2026-08-14T04:51:14Z</time></trkpt><trkpt lat="59.3379942980" lon="34.6601491235"><ele>174.59</ele><time>2026-08-14T04:51:51Z</time></trkpt><trkpt lat="59.3380062003" lon="34.6601657197"><ele>174.21</ele><time>2026-08-14T04:52:35Z</time></trkpt><trkpt lat="59.3379785400" lon="34.6601376403"><ele>173.67</ele><time>2026-08-14T04:53:12Z</time></trkpt><trkpt lat="59.3379308470" lon="34.6602194477"><ele>170.74</ele><time>2026-08-14T04:53:41Z</time></trkpt><trkpt lat="59.3379809707" lon="34.6602196153"><ele>168.21</ele><time>2026-08-14T04:54:09Z</time></trkpt><trkpt lat="59.3380288314" lon="34.6602490358"><ele>170.47</ele><time>2026-08-14T04:54:42Z</time></trkpt><trkpt lat="59.3379715830" lon="34.6602266561"><ele>171.50</ele><time>2026-08-14T04:55:10Z</time></trkpt><trkpt lat="59.3379808869" lon="34.6602635365"><ele>173.21</ele><time>2026-08-14T04:55:42Z</time></trkpt><trkpt lat="59.3379316851" lon="34.6602041088"><ele>172.72</ele><time>2026-08-14T04:56:08Z</time></trkpt><trkpt lat="59.3379963096" lon="34.6602951363"><ele>172.71</ele><time>2026-08-14T04:56:36Z</time></trkpt><trkpt lat="59.3380248081" lon="34.6602677274"><ele>174.22</ele><time>2026-08-14T04:57:01Z</time></trkpt><trkpt lat="59.3380471878" lon="34.6602357086"><ele>175.94</ele><time>2026-08-14T04:57:33Z</time></trkpt><trkpt lat="59.3380387221" lon="34.6601606067"><ele>176.93</ele><time>2026-08-14T04:58:01Z</time></trkpt><trkpt lat="59.3379979860" lon="34.6601425856"><ele>176.43</ele><time>2026-08-14T04:58:34Z</time></trkpt><trkpt lat="59.3379460182" lon="34.6601036098"><ele>174.01</ele><time>2026-08-14T04:59:04Z</time></trkpt><trkpt lat="59.3379708286" lon="34.6601865068"><ele>174.82</ele><time>2026-08-14T04:59:41Z</time></trkpt><trkpt lat="59.3379265722" lon="34.6602134127"><ele>173.04</ele><time>2026-08-14T05:00:05Z</time></trkpt><trkpt lat="59.3380088825" lon="34.6602494549"><ele>173.47</ele><time>2026-08-14T05:00:36Z</time></trkpt><trkpt lat="59.3380692322" lon="34.6603534743"><ele>173.30</ele><time>2026-08-14T05:01:02Z</time></trkpt><trkpt lat="59.3380907737" lon="34.6604265645"><ele>173.15</ele><time>2026-08-14T05:01:12Z</time></trkpt><trkpt lat="59.3381842319" lon="34.6605913527"><ele>172.46</ele><time>2026-08-14T05:01:27Z</time></trkpt><trkpt lat="59.3384488486" lon="34.6606990602"><ele>170.80</ele><time>2026-08-14T05:02:04Z</time></trkpt><trkpt lat="59.3385940231" lon="34.6607757546"><ele>169.69</ele><time>2026-08-14T05:02:23Z</time></trkpt><trkpt lat="59.3387142196" lon="34.6608041693"><ele>168.77</ele><time>2026-08-14T05:02:41Z</time></trkpt><trkpt lat="59.3389073387" lon="34.6609348431"><ele>168.41</ele><time>2026-08-14T05:03:01Z</time></trkpt><trkpt lat="59.3389401119" lon="34.6609823685"><ele>170.59</ele><time>2026-08-14T05:03:14Z</time></trkpt><trkpt lat="59.3388979509" lon="34.6610053349"><ele>172.43</ele><time>2026-08-14T05:03:42Z</time></trkpt><trkpt lat="59.3388800975" lon="34.6610403713"><ele>172.34</ele><time>2026-08-14T05:04:09Z</time></trkpt><trkpt lat="59.3388809357" lon="34.6610451490"><ele>172.42</ele><time>2026-08-14T05:04:11Z</time></trkpt><trkpt lat="59.3389325682" lon="34.6611712966"><ele>173.71</ele><time>2026-08-14T05:04:42Z</time></trkpt><trkpt lat="59.3390564527" lon="34.6612782497"><ele>172.70</ele><time>2026-08-14T05:05:06Z</time></trkpt><trkpt lat="59.3391781580" lon="34.6614795830"><ele>170.62</ele><time>2026-08-14T05:05:24Z</time></trkpt><trkpt lat="59.3391674291" lon="34.6614680998"><ele>170.97</ele><time>2026-08-14T05:05:43Z</time></trkpt><trkpt lat="59.3391649984" lon="34.6614999510"><ele>170.71</ele><time>2026-08-14T05:06:08Z</time></trkpt><trkpt lat="59.3391752243" lon="34.6614497434"><ele>170.95</ele><time>2026-08-14T05:06:15Z</time></trkpt><trkpt lat="59.3391428702" lon="34.6615379211"><ele>171.94</ele><time>2026-08-14T05:06:48Z</time></trkpt><trkpt lat="59.3391147070" lon="34.6615574509"><ele>169.84</ele><time>2026-08-14T05:07:11Z</time></trkpt><trkpt lat="59.3391260225" lon="34.6615441237"><ele>169.12</ele><time>2026-08-14T05:07:36Z</time></trkpt><trkpt lat="59.3391635735" lon="34.6615480632"><ele>167.98</ele><time>2026-08-14T05:08:00Z</time></trkpt><trkpt lat="59.3392164633" lon="34.6615399327"><ele>167.68</ele><time>2026-08-14T05:08:10Z</time></trkpt><trkpt lat="59.3393591233" lon="34.6614842769"><ele>168.08</ele><time>2026-08-14T05:08:34Z</time></trkpt><trkpt lat="59.3394414335" lon="34.6614195686"><ele>168.17</ele><time>2026-08-14T05:08:53Z</time></trkpt><trkpt lat="59.3394507375" lon="34.6615441237"><ele>167.22</ele><time>2026-08-14T05:09:12Z</time></trkpt><trkpt lat="59.3395758793" lon="34.6615888830"><ele>166.46</ele><time>2026-08-14T05:09:35Z</time></trkpt><trkpt lat="59.3396646436" lon="34.6616980992"><ele>165.29</ele><time>2026-08-14T05:09:51Z</time></trkpt><trkpt lat="59.3396980036" lon="34.6618461236"><ele>163.97</ele><time>2026-08-14T05:10:10Z</time></trkpt><trkpt lat="59.3396686669" lon="34.6619895380"><ele>163.73</ele><time>2026-08-14T05:10:26Z</time></trkpt><trkpt lat="59.3396474607" lon="34.6621001791"><ele>164.01</ele><time>2026-08-14T05:10:44Z</time></trkpt><trkpt lat="59.3396520708" lon="34.6621881053"><ele>163.24</ele><time>2026-08-14T05:11:06Z</time></trkpt><trkpt lat="59.3396943156" lon="34.6622434258"><ele>163.58</ele><time>2026-08-14T05:11:26Z</time></trkpt><trkpt lat="59.3396443594" lon="34.6623451822"><ele>164.06</ele><time>2026-08-14T05:11:53Z</time></trkpt><trkpt lat="59.3396467064" lon="34.6623264905"><ele>163.95</ele><time>2026-08-14T05:11:55Z</time></trkpt><trkpt lat="59.3396804016" lon="34.6622244827"><ele>165.28</ele><time>2026-08-14T05:12:21Z</time></trkpt><trkpt lat="59.3396504782" lon="34.6623085532"><ele>165.20</ele><time>2026-08-14T05:12:48Z</time></trkpt><trkpt lat="59.3396083172" lon="34.6625151671"><ele>163.77</ele><time>2026-08-14T05:13:14Z</time></trkpt><trkpt lat="59.3396626320" lon="34.6624010056"><ele>162.55</ele><time>2026-08-14T05:13:51Z</time></trkpt><trkpt lat="59.3396831676" lon="34.6623814758"><ele>164.89</ele><time>2026-08-14T05:14:17Z</time></trkpt><trkpt lat="59.3399927113" lon="34.6624414064"><ele>163.85</ele><time>2026-08-14T05:15:12Z</time></trkpt><trkpt lat="59.3402389716" lon="34.6624904405"><ele>161.02</ele><time>2026-08-14T05:15:45Z</time></trkpt><trkpt lat="59.3403139059" lon="34.6625135746"><ele>162.27</ele><time>2026-08-14T05:16:06Z</time></trkpt><trkpt lat="59.3403641973" lon="34.6625337750"><ele>162.08</ele><time>2026-08-14T05:16:26Z</time></trkpt><trkpt lat="59.3403898459" lon="34.6625494491"><ele>162.08</ele><time>2026-08-14T05:16:30Z</time></trkpt><trkpt lat="59.3405019958" lon="34.6625776961"><ele>163.85</ele><time>2026-08-14T05:16:49Z</time></trkpt><trkpt lat="59.3403531332" lon="34.6623772010"><ele>164.42</ele><time>2026-08-14T05:17:15Z</time></trkpt><trkpt lat="59.3404128961" lon="34.6624601819"><ele>160.63</ele><time>2026-08-14T05:18:19Z</time></trkpt><trkpt lat="59.3403829727" lon="34.6626462601"><ele>160.91</ele><time>2026-08-14T05:18:43Z</time></trkpt><trkpt lat="59.3404292408" lon="34.6628952865"><ele>161.65</ele><time>2026-08-14T05:19:03Z</time></trkpt><trkpt lat="59.3405092042" lon="34.6630689595"><ele>161.35</ele><time>2026-08-14T05:19:21Z</time></trkpt><trkpt lat="59.3405502755" lon="34.6630401257"><ele>162.28</ele><time>2026-08-14T05:19:42Z</time></trkpt><trkpt lat="59.3404802028" lon="34.6631395351"><ele>161.27</ele><time>2026-08-14T05:20:09Z</time></trkpt><trkpt lat="59.3404445797" lon="34.6632092725"><ele>161.06</ele><time>2026-08-14T05:20:19Z</time></trkpt><trkpt lat="59.3403305858" lon="34.6638670843"><ele>161.68</ele><time>2026-08-14T05:20:56Z</time></trkpt><trkpt lat="59.3403140735" lon="34.6641579363"><ele>162.01</ele><time>2026-08-14T05:21:13Z</time></trkpt><trkpt lat="59.3402574956" lon="34.6642093174"><ele>161.24</ele><time>2026-08-14T05:21:37Z</time></trkpt><trkpt lat="59.3402661290" lon="34.6642325353"><ele>162.79</ele><time>2026-08-14T05:22:09Z</time></trkpt><trkpt lat="59.3403061107" lon="34.6642228961"><ele>162.11</ele><time>2026-08-14T05:22:35Z</time></trkpt><trkpt lat="59.3402387202" lon="34.6641776338"><ele>160.27</ele><time>2026-08-14T05:23:03Z</time></trkpt><trkpt lat="59.3402357865" lon="34.6641525719"><ele>159.86</ele><time>2026-08-14T05:23:13Z</time></trkpt><trkpt lat="59.3402544782" lon="34.6641480457"><ele>156.97</ele><time>2026-08-14T05:23:42Z</time></trkpt><trkpt lat="59.3402865808" lon="34.6641814895"><ele>158.51</ele><time>2026-08-14T05:24:08Z</time></trkpt><trkpt lat="59.3402817193" lon="34.6641656477"><ele>159.12</ele><time>2026-08-14T05:24:39Z</time></trkpt><trkpt lat="59.3402497005" lon="34.6641253307"><ele>159.15</ele><time>2026-08-14T05:24:56Z</time></trkpt><trkpt lat="59.3401263189" lon="34.6640467923"><ele>158.56</ele><time>2026-08-14T05:25:12Z</time></trkpt><trkpt lat="59.3400474451" lon="34.6639935672"><ele>157.91</ele><time>2026-08-14T05:25:28Z</time></trkpt><trkpt lat="59.3399741035" lon="34.6638460457"><ele>157.34</ele><time>2026-08-14T05:25:51Z</time></trkpt><trkpt lat="59.3399865925" lon="34.6637970954"><ele>157.97</ele><time>2026-08-14T05:26:19Z</time></trkpt><trkpt lat="59.3399391510" lon="34.6636608895"><ele>156.80</ele><time>2026-08-14T05:26:39Z</time></trkpt><trkpt lat="59.3398757000" lon="34.6635432914"><ele>157.20</ele><time>2026-08-14T05:26:52Z</time></trkpt><trkpt lat="59.3398572598" lon="34.6633484121"><ele>158.36</ele><time>2026-08-14T05:27:18Z</time></trkpt><trkpt lat="59.3398428429" lon="34.6634222567"><ele>162.36</ele><time>2026-08-14T05:27:42Z</time></trkpt><trkpt lat="59.3397517316" lon="34.6635085903"><ele>163.64</ele><time>2026-08-14T05:28:00Z</time></trkpt><trkpt lat="59.3397415895" lon="34.6635366697"><ele>163.62</ele><time>2026-08-14T05:28:23Z</time></trkpt><trkpt lat="59.3397472054" lon="34.6635318082"><ele>162.99</ele><time>2026-08-14T05:28:39Z</time></trkpt><trkpt lat="59.3397190422" lon="34.6633802634"><ele>160.53</ele><time>2026-08-14T05:29:11Z</time></trkpt><trkpt lat="59.3396552559" lon="34.6633381024"><ele>159.96</ele><time>2026-08-14T05:29:38Z</time></trkpt><trkpt lat="59.3396033719" lon="34.6632307302"><ele>160.10</ele><time>2026-08-14T05:30:15Z</time></trkpt><trkpt lat="59.3396463711" lon="34.6635011304"><ele>159.87</ele><time>2026-08-14T05:30:48Z</time></trkpt><trkpt lat="59.3397017755" lon="34.6635054052"><ele>162.84</ele><time>2026-08-14T05:31:17Z</time></trkpt><trkpt lat="59.3397378176" lon="34.6634127013"><ele>166.29</ele><time>2026-08-14T05:31:42Z</time></trkpt><trkpt lat="59.3398418371" lon="34.6632262040"><ele>166.55</ele><time>2026-08-14T05:32:03Z</time></trkpt><trkpt lat="59.3398799747" lon="34.6631172393"><ele>167.31</ele><time>2026-08-14T05:32:20Z</time></trkpt><trkpt lat="59.3399115745" lon="34.6629037522"><ele>166.61</ele><time>2026-08-14T05:32:39Z</time></trkpt><trkpt lat="59.3399218842" lon="34.6627880819"><ele>169.13</ele><time>2026-08-14T05:33:02Z</time></trkpt><trkpt lat="59.3399050366" lon="34.6628879942"><ele>169.16</ele><time>2026-08-14T05:33:19Z</time></trkpt><trkpt lat="59.3398819864" lon="34.6631454863"><ele>166.59</ele><time>2026-08-14T05:33:37Z</time></trkpt><trkpt lat="59.3398370594" lon="34.6633462328"><ele>165.58</ele><time>2026-08-14T05:33:53Z</time></trkpt><trkpt lat="59.3397550005" lon="34.6635449678"><ele>164.11</ele><time>2026-08-14T05:34:10Z</time></trkpt><trkpt lat="59.3396503106" lon="34.6635514218"><ele>162.56</ele><time>2026-08-14T05:34:26Z</time></trkpt><trkpt lat="59.3396341335" lon="34.6635915712"><ele>163.63</ele><time>2026-08-14T05:34:52Z</time></trkpt><trkpt lat="59.3395530805" lon="34.6635707840"><ele>163.48</ele><time>2026-08-14T05:35:10Z</time></trkpt><trkpt lat="59.3395144399" lon="34.6634703688"><ele>162.41</ele><time>2026-08-14T05:35:33Z</time></trkpt><trkpt lat="59.3394274358" lon="34.6632746514"><ele>162.15</ele><time>2026-08-14T05:35:50Z</time></trkpt><trkpt lat="59.3393465504" lon="34.6631717216"><ele>161.10</ele><time>2026-08-14T05:36:08Z</time></trkpt><trkpt lat="59.3392729573" lon="34.6631342545"><ele>160.43</ele><time>2026-08-14T05:36:22Z</time></trkpt><trkpt lat="59.3391784094" lon="34.6631407086"><ele>160.41</ele><time>2026-08-14T05:36:36Z</time></trkpt><trkpt lat="59.3391581252" lon="34.6631360985"><ele>160.88</ele><time>2026-08-14T05:36:47Z</time></trkpt><trkpt lat="59.3391405232" lon="34.6630971227"><ele>160.09</ele><time>2026-08-14T05:37:19Z</time></trkpt><trkpt lat="59.3391428702" lon="34.6631593164"><ele>159.06</ele><time>2026-08-14T05:37:46Z</time></trkpt><trkpt lat="59.3391367514" lon="34.6631548740"><ele>158.65</ele><time>2026-08-14T05:38:11Z</time></trkpt><trkpt lat="59.3391105160" lon="34.6631980408"><ele>165.54</ele><time>2026-08-14T05:38:54Z</time></trkpt><trkpt lat="59.3391187303" lon="34.6631656028"><ele>167.03</ele><time>2026-08-14T05:39:24Z</time></trkpt><trkpt lat="59.3391183950" lon="34.6631626692"><ele>168.44</ele><time>2026-08-14T05:39:49Z</time></trkpt><trkpt lat="59.3391148746" lon="34.6631846298"><ele>166.93</ele><time>2026-08-14T05:40:13Z</time></trkpt><trkpt lat="59.3391142879" lon="34.6631938498"><ele>166.34</ele><time>2026-08-14T05:40:35Z</time></trkpt><trkpt lat="59.3391025532" lon="34.6632866375"><ele>165.86</ele><time>2026-08-14T05:41:09Z</time></trkpt><trkpt lat="59.3390939198" lon="34.6633309778"><ele>168.19</ele><time>2026-08-14T05:41:39Z</time></trkpt><trkpt lat="59.3391143717" lon="34.6632356755"><ele>169.48</ele><time>2026-08-14T05:42:07Z</time></trkpt><trkpt lat="59.3391085882" lon="34.6630475856"><ele>169.10</ele><time>2026-08-14T05:42:29Z</time></trkpt><trkpt lat="59.3390436284" lon="34.6628909279"><ele>169.06</ele><time>2026-08-14T05:42:45Z</time></trkpt><trkpt lat="59.3389959354" lon="34.6627188474"><ele>168.67</ele><time>2026-08-14T05:43:04Z</time></trkpt><trkpt lat="59.3389553670" lon="34.6625347808"><ele>167.92</ele><time>2026-08-14T05:43:23Z</time></trkpt><trkpt lat="59.3389090989" lon="34.6624443401"><ele>166.87</ele><time>2026-08-14T05:43:38Z</time></trkpt><trkpt lat="59.3388293032" lon="34.6623891033"><ele>167.71</ele><time>2026-08-14T05:43:53Z</time></trkpt><trkpt lat="59.3387850467" lon="34.6623731777"><ele>168.17</ele><time>2026-08-14T05:44:06Z</time></trkpt><trkpt lat="59.3387176562" lon="34.6623711661"><ele>168.20</ele><time>2026-08-14T05:44:25Z</time></trkpt><trkpt lat="59.3386507686" lon="34.6623395663"><ele>168.16</ele><time>2026-08-14T05:44:39Z</time></trkpt><trkpt lat="59.3386115413" lon="34.6623374708"><ele>167.99</ele><time>2026-08-14T05:44:55Z</time></trkpt><trkpt lat="59.3385884073" lon="34.6622938011"><ele>168.72</ele><time>2026-08-14T05:45:12Z</time></trkpt><trkpt lat="59.3385914247" lon="34.6622550767"><ele>169.13</ele><time>2026-08-14T05:45:34Z</time></trkpt><trkpt lat="59.3385776784" lon="34.6622612793"><ele>169.28</ele><time>2026-08-14T05:45:56Z</time></trkpt><trkpt lat="59.3385681231" lon="34.6622088924"><ele>170.31</ele><time>2026-08-14T05:46:28Z</time></trkpt><trkpt lat="59.3385593221" lon="34.6621539909"><ele>170.30</ele><time>2026-08-14T05:46:56Z</time></trkpt><trkpt lat="59.3385801092" lon="34.6621964872"><ele>169.46</ele><time>2026-08-14T05:47:26Z</time></trkpt><trkpt lat="59.3386190012" lon="34.6622420847"><ele>169.09</ele><time>2026-08-14T05:47:52Z</time></trkpt><trkpt lat="59.3385786843" lon="34.6622426715"><ele>169.13</ele><time>2026-08-14T05:48:33Z</time></trkpt><trkpt lat="59.3385751639" lon="34.6622335352"><ele>169.53</ele><time>2026-08-14T05:49:02Z</time></trkpt><trkpt lat="59.3385584000" lon="34.6622212138"><ele>171.76</ele><time>2026-08-14T05:49:35Z</time></trkpt><trkpt lat="59.3385711405" lon="34.6622648835"><ele>171.13</ele><time>2026-08-14T05:50:06Z</time></trkpt><trkpt lat="59.3385080248" lon="34.6622151788"><ele>170.46</ele><time>2026-08-14T05:50:25Z</time></trkpt><trkpt lat="59.3384335097" lon="34.6620713454"><ele>170.00</ele><time>2026-08-14T05:50:50Z</time></trkpt><trkpt lat="59.3384178355" lon="34.6620494686"><ele>169.75</ele><time>2026-08-14T05:50:54Z</time></trkpt><trkpt lat="59.3383679632" lon="34.6620089840"><ele>169.76</ele><time>2026-08-14T05:51:17Z</time></trkpt><trkpt lat="59.3383603357" lon="34.6619694214"><ele>169.54</ele><time>2026-08-14T05:51:20Z</time></trkpt><trkpt lat="59.3382222019" lon="34.6618950740"><ele>168.36</ele><time>2026-08-14T05:51:39Z</time></trkpt><trkpt lat="59.3381973915" lon="34.6618882846"><ele>168.21</ele><time>2026-08-14T05:52:00Z</time></trkpt><trkpt lat="59.3381911889" lon="34.6619076468"><ele>169.37</ele><time>2026-08-14T05:52:27Z</time></trkpt><trkpt lat="59.3381744251" lon="34.6618800703"><ele>171.71</ele><time>2026-08-14T05:53:08Z</time></trkpt><trkpt lat="59.3381481059" lon="34.6618737001"><ele>172.87</ele><time>2026-08-14T05:53:39Z</time></trkpt><trkpt lat="59.3381338567" lon="34.6618674975"><ele>173.14</ele><time>2026-08-14T05:54:04Z</time></trkpt><trkpt lat="59.3381524645" lon="34.6619596146"><ele>173.34</ele><time>2026-08-14T05:54:32Z</time></trkpt><trkpt lat="59.3381712399" lon="34.6618587803"><ele>172.57</ele><time>2026-08-14T05:55:04Z</time></trkpt><trkpt lat="59.3381082918" lon="34.6618310362"><ele>171.23</ele><time>2026-08-14T05:55:26Z</time></trkpt><trkpt lat="59.3380304240" lon="34.6617216524"><ele>170.48</ele><time>2026-08-14T05:55:47Z</time></trkpt><trkpt lat="59.3379145022" lon="34.6615753043"><ele>168.91</ele><time>2026-08-14T05:56:04Z</time></trkpt><trkpt lat="59.3378872611" lon="34.6615494881"><ele>168.56</ele><time>2026-08-14T05:56:27Z</time></trkpt><trkpt lat="59.3377912883" lon="34.6614677645"><ele>167.69</ele><time>2026-08-14T05:56:46Z</time></trkpt><trkpt lat="59.3376513105" lon="34.6613359172"><ele>166.72</ele><time>2026-08-14T05:57:05Z</time></trkpt><trkpt lat="59.3376032822" lon="34.6612057462"><ele>166.77</ele><time>2026-08-14T05:57:25Z</time></trkpt><trkpt lat="59.3375988398" lon="34.6612277906"><ele>166.37</ele><time>2026-08-14T05:57:57Z</time></trkpt><trkpt lat="59.3374677468" lon="34.6612617373"><ele>166.79</ele><time>2026-08-14T05:59:04Z</time></trkpt><trkpt lat="59.3375057168" lon="34.6612406150"><ele>167.91</ele><time>2026-08-14T05:59:34Z</time></trkpt><trkpt lat="59.3374995142" lon="34.6612286288"><ele>168.60</ele><time>2026-08-14T05:59:58Z</time></trkpt><trkpt lat="59.3374912161" lon="34.6612215880"><ele>168.15</ele><time>2026-08-14T06:00:33Z</time></trkpt><trkpt lat="59.3374639750" lon="34.6611697879"><ele>167.72</ele><time>2026-08-14T06:01:09Z</time></trkpt><trkpt lat="59.3375134282" lon="34.6611971129"><ele>167.98</ele><time>2026-08-14T06:01:37Z</time></trkpt><trkpt lat="59.3374567665" lon="34.6610122919"><ele>167.87</ele><time>2026-08-14T06:02:03Z</time></trkpt><trkpt lat="59.3373245839" lon="34.6609137207"><ele>166.94</ele><time>2026-08-14T06:02:24Z</time></trkpt><trkpt lat="59.3371220771" lon="34.6608549636"><ele>166.54</ele><time>2026-08-14T06:02:56Z</time></trkpt><trkpt lat="59.3370765634" lon="34.6608130541"><ele>166.94</ele><time>2026-08-14T06:03:15Z</time></trkpt><trkpt lat="59.3370394316" lon="34.6606880799"><ele>166.24</ele><time>2026-08-14T06:03:31Z</time></trkpt><trkpt lat="59.3369950075" lon="34.6604999062"><ele>167.64</ele><time>2026-08-14T06:03:52Z</time></trkpt><trkpt lat="59.3369747233" lon="34.6604753472"><ele>167.52</ele><time>2026-08-14T06:04:17Z</time></trkpt><trkpt lat="59.3368893955" lon="34.6603391413"><ele>167.26</ele><time>2026-08-14T06:04:51Z</time></trkpt><trkpt lat="59.3369356636" lon="34.6604306716"><ele>167.62</ele><time>2026-08-14T06:05:20Z</time></trkpt><trkpt lat="59.3369144574" lon="34.6604921110"><ele>167.84</ele><time>2026-08-14T06:05:46Z</time></trkpt><trkpt lat="59.3369308021" lon="34.6604533028"><ele>169.45</ele><time>2026-08-14T06:06:11Z</time></trkpt><trkpt lat="59.3369052373" lon="34.6605048515"><ele>171.10</ele><time>2026-08-14T06:06:35Z</time></trkpt><trkpt lat="59.3369068298" lon="34.6605234593"><ele>171.10</ele><time>2026-08-14T06:06:40Z</time></trkpt><trkpt lat="59.3368219212" lon="34.6604842320"><ele>169.96</ele><time>2026-08-14T06:06:54Z</time></trkpt><trkpt lat="59.3367096037" lon="34.6603995748"><ele>168.25</ele><time>2026-08-14T06:07:11Z</time></trkpt><trkpt lat="59.3366111163" lon="34.6603502892"><ele>167.68</ele><time>2026-08-14T06:07:24Z</time></trkpt><trkpt lat="59.3365160655" lon="34.6604164224"><ele>166.97</ele><time>2026-08-14T06:07:39Z</time></trkpt><trkpt lat="59.3364013173" lon="34.6605520416"><ele>167.02</ele><time>2026-08-14T06:08:00Z</time></trkpt><trkpt lat="59.3363534566" lon="34.6605956275"><ele>168.19</ele><time>2026-08-14T06:08:20Z</time></trkpt><trkpt lat="59.3363755010" lon="34.6605470125"><ele>168.01</ele><time>2026-08-14T06:08:31Z</time></trkpt><trkpt lat="59.3363687117" lon="34.6604864951"><ele>172.21</ele><time>2026-08-14T06:09:01Z</time></trkpt><trkpt lat="59.3363545462" lon="34.6604679711"><ele>172.31</ele><time>2026-08-14T06:09:07Z</time></trkpt><trkpt lat="59.3362437375" lon="34.6605605073"><ele>163.84</ele><time>2026-08-14T06:09:37Z</time></trkpt><trkpt lat="59.3363073561" lon="34.6606923547"><ele>171.00</ele><time>2026-08-14T06:10:10Z</time></trkpt><trkpt lat="59.3363323342" lon="34.6606764290"><ele>163.41</ele><time>2026-08-14T06:10:44Z</time></trkpt><trkpt lat="59.3363034166" lon="34.6606396325"><ele>165.72</ele><time>2026-08-14T06:11:09Z</time></trkpt><trkpt lat="59.3363058474" lon="34.6606509481"><ele>166.01</ele><time>2026-08-14T06:11:36Z</time></trkpt><trkpt lat="59.3363184202" lon="34.6607226133"><ele>166.36</ele><time>2026-08-14T06:12:04Z</time></trkpt><trkpt lat="59.3363214377" lon="34.6608642675"><ele>167.36</ele><time>2026-08-14T06:12:25Z</time></trkpt><trkpt lat="59.3362283986" lon="34.6610008087"><ele>168.06</ele><time>2026-08-14T06:12:45Z</time></trkpt><trkpt lat="59.3362025823" lon="34.6611604840"><ele>168.23</ele><time>2026-08-14T06:13:08Z</time></trkpt><trkpt lat="59.3361436576" lon="34.6613056585"><ele>168.04</ele><time>2026-08-14T06:13:23Z</time></trkpt><trkpt lat="59.3360812124" lon="34.6615366638"><ele>168.36</ele><time>2026-08-14T06:13:40Z</time></trkpt><trkpt lat="59.3360591680" lon="34.6617000271"><ele>167.47</ele><time>2026-08-14T06:13:57Z</time></trkpt><trkpt lat="59.3361162487" lon="34.6617056429"><ele>167.02</ele><time>2026-08-14T06:14:24Z</time></trkpt><trkpt lat="59.3360939529" lon="34.6617846005"><ele>167.44</ele><time>2026-08-14T06:14:57Z</time></trkpt><trkpt lat="59.3360943720" lon="34.6617742069"><ele>167.34</ele><time>2026-08-14T06:15:04Z</time></trkpt><trkpt lat="59.3361276481" lon="34.6617057268"><ele>165.93</ele><time>2026-08-14T06:15:30Z</time></trkpt><trkpt lat="59.3361211102" lon="34.6617275197"><ele>166.34</ele><time>2026-08-14T06:16:05Z</time></trkpt><trkpt lat="59.3361411430" lon="34.6617594548"><ele>165.32</ele><time>2026-08-14T06:16:38Z</time></trkpt><trkpt lat="59.3361624330" lon="34.6617412660"><ele>166.79</ele><time>2026-08-14T06:17:08Z</time></trkpt><trkpt lat="59.3362574838" lon="34.6617347281"><ele>166.23</ele><time>2026-08-14T06:17:40Z</time></trkpt><trkpt lat="59.3361555599" lon="34.6617075708"><ele>165.52</ele><time>2026-08-14T06:18:14Z</time></trkpt><trkpt lat="59.3361075316" lon="34.6616855264"><ele>165.44</ele><time>2026-08-14T06:18:41Z</time></trkpt><trkpt lat="59.3361325096" lon="34.6616391744"><ele>165.15</ele><time>2026-08-14T06:19:13Z</time></trkpt><trkpt lat="59.3361033406" lon="34.6617308725"><ele>164.11</ele><time>2026-08-14T06:20:36Z</time></trkpt><trkpt lat="59.3361026701" lon="34.6617750451"><ele>164.95</ele><time>2026-08-14T06:21:07Z</time></trkpt><trkpt lat="59.3361006584" lon="34.6618064772"><ele>163.33</ele><time>2026-08-14T06:21:41Z</time></trkpt><trkpt lat="59.3361128122" lon="34.6617385838"><ele>163.62</ele><time>2026-08-14T06:22:07Z</time></trkpt><trkpt lat="59.3361574877" lon="34.6618088242"><ele>163.65</ele><time>2026-08-14T06:22:23Z</time></trkpt><trkpt lat="59.3362142332" lon="34.6618478000"><ele>164.53</ele><time>2026-08-14T06:22:42Z</time></trkpt><trkpt lat="59.3363155704" lon="34.6618639771"><ele>165.58</ele><time>2026-08-14T06:23:00Z</time></trkpt><trkpt lat="59.3364602420" lon="34.6618995164"><ele>160.70</ele><time>2026-08-14T06:23:19Z</time></trkpt><trkpt lat="59.3365459889" lon="34.6619676612"><ele>161.84</ele><time>2026-08-14T06:23:41Z</time></trkpt><trkpt lat="59.3365931790" lon="34.6620418411"><ele>160.93</ele><time>2026-08-14T06:24:00Z</time></trkpt><trkpt lat="59.3366536964" lon="34.6621189546"><ele>159.84</ele><time>2026-08-14T06:24:12Z</time></trkpt><trkpt lat="59.3366999645" lon="34.6622155141"><ele>161.62</ele><time>2026-08-14T06:24:38Z</time></trkpt><trkpt lat="59.3367918301" lon="34.6622663084"><ele>164.20</ele><time>2026-08-14T06:24:57Z</time></trkpt><trkpt lat="59.3368339073" lon="34.6622668114"><ele>166.17</ele><time>2026-08-14T06:25:16Z</time></trkpt><trkpt lat="59.3368859589" lon="34.6622202918"><ele>170.58</ele><time>2026-08-14T06:25:44Z</time></trkpt><trkpt lat="59.3368398584" lon="34.6622978244"><ele>172.33</ele><time>2026-08-14T06:26:16Z</time></trkpt><trkpt lat="59.3368047383" lon="34.6623345371"><ele>172.04</ele><time>2026-08-14T06:26:45Z</time></trkpt><trkpt lat="59.3368545268" lon="34.6623654664"><ele>172.75</ele><time>2026-08-14T06:27:11Z</time></trkpt><trkpt lat="59.3368448876" lon="34.6622941364"><ele>174.32</ele><time>2026-08-14T06:27:38Z</time></trkpt><trkpt lat="59.3368203286" lon="34.6623255685"><ele>175.61</ele><time>2026-08-14T06:28:01Z</time></trkpt><trkpt lat="59.3368438818" lon="34.6623318549"><ele>176.84</ele><time>2026-08-14T06:28:32Z</time></trkpt><trkpt lat="59.3368463125" lon="34.6623859182"><ele>176.58</ele><time>2026-08-14T06:29:00Z</time></trkpt><trkpt lat="59.3368302193" lon="34.6624340303"><ele>173.70</ele><time>2026-08-14T06:29:19Z</time></trkpt><trkpt lat="59.3369670119" lon="34.6625502035"><ele>171.81</ele><time>2026-08-14T06:29:46Z</time></trkpt><trkpt lat="59.3369867094" lon="34.6626118105"><ele>173.25</ele><time>2026-08-14T06:30:10Z</time></trkpt><trkpt lat="59.3370470591" lon="34.6626271494"><ele>173.31</ele><time>2026-08-14T06:30:38Z</time></trkpt><trkpt lat="59.3371266034" lon="34.6627310850"><ele>171.53</ele><time>2026-08-14T06:31:02Z</time></trkpt><trkpt lat="59.3372518290" lon="34.6628724877"><ele>170.00</ele><time>2026-08-14T06:31:26Z</time></trkpt><trkpt lat="59.3373397551" lon="34.6630181652"><ele>169.33</ele><time>2026-08-14T06:31:44Z</time></trkpt><trkpt lat="59.3374521565" lon="34.6630980447"><ele>169.86</ele><time>2026-08-14T06:32:04Z</time></trkpt><trkpt lat="59.3375461176" lon="34.6631884016"><ele>170.42</ele><time>2026-08-14T06:32:24Z</time></trkpt><trkpt lat="59.3376435991" lon="34.6631816123"><ele>171.42</ele><time>2026-08-14T06:32:43Z</time></trkpt><trkpt lat="59.3377013505" lon="34.6632742323"><ele>173.01</ele><time>2026-08-14T06:33:03Z</time></trkpt><trkpt lat="59.3377649691" lon="34.6631858870"><ele>173.67</ele><time>2026-08-14T06:33:21Z</time></trkpt><trkpt lat="59.3378294259" lon="34.6632323228"><ele>174.89</ele><time>2026-08-14T06:33:43Z</time></trkpt><trkpt lat="59.3378449325" lon="34.6632495895"><ele>177.04</ele><time>2026-08-14T06:34:09Z</time></trkpt><trkpt lat="59.3378539011" lon="34.6631763317"><ele>176.36</ele><time>2026-08-14T06:34:38Z</time></trkpt><trkpt lat="59.3378594331" lon="34.6632638387"><ele>175.61</ele><time>2026-08-14T06:35:06Z</time></trkpt><trkpt lat="59.3378730956" lon="34.6631634235"><ele>176.02</ele><time>2026-08-14T06:35:36Z</time></trkpt><trkpt lat="59.3378849141" lon="34.6632337477"><ele>175.65</ele><time>2026-08-14T06:36:01Z</time></trkpt><trkpt lat="59.3379373010" lon="34.6632158943"><ele>175.27</ele><time>2026-08-14T06:36:30Z</time></trkpt><trkpt lat="59.3379811384" lon="34.6632534452"><ele>175.23</ele><time>2026-08-14T06:36:51Z</time></trkpt><trkpt lat="59.3380137440" lon="34.6632723883"><ele>174.44</ele><time>2026-08-14T06:37:14Z</time></trkpt><trkpt lat="59.3380310107" lon="34.6633106936"><ele>174.71</ele><time>2026-08-14T06:37:33Z</time></trkpt><trkpt lat="59.3380636163" lon="34.6633248590"><ele>176.50</ele><time>2026-08-14T06:37:50Z</time></trkpt><trkpt lat="59.3381237146" lon="34.6632953547"><ele>176.88</ele><time>2026-08-14T06:38:08Z</time></trkpt><trkpt lat="59.3381730001" lon="34.6632155590"><ele>176.90</ele><time>2026-08-14T06:38:25Z</time></trkpt><trkpt lat="59.3382741697" lon="34.6632044949"><ele>176.51</ele><time>2026-08-14T06:38:42Z</time></trkpt><trkpt lat="59.3383621797" lon="34.6631677821"><ele>175.45</ele><time>2026-08-14T06:38:57Z</time></trkpt><trkpt lat="59.3384345993" lon="34.6632572170"><ele>174.79</ele><time>2026-08-14T06:39:12Z</time></trkpt><trkpt lat="59.3384563923" lon="34.6633953508"><ele>173.49</ele><time>2026-08-14T06:39:28Z</time></trkpt><trkpt lat="59.3384653609" lon="34.6635044832"><ele>174.34</ele><time>2026-08-14T06:39:53Z</time></trkpt><trkpt lat="59.3385202624" lon="34.6636565309"><ele>175.74</ele><time>2026-08-14T06:40:11Z</time></trkpt><trkpt lat="59.3385303207" lon="34.6638252586"><ele>175.28</ele><time>2026-08-14T06:40:30Z</time></trkpt><trkpt lat="59.3385108747" lon="34.6638574451"><ele>175.21</ele><time>2026-08-14T06:40:35Z</time></trkpt><trkpt lat="59.3385430612" lon="34.6639466286"><ele>174.72</ele><time>2026-08-14T06:41:03Z</time></trkpt><trkpt lat="59.3384998105" lon="34.6639014501"><ele>171.63</ele><time>2026-08-14T06:41:26Z</time></trkpt><trkpt lat="59.3384817056" lon="34.6638728678"><ele>170.27</ele><time>2026-08-14T06:41:53Z</time></trkpt><trkpt lat="59.3385128863" lon="34.6638322994"><ele>171.35</ele><time>2026-08-14T06:42:26Z</time></trkpt><trkpt lat="59.3385089468" lon="34.6637588739"><ele>172.30</ele><time>2026-08-14T06:42:55Z</time></trkpt><trkpt lat="59.3384972122" lon="34.6637129411"><ele>173.12</ele><time>2026-08-14T06:43:19Z</time></trkpt><trkpt lat="59.3384807836" lon="34.6637856122"><ele>172.07</ele><time>2026-08-14T06:43:53Z</time></trkpt><trkpt lat="59.3384998105" lon="34.6637888812"><ele>170.11</ele><time>2026-08-14T06:44:22Z</time></trkpt><trkpt lat="59.3384978827" lon="34.6638195589"><ele>170.40</ele><time>2026-08-14T06:44:52Z</time></trkpt><trkpt lat="59.3385006487" lon="34.6638186369"><ele>171.38</ele><time>2026-08-14T06:45:23Z</time></trkpt><trkpt lat="59.3385283928" lon="34.6638095006"><ele>172.29</ele><time>2026-08-14T06:45:56Z</time></trkpt><trkpt lat="59.3385117128" lon="34.6638031304"><ele>172.55</ele><time>2026-08-14T06:46:27Z</time></trkpt><trkpt lat="59.3385342602" lon="34.6637898870"><ele>173.53</ele><time>2026-08-14T06:47:03Z</time></trkpt><trkpt lat="59.3385601602" lon="34.6637903061"><ele>174.71</ele><time>2026-08-14T06:47:34Z</time></trkpt><trkpt lat="59.3385750800" lon="34.6638120990"><ele>175.88</ele><time>2026-08-14T06:48:06Z</time></trkpt><trkpt lat="59.3385502696" lon="34.6638371609"><ele>176.43</ele><time>2026-08-14T06:48:41Z</time></trkpt><trkpt lat="59.3385273870" lon="34.6638489794"><ele>178.20</ele><time>2026-08-14T06:49:09Z</time></trkpt><trkpt lat="59.3385292310" lon="34.6638765559"><ele>176.22</ele><time>2026-08-14T06:49:55Z</time></trkpt><trkpt lat="59.3385236990" lon="34.6638616361"><ele>177.92</ele><time>2026-08-14T06:50:32Z</time></trkpt><trkpt lat="59.3385194242" lon="34.6638602111"><ele>176.89</ele><time>2026-08-14T06:51:16Z</time></trkpt><trkpt lat="59.3385176640" lon="34.6638850216"><ele>176.10</ele><time>2026-08-14T06:52:04Z</time></trkpt><trkpt lat="59.3385105394" lon="34.6638749633"><ele>177.14</ele><time>2026-08-14T06:52:58Z</time></trkpt><trkpt lat="59.3385102041" lon="34.6638737898"><ele>176.49</ele><time>2026-08-14T06:53:45Z</time></trkpt><trkpt lat="59.3385088630" lon="34.6638737060"><ele>175.95</ele><time>2026-08-14T06:54:19Z</time></trkpt><trkpt lat="59.3385195080" lon="34.6638837643"><ele>175.83</ele><time>2026-08-14T06:54:43Z</time></trkpt><trkpt lat="59.3385268841" lon="34.6638955828"><ele>176.47</ele><time>2026-08-14T06:55:21Z</time></trkpt><trkpt lat="59.3385379482" lon="34.6638860274"><ele>176.90</ele><time>2026-08-14T06:55:56Z</time></trkpt><trkpt lat="59.3385307398" lon="34.6639086585"><ele>177.14</ele><time>2026-08-14T06:56:17Z</time></trkpt><trkpt lat="59.3385325838" lon="34.6639230754"><ele>177.01</ele><time>2026-08-14T06:56:32Z</time></trkpt><trkpt lat="59.3385410495" lon="34.6638400108"><ele>175.52</ele><time>2026-08-14T06:57:04Z</time></trkpt><trkpt lat="59.3385667820" lon="34.6639029589"><ele>174.23</ele><time>2026-08-14T06:57:32Z</time></trkpt><trkpt lat="59.3385319132" lon="34.6639138553"><ele>173.68</ele><time>2026-08-14T06:58:01Z</time></trkpt><trkpt lat="59.3385395408" lon="34.6639276855"><ele>173.66</ele><time>2026-08-14T06:58:19Z</time></trkpt><trkpt lat="59.3385459110" lon="34.6638293657"><ele>173.56</ele><time>2026-08-14T06:58:38Z</time></trkpt><trkpt lat="59.3385134730" lon="34.6638419386"><ele>171.87</ele><time>2026-08-14T06:59:11Z</time></trkpt><trkpt lat="59.3385403790" lon="34.6638341434"><ele>170.26</ele><time>2026-08-14T06:59:36Z</time></trkpt><trkpt lat="59.3385451566" lon="34.6639008634"><ele>170.21</ele><time>2026-08-14T06:59:53Z</time></trkpt><trkpt lat="59.3385235313" lon="34.6640338004"><ele>168.80</ele><time>2026-08-14T07:00:20Z</time></trkpt><trkpt lat="59.3384985533" lon="34.6639890410"><ele>171.58</ele><time>2026-08-14T07:00:52Z</time></trkpt><trkpt lat="59.3385444861" lon="34.6638662461"><ele>174.62</ele><time>2026-08-14T07:01:23Z</time></trkpt><trkpt lat="59.3385554664" lon="34.6638742927"><ele>175.23</ele><time>2026-08-14T07:01:31Z</time></trkpt><trkpt lat="59.3386241980" lon="34.6641016938"><ele>172.63</ele><time>2026-08-14T07:01:54Z</time></trkpt><trkpt lat="59.3386966176" lon="34.6641783882"><ele>171.51</ele><time>2026-08-14T07:02:06Z</time></trkpt><trkpt lat="59.3387448136" lon="34.6642477904"><ele>170.58</ele><time>2026-08-14T07:02:13Z</time></trkpt><trkpt lat="59.3388101086" lon="34.6643122472"><ele>170.45</ele><time>2026-08-14T07:02:22Z</time></trkpt><trkpt lat="59.3389173970" lon="34.6645099763"><ele>169.17</ele><time>2026-08-14T07:02:46Z</time></trkpt><trkpt lat="59.3389138766" lon="34.6646725852"><ele>170.41</ele><time>2026-08-14T07:03:15Z</time></trkpt><trkpt lat="59.3390288763" lon="34.6646376327"><ele>174.05</ele><time>2026-08-14T07:03:36Z</time></trkpt><trkpt lat="59.3390616495" lon="34.6644137520"><ele>174.18</ele><time>2026-08-14T07:03:54Z</time></trkpt><trkpt lat="59.3390810955" lon="34.6644312702"><ele>174.01</ele><time>2026-08-14T07:04:21Z</time></trkpt><trkpt lat="59.3390621524" lon="34.6643785480"><ele>172.34</ele><time>2026-08-14T07:05:19Z</time></trkpt><trkpt lat="59.3390966021" lon="34.6643260773"><ele>172.22</ele><time>2026-08-14T07:05:37Z</time></trkpt><trkpt lat="59.3391364999" lon="34.6642342117"><ele>174.89</ele><time>2026-08-14T07:06:07Z</time></trkpt><trkpt lat="59.3391161319" lon="34.6643440146"><ele>177.93</ele><time>2026-08-14T07:06:32Z</time></trkpt><trkpt lat="59.3392187264" lon="34.6642960701"><ele>177.62</ele><time>2026-08-14T07:06:53Z</time></trkpt><trkpt lat="59.3393492326" lon="34.6642783843"><ele>178.10</ele><time>2026-08-14T07:07:14Z</time></trkpt><trkpt lat="59.3394425232" lon="34.6644953918"><ele>176.75</ele><time>2026-08-14T07:07:33Z</time></trkpt><trkpt lat="59.3394933175" lon="34.6649098769"><ele>171.51</ele><time>2026-08-14T07:07:58Z</time></trkpt><trkpt lat="59.3395086564" lon="34.6650877409"><ele>169.55</ele><time>2026-08-14T07:08:19Z</time></trkpt><trkpt lat="59.3395181280" lon="34.6650965419"><ele>169.45</ele><time>2026-08-14T07:08:22Z</time></trkpt><trkpt lat="59.3395423517" lon="34.6651796903"><ele>168.59</ele><time>2026-08-14T07:08:57Z</time></trkpt><trkpt lat="59.3395604566" lon="34.6650646906"><ele>168.22</ele><time>2026-08-14T07:09:24Z</time></trkpt><trkpt lat="59.3395457044" lon="34.6651164070"><ele>166.48</ele><time>2026-08-14T07:09:54Z</time></trkpt><trkpt lat="59.3395261746" lon="34.6651268005"><ele>164.14</ele><time>2026-08-14T07:10:24Z</time></trkpt><trkpt lat="59.3395721912" lon="34.6651097015"><ele>162.49</ele><time>2026-08-14T07:10:53Z</time></trkpt><trkpt lat="59.3395489734" lon="34.6650700551"><ele>163.85</ele><time>2026-08-14T07:11:20Z</time></trkpt><trkpt lat="59.3396415096" lon="34.6651108749"><ele>164.07</ele><time>2026-08-14T07:11:39Z</time></trkpt><trkpt lat="59.3397176173" lon="34.6651444025"><ele>163.43</ele><time>2026-08-14T07:11:53Z</time></trkpt><trkpt lat="59.3397570122" lon="34.6652249526"><ele>162.58</ele><time>2026-08-14T07:12:11Z</time></trkpt><trkpt lat="59.3398751970" lon="34.6653963625"><ele>163.61</ele><time>2026-08-14T07:12:32Z</time></trkpt><trkpt lat="59.3399228901" lon="34.6654797625"><ele>164.61</ele><time>2026-08-14T07:12:49Z</time></trkpt><trkpt lat="59.3399138376" lon="34.6655130386"><ele>167.58</ele><time>2026-08-14T07:13:18Z</time></trkpt><trkpt lat="59.3398814835" lon="34.6656029765"><ele>166.58</ele><time>2026-08-14T07:13:49Z</time></trkpt><trkpt lat="59.3399036955" lon="34.6656377614"><ele>165.82</ele><time>2026-08-14T07:14:17Z</time></trkpt><trkpt lat="59.3399095628" lon="34.6655719634"><ele>166.24</ele><time>2026-08-14T07:14:47Z</time></trkpt><trkpt lat="59.3398739398" lon="34.6655972768"><ele>164.96</ele><time>2026-08-14T07:15:14Z</time></trkpt><trkpt lat="59.3399842456" lon="34.6656479873"><ele>166.04</ele><time>2026-08-14T07:15:46Z</time></trkpt><trkpt lat="59.3399703316" lon="34.6657946706"><ele>165.99</ele><time>2026-08-14T07:16:00Z</time></trkpt><trkpt lat="59.3399980757" lon="34.6659478918"><ele>166.31</ele><time>2026-08-14T07:16:16Z</time></trkpt><trkpt lat="59.3399614468" lon="34.6660841815"><ele>166.44</ele><time>2026-08-14T07:16:31Z</time></trkpt><trkpt lat="59.3399353791" lon="34.6662903763"><ele>165.58</ele><time>2026-08-14T07:16:49Z</time></trkpt><trkpt lat="59.3398767058" lon="34.6664725989"><ele>166.74</ele><time>2026-08-14T07:17:03Z</time></trkpt><trkpt lat="59.3397845887" lon="34.6666006744"><ele>168.16</ele><time>2026-08-14T07:17:13Z</time></trkpt><trkpt lat="59.3396767136" lon="34.6667421609"><ele>171.79</ele><time>2026-08-14T07:17:36Z</time></trkpt><trkpt lat="59.3396516517" lon="34.6667391434"><ele>176.61</ele><time>2026-08-14T07:18:05Z</time></trkpt><trkpt lat="59.3396573514" lon="34.6667087171"><ele>177.50</ele><time>2026-08-14T07:18:33Z</time></trkpt><trkpt lat="59.3396985903" lon="34.6665534843"><ele>177.57</ele><time>2026-08-14T07:18:59Z</time></trkpt><trkpt lat="59.3396345526" lon="34.6666357946"><ele>174.85</ele><time>2026-08-14T07:19:29Z</time></trkpt><trkpt lat="59.3396379892" lon="34.6666616108"><ele>175.79</ele><time>2026-08-14T07:19:59Z</time></trkpt><trkpt lat="59.3395839259" lon="34.6667968109"><ele>175.23</ele><time>2026-08-14T07:20:29Z</time></trkpt><trkpt lat="59.3396710139" lon="34.6667169314"><ele>174.12</ele><time>2026-08-14T07:21:01Z</time></trkpt><trkpt lat="59.3396712653" lon="34.6666505467"><ele>175.22</ele><time>2026-08-14T07:21:36Z</time></trkpt><trkpt lat="59.3396304455" lon="34.6665181965"><ele>174.61</ele><time>2026-08-14T07:21:57Z</time></trkpt><trkpt lat="59.3395610433" lon="34.6664308570"><ele>174.18</ele><time>2026-08-14T07:22:09Z</time></trkpt><trkpt lat="59.3394853547" lon="34.6663624607"><ele>173.52</ele><time>2026-08-14T07:22:19Z</time></trkpt><trkpt lat="59.3394525815" lon="34.6663301066"><ele>173.94</ele><time>2026-08-14T07:22:24Z</time></trkpt><trkpt lat="59.3393478915" lon="34.6662758756"><ele>175.47</ele><time>2026-08-14T07:22:45Z</time></trkpt><trkpt lat="59.3392754719" lon="34.6660657413"><ele>175.27</ele><time>2026-08-14T07:23:03Z</time></trkpt><trkpt lat="59.3392144516" lon="34.6659600455"><ele>175.55</ele><time>2026-08-14T07:23:24Z</time></trkpt><trkpt lat="59.3392356578" lon="34.6659353189"><ele>172.93</ele><time>2026-08-14T07:23:54Z</time></trkpt><trkpt lat="59.3392380048" lon="34.6658701915"><ele>170.43</ele><time>2026-08-14T07:24:23Z</time></trkpt><trkpt lat="59.3392255995" lon="34.6658437047"><ele>168.10</ele><time>2026-08-14T07:24:49Z</time></trkpt><trkpt lat="59.3391918205" lon="34.6658081654"><ele>168.63</ele><time>2026-08-14T07:25:14Z</time></trkpt><trkpt lat="59.3391845282" lon="34.6658948343"><ele>171.26</ele><time>2026-08-14T07:25:40Z</time></trkpt><trkpt lat="59.3391712010" lon="34.6658716165"><ele>172.02</ele><time>2026-08-14T07:26:06Z</time></trkpt><trkpt lat="59.3391710334" lon="34.6659019589"><ele>171.49</ele><time>2026-08-14T07:26:39Z</time></trkpt><trkpt lat="59.3391147070" lon="34.6658800822"><ele>171.70</ele><time>2026-08-14T07:27:04Z</time></trkpt><trkpt lat="59.3391142040" lon="34.6657813434"><ele>174.11</ele><time>2026-08-14T07:27:21Z</time></trkpt><trkpt lat="59.3390362523" lon="34.6657160483"><ele>174.62</ele><time>2026-08-14T07:27:39Z</time></trkpt><trkpt lat="59.3389299698" lon="34.6656527650"><ele>174.94</ele><time>2026-08-14T07:27:56Z</time></trkpt><trkpt lat="59.3388299737" lon="34.6654939279"><ele>173.98</ele><time>2026-08-14T07:28:14Z</time></trkpt><trkpt lat="59.3387174048" lon="34.6653506812"><ele>171.25</ele><time>2026-08-14T07:28:30Z</time></trkpt><trkpt lat="59.3386671972" lon="34.6652283054"><ele>169.98</ele><time>2026-08-14T07:28:47Z</time></trkpt><trkpt lat="59.3385485094" lon="34.6652008966"><ele>169.06</ele><time>2026-08-14T07:29:06Z</time></trkpt><trkpt lat="59.3385281414" lon="34.6652032435"><ele>169.81</ele><time>2026-08-14T07:29:27Z</time></trkpt><trkpt lat="59.3385304883" lon="34.6652111225"><ele>169.96</ele><time>2026-08-14T07:29:50Z</time></trkpt><trkpt lat="59.3385122996" lon="34.6652147267"><ele>170.15</ele><time>2026-08-14T07:30:12Z</time></trkpt><trkpt lat="59.3384742457" lon="34.6651993878"><ele>173.63</ele><time>2026-08-14T07:30:44Z</time></trkpt><trkpt lat="59.3384751678" lon="34.6652077697"><ele>174.54</ele><time>2026-08-14T07:31:09Z</time></trkpt><trkpt lat="59.3385148142" lon="34.6652381122"><ele>176.50</ele><time>2026-08-14T07:31:36Z</time></trkpt><trkpt lat="59.3385433964" lon="34.6651772596"><ele>177.03</ele><time>2026-08-14T07:32:04Z</time></trkpt><trkpt lat="59.3385037500" lon="34.6652147267"><ele>177.50</ele><time>2026-08-14T07:32:28Z</time></trkpt><trkpt lat="59.3385484256" lon="34.6651914250"><ele>175.68</ele><time>2026-08-14T07:32:58Z</time></trkpt><trkpt lat="59.3385140598" lon="34.6652212646"><ele>175.38</ele><time>2026-08-14T07:33:25Z</time></trkpt><trkpt lat="59.3384651095" lon="34.6651903354"><ele>175.03</ele><time>2026-08-14T07:33:44Z</time></trkpt><trkpt lat="59.3384305760" lon="34.6651003137"><ele>173.89</ele><time>2026-08-14T07:34:10Z</time></trkpt><trkpt lat="59.3384554703" lon="34.6651911736"><ele>173.87</ele><time>2026-08-14T07:34:38Z</time></trkpt><trkpt lat="59.3384251278" lon="34.6651462466"><ele>173.09</ele><time>2026-08-14T07:35:03Z</time></trkpt><trkpt lat="59.3384875730" lon="34.6652482543"><ele>168.86</ele><time>2026-08-14T07:35:34Z</time></trkpt><trkpt lat="59.3384275585" lon="34.6651872341"><ele>170.01</ele><time>2026-08-14T07:35:56Z</time></trkpt><trkpt lat="59.3384427298" lon="34.6651943587"><ele>172.33</ele><time>2026-08-14T07:36:25Z</time></trkpt><trkpt lat="59.3384537939" lon="34.6651614178"><ele>170.96</ele><time>2026-08-14T07:37:07Z</time></trkpt><trkpt lat="59.3384142313" lon="34.6651573107"><ele>170.29</ele><time>2026-08-14T07:37:29Z</time></trkpt><trkpt lat="59.3383149896" lon="34.6651455760"><ele>169.72</ele><time>2026-08-14T07:37:48Z</time></trkpt><trkpt lat="59.3382002413" lon="34.6650587395"><ele>169.14</ele><time>2026-08-14T07:38:08Z</time></trkpt><trkpt lat="59.3381088786" lon="34.6648448333"><ele>169.11</ele><time>2026-08-14T07:38:26Z</time></trkpt><trkpt lat="59.3380525522" lon="34.6646698192"><ele>168.28</ele><time>2026-08-14T07:38:43Z</time></trkpt><trkpt lat="59.3380033504" lon="34.6646101400"><ele>168.62</ele><time>2026-08-14T07:39:00Z</time></trkpt><trkpt lat="59.3379310146" lon="34.6646479424"><ele>169.02</ele><time>2026-08-14T07:39:22Z</time></trkpt><trkpt lat="59.3377853371" lon="34.6644908655"><ele>168.39</ele><time>2026-08-14T07:39:46Z</time></trkpt><trkpt lat="59.3377585988" lon="34.6645951364"><ele>169.38</ele><time>2026-08-14T07:40:17Z</time></trkpt><trkpt lat="59.3377164379" lon="34.6646217909"><ele>170.88</ele><time>2026-08-14T07:40:47Z</time></trkpt><trkpt lat="59.3377268314" lon="34.6645903587"><ele>171.37</ele><time>2026-08-14T07:41:14Z</time></trkpt><trkpt lat="59.3377723452" lon="34.6645027678"><ele>172.27</ele><time>2026-08-14T07:41:39Z</time></trkpt><trkpt lat="59.3377699982" lon="34.6644966491"><ele>172.43</ele><time>2026-08-14T07:42:10Z</time></trkpt><trkpt lat="59.3377085589" lon="34.6644630376"><ele>174.03</ele><time>2026-08-14T07:42:30Z</time></trkpt><trkpt lat="59.3375702575" lon="34.6643508039"><ele>174.79</ele><time>2026-08-14T07:42:50Z</time></trkpt><trkpt lat="59.3375199661" lon="34.6642538253"><ele>174.95</ele><time>2026-08-14T07:43:10Z</time></trkpt><trkpt lat="59.3374340516" lon="34.6641563438"><ele>175.19</ele><time>2026-08-14T07:43:26Z</time></trkpt><trkpt lat="59.3373146094" lon="34.6641393285"><ele>174.62</ele><time>2026-08-14T07:43:44Z</time></trkpt><trkpt lat="59.3372634798" lon="34.6641818248"><ele>174.63</ele><time>2026-08-14T07:44:09Z</time></trkpt><trkpt lat="59.3372369930" lon="34.6641922183"><ele>175.42</ele><time>2026-08-14T07:44:32Z</time></trkpt><trkpt lat="59.3372312933" lon="34.6641850937"><ele>175.23</ele><time>2026-08-14T07:44:57Z</time></trkpt><trkpt lat="59.3371722009" lon="34.6641083993"><ele>175.66</ele><time>2026-08-14T07:45:13Z</time></trkpt><trkpt lat="59.3371999450" lon="34.6640241612"><ele>175.27</ele><time>2026-08-14T07:45:39Z</time></trkpt><trkpt lat="59.3371414393" lon="34.6639942378"><ele>176.44</ele><time>2026-08-14T07:46:05Z</time></trkpt><trkpt lat="59.3371246755" lon="34.6640113369"><ele>176.45</ele><time>2026-08-14T07:46:30Z</time></trkpt><trkpt lat="59.3370799161" lon="34.6640738659"><ele>176.13</ele><time>2026-08-14T07:46:49Z</time></trkpt><trkpt lat="59.3370788265" lon="34.6640972514"><ele>175.34</ele><time>2026-08-14T07:47:13Z</time></trkpt><trkpt lat="59.3372356519" lon="34.6641034540"><ele>174.54</ele><time>2026-08-14T07:47:31Z</time></trkpt><trkpt lat="59.3372702692" lon="34.6641014423"><ele>173.92</ele><time>2026-08-14T07:47:46Z</time></trkpt><trkpt lat="59.3372255098" lon="34.6640469600"><ele>172.88</ele><time>2026-08-14T07:48:17Z</time></trkpt><trkpt lat="59.3371941615" lon="34.6640135162"><ele>172.69</ele><time>2026-08-14T07:48:38Z</time></trkpt><trkpt lat="59.3372592051" lon="34.6639646497"><ele>172.64</ele><time>2026-08-14T07:49:17Z</time></trkpt><trkpt lat="59.3372186366" lon="34.6639453713"><ele>172.74</ele><time>2026-08-14T07:49:23Z</time></trkpt><trkpt lat="59.3371411879" lon="34.6639121789"><ele>174.44</ele><time>2026-08-14T07:49:51Z</time></trkpt><trkpt lat="59.3371511623" lon="34.6638942417"><ele>174.43</ele><time>2026-08-14T07:50:28Z</time></trkpt><trkpt lat="59.3371657468" lon="34.6639478859"><ele>176.03</ele><time>2026-08-14T07:50:50Z</time></trkpt><trkpt lat="59.3371726200" lon="34.6639603749"><ele>175.08</ele><time>2026-08-14T07:51:14Z</time></trkpt><trkpt lat="59.3371590413" lon="34.6639835089"><ele>175.51</ele><time>2026-08-14T07:51:31Z</time></trkpt><trkpt lat="59.3370875437" lon="34.6639562678"><ele>174.66</ele><time>2026-08-14T07:51:49Z</time></trkpt><trkpt lat="59.3370333128" lon="34.6638844348"><ele>174.46</ele><time>2026-08-14T07:52:08Z</time></trkpt><trkpt lat="59.3369641621" lon="34.6638951637"><ele>174.14</ele><time>2026-08-14T07:52:32Z</time></trkpt><trkpt lat="59.3369903974" lon="34.6637607180"><ele>174.04</ele><time>2026-08-14T07:52:48Z</time></trkpt><trkpt lat="59.3370033894" lon="34.6636526752"><ele>174.87</ele><time>2026-08-14T07:53:15Z</time></trkpt><trkpt lat="59.3370036408" lon="34.6636649128"><ele>175.19</ele><time>2026-08-14T07:53:40Z</time></trkpt><trkpt lat="59.3370225839" lon="34.6636876278"><ele>176.02</ele><time>2026-08-14T07:54:13Z</time></trkpt><trkpt lat="59.3370075803" lon="34.6637183893"><ele>174.93</ele><time>2026-08-14T07:54:29Z</time></trkpt><trkpt lat="59.3369858712" lon="34.6638076566"><ele>173.79</ele><time>2026-08-14T07:54:54Z</time></trkpt><trkpt lat="59.3369919062" lon="34.6638100035"><ele>172.82</ele><time>2026-08-14T07:55:24Z</time></trkpt><trkpt lat="59.3369867932" lon="34.6638016216"><ele>170.87</ele><time>2026-08-14T07:55:55Z</time></trkpt><trkpt lat="59.3369940855" lon="34.6638099197"><ele>170.77</ele><time>2026-08-14T07:56:30Z</time></trkpt><trkpt lat="59.3369894754" lon="34.6637934912"><ele>169.44</ele><time>2026-08-14T07:56:58Z</time></trkpt><trkpt lat="59.3369826861" lon="34.6637788229"><ele>169.32</ele><time>2026-08-14T07:57:27Z</time></trkpt><trkpt lat="59.3369732983" lon="34.6637722012"><ele>168.90</ele><time>2026-08-14T07:57:58Z</time></trkpt><trkpt lat="59.3369753938" lon="34.6637578681"><ele>167.90</ele><time>2026-08-14T07:58:30Z</time></trkpt><trkpt lat="59.3370038085" lon="34.6637511626"><ele>167.65</ele><time>2026-08-14T07:58:57Z</time></trkpt><trkpt lat="59.3369756453" lon="34.6638011187"><ele>168.11</ele><time>2026-08-14T07:59:30Z</time></trkpt><trkpt lat="59.3369685207" lon="34.6637712792"><ele>169.06</ele><time>2026-08-14T08:00:00Z</time></trkpt><trkpt lat="59.3369826023" lon="34.6637468878"><ele>168.59</ele><time>2026-08-14T08:00:28Z</time></trkpt><trkpt lat="59.3369784113" lon="34.6637957543"><ele>168.35</ele><time>2026-08-14T08:00:58Z</time></trkpt><trkpt lat="59.3369945884" lon="34.6638108417"><ele>169.94</ele><time>2026-08-14T08:01:28Z</time></trkpt><trkpt lat="59.3370029703" lon="34.6638919786"><ele>167.80</ele><time>2026-08-14T08:01:54Z</time></trkpt><trkpt lat="59.3370680138" lon="34.6641136799"><ele>166.96</ele><time>2026-08-14T08:02:13Z</time></trkpt><trkpt lat="59.3370150402" lon="34.6642845869"><ele>166.55</ele><time>2026-08-14T08:02:29Z</time></trkpt><trkpt lat="59.3370042276" lon="34.6642851736"><ele>166.54</ele><time>2026-08-14T08:02:30Z</time></trkpt><trkpt lat="59.3369059917" lon="34.6645171847"><ele>166.44</ele><time>2026-08-14T08:02:47Z</time></trkpt><trkpt lat="59.3368131202" lon="34.6646465175"><ele>166.58</ele><time>2026-08-14T08:03:06Z</time></trkpt><trkpt lat="59.3367201649" lon="34.6647581644"><ele>167.66</ele><time>2026-08-14T08:03:23Z</time></trkpt><trkpt lat="59.3366569653" lon="34.6648344398"><ele>169.04</ele><time>2026-08-14T08:03:46Z</time></trkpt><trkpt lat="59.3365698773" lon="34.6648903470"><ele>169.17</ele><time>2026-08-14T08:04:03Z</time></trkpt><trkpt lat="59.3364571407" lon="34.6649536304"><ele>167.83</ele><time>2026-08-14T08:04:19Z</time></trkpt><trkpt lat="59.3364338391" lon="34.6651236992"><ele>166.39</ele><time>2026-08-14T08:04:33Z</time></trkpt><trkpt lat="59.3363380339" lon="34.6653096098"><ele>164.77</ele><time>2026-08-14T08:04:48Z</time></trkpt><trkpt lat="59.3362776004" lon="34.6653500944"><ele>164.15</ele><time>2026-08-14T08:05:01Z</time></trkpt><trkpt lat="59.3362330087" lon="34.6655371785"><ele>163.97</ele><time>2026-08-14T08:05:15Z</time></trkpt><trkpt lat="59.3362620100" lon="34.6657634899"><ele>163.02</ele><time>2026-08-14T08:05:31Z</time></trkpt><trkpt lat="59.3362568971" lon="34.6660607122"><ele>160.56</ele><time>2026-08-14T08:05:52Z</time></trkpt><trkpt lat="59.3362698890" lon="34.6662003547"><ele>161.72</ele><time>2026-08-14T08:06:07Z</time></trkpt><trkpt lat="59.3362641055" lon="34.6663731057"><ele>163.98</ele><time>2026-08-14T08:06:25Z</time></trkpt><trkpt lat="59.3362171669" lon="34.6665280033"><ele>166.08</ele><time>2026-08-14T08:06:47Z</time></trkpt><trkpt lat="59.3361352757" lon="34.6666611917"><ele>166.28</ele><time>2026-08-14T08:07:04Z</time></trkpt><trkpt lat="59.3360125646" lon="34.6666300111"><ele>166.07</ele><time>2026-08-14T08:07:23Z</time></trkpt><trkpt lat="59.3358846568" lon="34.6665604413"><ele>165.13</ele><time>2026-08-14T08:07:43Z</time></trkpt><trkpt lat="59.3357898574" lon="34.6665168554"><ele>165.53</ele><time>2026-08-14T08:08:00Z</time></trkpt><trkpt lat="59.3357048649" lon="34.6664843336"><ele>164.89</ele><time>2026-08-14T08:08:13Z</time></trkpt><trkpt lat="59.3356165197" lon="34.6665119939"><ele>162.64</ele><time>2026-08-14T08:08:27Z</time></trkpt><trkpt lat="59.3356267456" lon="34.6665183641"><ele>162.17</ele><time>2026-08-14T08:08:53Z</time></trkpt><trkpt lat="59.3356135860" lon="34.6663850918"><ele>161.73</ele><time>2026-08-14T08:09:11Z</time></trkpt><trkpt lat="59.3355907034" lon="34.6663530730"><ele>161.19</ele><time>2026-08-14T08:09:16Z</time></trkpt><trkpt lat="59.3355094828" lon="34.6664894465"><ele>159.62</ele><time>2026-08-14T08:09:32Z</time></trkpt><trkpt lat="59.3354448583" lon="34.6665436774"><ele>160.06</ele><time>2026-08-14T08:09:52Z</time></trkpt><trkpt lat="59.3353933096" lon="34.6666860860"><ele>160.10</ele><time>2026-08-14T08:10:18Z</time></trkpt><trkpt lat="59.3353635538" lon="34.6667912789"><ele>162.77</ele><time>2026-08-14T08:10:35Z</time></trkpt><trkpt lat="59.3353277631" lon="34.6668285783"><ele>164.62</ele><time>2026-08-14T08:10:48Z</time></trkpt><trkpt lat="59.3352825008" lon="34.6668683086"><ele>164.16</ele><time>2026-08-14T08:11:03Z</time></trkpt><trkpt lat="59.3352067284" lon="34.6669161692"><ele>164.83</ele><time>2026-08-14T08:11:14Z</time></trkpt><trkpt lat="59.3350985181" lon="34.6669702325"><ele>164.67</ele><time>2026-08-14T08:11:29Z</time></trkpt><trkpt lat="59.3349862844" lon="34.6670286544"><ele>164.47</ele><time>2026-08-14T08:11:45Z</time></trkpt><trkpt lat="59.3348945864" lon="34.6671735775"><ele>163.83</ele><time>2026-08-14T08:12:02Z</time></trkpt><trkpt lat="59.3348769844" lon="34.6672208514"><ele>163.72</ele><time>2026-08-14T08:12:17Z</time></trkpt><trkpt lat="59.3348502461" lon="34.6673005633"><ele>162.99</ele><time>2026-08-14T08:12:40Z</time></trkpt><trkpt lat="59.3347757310" lon="34.6674417984"><ele>162.72</ele><time>2026-08-14T08:12:55Z</time></trkpt><trkpt lat="59.3347057421" lon="34.6676299721"><ele>162.09</ele><time>2026-08-14T08:13:10Z</time></trkpt><trkpt lat="59.3345854618" lon="34.6677632444"><ele>159.63</ele><time>2026-08-14T08:13:29Z</time></trkpt><trkpt lat="59.3345244415" lon="34.6677657589"><ele>159.89</ele><time>2026-08-14T08:13:45Z</time></trkpt><trkpt lat="59.3344956916" lon="34.6677515935"><ele>160.02</ele><time>2026-08-14T08:14:08Z</time></trkpt><trkpt lat="59.3344630022" lon="34.6677858755"><ele>160.10</ele><time>2026-08-14T08:14:23Z</time></trkpt><trkpt lat="59.3344653491" lon="34.6678993665"><ele>160.15</ele><time>2026-08-14T08:14:41Z</time></trkpt><trkpt lat="59.3343870621" lon="34.6680099238"><ele>159.32</ele><time>2026-08-14T08:14:56Z</time></trkpt><trkpt lat="59.3342528678" lon="34.6679966804"><ele>157.98</ele><time>2026-08-14T08:15:14Z</time></trkpt><trkpt lat="59.3341331743" lon="34.6678037290"><ele>157.13</ele><time>2026-08-14T08:15:33Z</time></trkpt><trkpt lat="59.3341164943" lon="34.6677715424"><ele>156.60</ele><time>2026-08-14T08:15:51Z</time></trkpt><trkpt lat="59.3341144826" lon="34.6678422019"><ele>157.76</ele><time>2026-08-14T08:16:22Z</time></trkpt><trkpt lat="59.3340864033" lon="34.6678379271"><ele>159.57</ele><time>2026-08-14T08:16:44Z</time></trkpt><trkpt lat="59.3340334296" lon="34.6677150484"><ele>160.29</ele><time>2026-08-14T08:17:05Z</time></trkpt><trkpt lat="59.3340294901" lon="34.6676152200"><ele>160.55</ele><time>2026-08-14T08:17:24Z</time></trkpt><trkpt lat="59.3339134846" lon="34.6674766671"><ele>160.86</ele><time>2026-08-14T08:17:42Z</time></trkpt><trkpt lat="59.3338454235" lon="34.6673925128"><ele>161.08</ele><time>2026-08-14T08:18:01Z</time></trkpt><trkpt lat="59.3337651249" lon="34.6672528703"><ele>160.35</ele><time>2026-08-14T08:18:25Z</time></trkpt><trkpt lat="59.3336879276" lon="34.6671249624"><ele>160.57</ele><time>2026-08-14T08:18:45Z</time></trkpt><trkpt lat="59.3336201180" lon="34.6671488509"><ele>160.59</ele><time>2026-08-14T08:19:03Z</time></trkpt><trkpt lat="59.3335904460" lon="34.6672056802"><ele>161.06</ele><time>2026-08-14T08:19:33Z</time></trkpt><trkpt lat="59.3335836567" lon="34.6670747548"><ele>161.23</ele><time>2026-08-14T08:19:55Z</time></trkpt><trkpt lat="59.3335147575" lon="34.6669537202"><ele>162.55</ele><time>2026-08-14T08:20:16Z</time></trkpt><trkpt lat="59.3335100636" lon="34.6669900976"><ele>163.11</ele><time>2026-08-14T08:20:42Z</time></trkpt><trkpt lat="59.3334649689" lon="34.6669007465"><ele>164.18</ele><time>2026-08-14T08:21:01Z</time></trkpt><trkpt lat="59.3334150966" lon="34.6668241359"><ele>165.83</ele><time>2026-08-14T08:21:23Z</time></trkpt><trkpt lat="59.3333907891" lon="34.6668880060"><ele>165.49</ele><time>2026-08-14T08:22:04Z</time></trkpt><trkpt lat="59.3334031105" lon="34.6668817196"><ele>165.82</ele><time>2026-08-14T08:22:18Z</time></trkpt><trkpt lat="59.3333337922" lon="34.6668097191"><ele>168.42</ele><time>2026-08-14T08:22:40Z</time></trkpt><trkpt lat="59.3333412521" lon="34.6667686477"><ele>168.32</ele><time>2026-08-14T08:23:01Z</time></trkpt><trkpt lat="59.3333046231" lon="34.6666413266"><ele>167.82</ele><time>2026-08-14T08:23:17Z</time></trkpt><trkpt lat="59.3332875241" lon="34.6665833239"><ele>164.79</ele><time>2026-08-14T08:23:48Z</time></trkpt><trkpt lat="59.3331959099" lon="34.6664627921"><ele>164.72</ele><time>2026-08-14T08:24:04Z</time></trkpt><trkpt lat="59.3331234064" lon="34.6663401648"><ele>163.86</ele><time>2026-08-14T08:24:22Z</time></trkpt><trkpt lat="59.3330334686" lon="34.6662156098"><ele>163.46</ele><time>2026-08-14T08:24:35Z</time></trkpt><trkpt lat="59.3330255896" lon="34.6662044618"><ele>162.36</ele><time>2026-08-14T08:24:50Z</time></trkpt><trkpt lat="59.3330287747" lon="34.6661676653"><ele>162.24</ele><time>2026-08-14T08:25:11Z</time></trkpt><trkpt lat="59.3330292776" lon="34.6661438607"><ele>161.85</ele><time>2026-08-14T08:25:33Z</time></trkpt><trkpt lat="59.3329965882" lon="34.6661271807"><ele>162.56</ele><time>2026-08-14T08:25:53Z</time></trkpt><trkpt lat="59.3329766393" lon="34.6661117580"><ele>164.07</ele><time>2026-08-14T08:26:15Z</time></trkpt><trkpt lat="59.3329626415" lon="34.6661219839"><ele>164.39</ele><time>2026-08-14T08:26:42Z</time></trkpt><trkpt lat="59.3329704367" lon="34.6661230735"><ele>165.42</ele><time>2026-08-14T08:27:18Z</time></trkpt><trkpt lat="59.3329745438" lon="34.6660888754"><ele>165.18</ele><time>2026-08-14T08:27:51Z</time></trkpt><trkpt lat="59.3328797445" lon="34.6660454571"><ele>164.89</ele><time>2026-08-14T08:28:12Z</time></trkpt><trkpt lat="59.3327551894" lon="34.6658715326"><ele>165.19</ele><time>2026-08-14T08:28:35Z</time></trkpt><trkpt lat="59.3326942530" lon="34.6657320578"><ele>163.27</ele><time>2026-08-14T08:28:53Z</time></trkpt><trkpt lat="59.3326271139" lon="34.6654486656"><ele>161.42</ele><time>2026-08-14T08:29:15Z</time></trkpt><trkpt lat="59.3325774930" lon="34.6652860567"><ele>160.90</ele><time>2026-08-14T08:29:37Z</time></trkpt><trkpt lat="59.3325551972" lon="34.6652649343"><ele>161.57</ele><time>2026-08-14T08:29:58Z</time></trkpt><trkpt lat="59.3325329013" lon="34.6652401239"><ele>161.57</ele><time>2026-08-14T08:30:19Z</time></trkpt><trkpt lat="59.3325335719" lon="34.6651868150"><ele>161.59</ele><time>2026-08-14T08:30:43Z</time></trkpt><trkpt lat="59.3324570451" lon="34.6650765091"><ele>161.84</ele><time>2026-08-14T08:30:58Z</time></trkpt><trkpt lat="59.3323937617" lon="34.6649620123"><ele>162.24</ele><time>2026-08-14T08:31:16Z</time></trkpt><trkpt lat="59.3323937617" lon="34.6648860723"><ele>161.78</ele><time>2026-08-14T08:31:31Z</time></trkpt><trkpt lat="59.3323672749" lon="34.6647493634"><ele>161.68</ele><time>2026-08-14T08:31:46Z</time></trkpt><trkpt lat="59.3323275447" lon="34.6646460984"><ele>162.13</ele><time>2026-08-14T08:32:00Z</time></trkpt><trkpt lat="59.3322968669" lon="34.6645357925"><ele>161.45</ele><time>2026-08-14T08:32:13Z</time></trkpt><trkpt lat="59.3322777562" lon="34.6643702500"><ele>161.28</ele><time>2026-08-14T08:32:32Z</time></trkpt><trkpt lat="59.3322672788" lon="34.6641596965"><ele>160.13</ele><time>2026-08-14T08:32:49Z</time></trkpt><trkpt lat="59.3322487548" lon="34.6641469561"><ele>160.24</ele><time>2026-08-14T08:33:09Z</time></trkpt><trkpt lat="59.3322278839" lon="34.6640998498"><ele>160.81</ele><time>2026-08-14T08:33:29Z</time></trkpt><trkpt lat="59.3322323263" lon="34.6641071420"><ele>160.12</ele><time>2026-08-14T08:33:53Z</time></trkpt><trkpt lat="59.3322165683" lon="34.6640525758"><ele>160.40</ele><time>2026-08-14T08:34:23Z</time></trkpt><trkpt lat="59.3322359305" lon="34.6640598681"><ele>161.04</ele><time>2026-08-14T08:34:49Z</time></trkpt><trkpt lat="59.3322412111" lon="34.6640980896"><ele>160.54</ele><time>2026-08-14T08:35:18Z</time></trkpt><trkpt lat="59.3322442286" lon="34.6641181223"><ele>160.42</ele><time>2026-08-14T08:35:50Z</time></trkpt><trkpt lat="59.3322432227" lon="34.6640466247"><ele>160.72</ele><time>2026-08-14T08:36:11Z</time></trkpt><trkpt lat="59.3322123773" lon="34.6638961695"><ele>161.88</ele><time>2026-08-14T08:36:34Z</time></trkpt><trkpt lat="59.3321904168" lon="34.6636706125"><ele>162.22</ele><time>2026-08-14T08:36:51Z</time></trkpt><trkpt lat="59.3321204279" lon="34.6633743122"><ele>161.84</ele><time>2026-08-14T08:37:10Z</time></trkpt><trkpt lat="59.3320736568" lon="34.6631901618"><ele>161.09</ele><time>2026-08-14T08:37:24Z</time></trkpt><trkpt lat="59.3320735730" lon="34.6629749984"><ele>160.96</ele><time>2026-08-14T08:37:40Z</time></trkpt><trkpt lat="59.3320461642" lon="34.6626737528"><ele>161.10</ele><time>2026-08-14T08:37:59Z</time></trkpt><trkpt lat="59.3320123013" lon="34.6626010817"><ele>161.14</ele><time>2026-08-14T08:38:19Z</time></trkpt><trkpt lat="59.3320166599" lon="34.6625482757"><ele>161.22</ele><time>2026-08-14T08:38:28Z</time></trkpt><trkpt lat="59.3320001476" lon="34.6624890156"><ele>161.44</ele><time>2026-08-14T08:38:31Z</time></trkpt><trkpt lat="59.3319759239" lon="34.6622083057"><ele>161.57</ele><time>2026-08-14T08:38:50Z</time></trkpt><trkpt lat="59.3319599144" lon="34.6620669868"><ele>161.55</ele><time>2026-08-14T08:39:07Z</time></trkpt><trkpt lat="59.3319515325" lon="34.6618692577"><ele>160.46</ele><time>2026-08-14T08:39:22Z</time></trkpt><trkpt lat="59.3318622652" lon="34.6616696008"><ele>160.29</ele><time>2026-08-14T08:39:38Z</time></trkpt><trkpt lat="59.3318213616" lon="34.6614713687"><ele>159.23</ele><time>2026-08-14T08:39:51Z</time></trkpt><trkpt lat="59.3317903485" lon="34.6613194048"><ele>159.86</ele><time>2026-08-14T08:40:06Z</time></trkpt><trkpt lat="59.3317454215" lon="34.6610267088"><ele>160.15</ele><time>2026-08-14T08:40:26Z</time></trkpt><trkpt lat="59.3317249697" lon="34.6608491801"><ele>160.31</ele><time>2026-08-14T08:40:41Z</time></trkpt><trkpt lat="59.3316300027" lon="34.6607247926"><ele>160.38</ele><time>2026-08-14T08:41:02Z</time></trkpt><trkpt lat="59.3315452617" lon="34.6605127305"><ele>160.51</ele><time>2026-08-14T08:41:19Z</time></trkpt><trkpt lat="59.3314532284" lon="34.6602273267"><ele>160.63</ele><time>2026-08-14T08:41:41Z</time></trkpt><trkpt lat="59.3314117379" lon="34.6599266678"><ele>160.07</ele><time>2026-08-14T08:42:01Z</time></trkpt><trkpt lat="59.3313691579" lon="34.6598037891"><ele>160.06</ele><time>2026-08-14T08:42:17Z</time></trkpt><trkpt lat="59.3313259073" lon="34.6596213151"><ele>162.15</ele><time>2026-08-14T08:42:43Z</time></trkpt><trkpt lat="59.3313333672" lon="34.6595250070"><ele>162.80</ele><time>2026-08-14T08:43:07Z</time></trkpt><trkpt lat="59.3313345406" lon="34.6593395155"><ele>162.44</ele><time>2026-08-14T08:43:27Z</time></trkpt><trkpt lat="59.3313702475" lon="34.6590782516"><ele>161.22</ele><time>2026-08-14T08:43:47Z</time></trkpt><trkpt lat="59.3314353749" lon="34.6587976255"><ele>158.97</ele><time>2026-08-14T08:44:07Z</time></trkpt><trkpt lat="59.3314922042" lon="34.6585664526"><ele>160.62</ele><time>2026-08-14T08:44:23Z</time></trkpt><trkpt lat="59.3315878417" lon="34.6582955495"><ele>159.95</ele><time>2026-08-14T08:44:45Z</time></trkpt><trkpt lat="59.3316166755" lon="34.6582797077"><ele>160.35</ele><time>2026-08-14T08:45:05Z</time></trkpt><trkpt lat="59.3316315114" lon="34.6583185997"><ele>163.19</ele><time>2026-08-14T08:45:32Z</time></trkpt><trkpt lat="59.3317208625" lon="34.6585055161"><ele>162.78</ele><time>2026-08-14T08:45:50Z</time></trkpt><trkpt lat="59.3318968825" lon="34.6586522833"><ele>161.11</ele><time>2026-08-14T08:46:11Z</time></trkpt><trkpt lat="59.3319565617" lon="34.6587053407"><ele>159.72</ele><time>2026-08-14T08:46:18Z</time></trkpt><trkpt lat="59.3319984712" lon="34.6587273851"><ele>159.11</ele><time>2026-08-14T08:46:22Z</time></trkpt><trkpt lat="59.3321345933" lon="34.6588183288"><ele>155.79</ele><time>2026-08-14T08:46:38Z</time></trkpt><trkpt lat="59.3321998883" lon="34.6588445641"><ele>156.95</ele><time>2026-08-14T08:46:53Z</time></trkpt><trkpt lat="59.3323589768" lon="34.6589083504"><ele>154.75</ele><time>2026-08-14T08:47:12Z</time></trkpt><trkpt lat="59.3323936779" lon="34.6589110326"><ele>154.46</ele><time>2026-08-14T08:47:16Z</time></trkpt><trkpt lat="59.3324645050" lon="34.6588727273"><ele>155.86</ele><time>2026-08-14T08:47:23Z</time></trkpt><trkpt lat="59.3325812649" lon="34.6587506030"><ele>156.96</ele><time>2026-08-14T08:47:37Z</time></trkpt><trkpt lat="59.3326860387" lon="34.6586089488"><ele>156.99</ele><time>2026-08-14T08:47:51Z</time></trkpt><trkpt lat="59.3327556085" lon="34.6586206835"><ele>158.19</ele><time>2026-08-14T08:48:06Z</time></trkpt><trkpt lat="59.3328162096" lon="34.6585010737"><ele>158.26</ele><time>2026-08-14T08:48:22Z</time></trkpt><trkpt lat="59.3329219893" lon="34.6583797038"><ele>158.19</ele><time>2026-08-14T08:48:35Z</time></trkpt><trkpt lat="59.3330680858" lon="34.6582428273"><ele>157.13</ele><time>2026-08-14T08:48:51Z</time></trkpt><trkpt lat="59.3332393281" lon="34.6581081301"><ele>157.54</ele><time>2026-08-14T08:49:12Z</time></trkpt><trkpt lat="59.3333712593" lon="34.6580247302"><ele>156.77</ele><time>2026-08-14T08:49:30Z</time></trkpt><trkpt lat="59.3335105665" lon="34.6579643805"><ele>154.23</ele><time>2026-08-14T08:49:44Z</time></trkpt><trkpt lat="59.3335782085" lon="34.6579490416"><ele>153.21</ele><time>2026-08-14T08:50:13Z</time></trkpt><trkpt lat="59.3335730955" lon="34.6579105686"><ele>152.55</ele><time>2026-08-14T08:50:34Z</time></trkpt><trkpt lat="59.3336166814" lon="34.6578802262"><ele>152.70</ele><time>2026-08-14T08:50:50Z</time></trkpt><trkpt lat="59.3337244727" lon="34.6578701679"><ele>152.88</ele><time>2026-08-14T08:51:02Z</time></trkpt><trkpt lat="59.3338538893" lon="34.6578118298"><ele>155.18</ele><time>2026-08-14T08:51:20Z</time></trkpt><trkpt lat="59.3339911848" lon="34.6577367280"><ele>158.20</ele><time>2026-08-14T08:51:42Z</time></trkpt><trkpt lat="59.3341010716" lon="34.6576499753"><ele>160.02</ele><time>2026-08-14T08:51:55Z</time></trkpt><trkpt lat="59.3341754191" lon="34.6576060541"><ele>162.66</ele><time>2026-08-14T08:52:15Z</time></trkpt><trkpt lat="59.3342647702" lon="34.6575254202"><ele>164.11</ele><time>2026-08-14T08:52:39Z</time></trkpt><trkpt lat="59.3344145548" lon="34.6575211454"><ele>164.45</ele><time>2026-08-14T08:52:57Z</time></trkpt><trkpt lat="59.3345393613" lon="34.6575026214"><ele>162.92</ele><time>2026-08-14T08:53:12Z</time></trkpt><trkpt lat="59.3346546963" lon="34.6574576106"><ele>161.16</ele><time>2026-08-14T08:53:27Z</time></trkpt><trkpt lat="59.3346925825" lon="34.6574004460"><ele>164.17</ele><time>2026-08-14T08:53:47Z</time></trkpt><trkpt lat="59.3346890621" lon="34.6573670022"><ele>164.65</ele><time>2026-08-14T08:54:20Z</time></trkpt><trkpt lat="59.3346885592" lon="34.6573363245"><ele>166.12</ele><time>2026-08-14T08:54:46Z</time></trkpt><trkpt lat="59.3346977793" lon="34.6571632382"><ele>166.22</ele><time>2026-08-14T08:55:01Z</time></trkpt><trkpt lat="59.3347258586" lon="34.6569670178"><ele>165.54</ele><time>2026-08-14T08:55:20Z</time></trkpt><trkpt lat="59.3347392697" lon="34.6567429695"><ele>164.23</ele><time>2026-08-14T08:55:38Z</time></trkpt><trkpt lat="59.3346875533" lon="34.6565379482"><ele>161.44</ele><time>2026-08-14T08:55:57Z</time></trkpt><trkpt lat="59.3346797582" lon="34.6563098766"><ele>158.17</ele><time>2026-08-14T08:56:13Z</time></trkpt><trkpt lat="59.3346799258" lon="34.6562629379"><ele>157.76</ele><time>2026-08-14T08:56:20Z</time></trkpt><trkpt lat="59.3346418720" lon="34.6561973076"><ele>158.18</ele><time>2026-08-14T08:56:45Z</time></trkpt><trkpt lat="59.3347253557" lon="34.6562199388"><ele>158.47</ele><time>2026-08-14T08:57:17Z</time></trkpt><trkpt lat="59.3347166386" lon="34.6562757622"><ele>160.55</ele><time>2026-08-14T08:57:53Z</time></trkpt><trkpt lat="59.3347475678" lon="34.6562796179"><ele>165.17</ele><time>2026-08-14T08:58:25Z</time></trkpt><trkpt lat="59.3347400241" lon="34.6561448369"><ele>165.14</ele><time>2026-08-14T08:58:49Z</time></trkpt><trkpt lat="59.3346976116" lon="34.6559603512"><ele>167.64</ele><time>2026-08-14T08:59:12Z</time></trkpt><trkpt lat="59.3346896488" lon="34.6557405777"><ele>166.30</ele><time>2026-08-14T08:59:30Z</time></trkpt><trkpt lat="59.3346891459" lon="34.6555456985"><ele>163.62</ele><time>2026-08-14T08:59:46Z</time></trkpt><trkpt lat="59.3346713763" lon="34.6552763879"><ele>160.39</ele><time>2026-08-14T09:00:05Z</time></trkpt><trkpt lat="59.3347437959" lon="34.6551691834"><ele>158.30</ele><time>2026-08-14T09:00:23Z</time></trkpt><trkpt lat="59.3348177243" lon="34.6551115997"><ele>159.34</ele><time>2026-08-14T09:00:47Z</time></trkpt><trkpt lat="59.3347792514" lon="34.6551785711"><ele>157.82</ele><time>2026-08-14T09:01:07Z</time></trkpt><trkpt lat="59.3347294629" lon="34.6551468037"><ele>158.88</ele><time>2026-08-14T09:01:38Z</time></trkpt><trkpt lat="59.3348083366" lon="34.6551010385"><ele>160.02</ele><time>2026-08-14T09:02:05Z</time></trkpt><trkpt lat="59.3347802572" lon="34.6551831812"><ele>162.30</ele><time>2026-08-14T09:02:18Z</time></trkpt><trkpt lat="59.3347618170" lon="34.6551772300"><ele>166.57</ele><time>2026-08-14T09:02:47Z</time></trkpt><trkpt lat="59.3347815983" lon="34.6551473066"><ele>166.70</ele><time>2026-08-14T09:03:16Z</time></trkpt><trkpt lat="59.3347725458" lon="34.6548556164"><ele>162.56</ele><time>2026-08-14T09:03:34Z</time></trkpt><trkpt lat="59.3347261939" lon="34.6546954382"><ele>160.25</ele><time>2026-08-14T09:03:48Z</time></trkpt><trkpt lat="59.3346769083" lon="34.6544709709"><ele>159.10</ele><time>2026-08-14T09:04:04Z</time></trkpt><trkpt lat="59.3346562050" lon="34.6543838829"><ele>160.82</ele><time>2026-08-14T09:04:22Z</time></trkpt><trkpt lat="59.3346550316" lon="34.6543055121"><ele>162.76</ele><time>2026-08-14T09:04:47Z</time></trkpt><trkpt lat="59.3345758226" lon="34.6540809609"><ele>160.73</ele><time>2026-08-14T09:05:05Z</time></trkpt><trkpt lat="59.3346350826" lon="34.6538621094"><ele>156.95</ele><time>2026-08-14T09:05:26Z</time></trkpt><trkpt lat="59.3346228451" lon="34.6538297553"><ele>153.45</ele><time>2026-08-14T09:05:50Z</time></trkpt><trkpt lat="59.3346216716" lon="34.6538013406"><ele>154.09</ele><time>2026-08-14T09:06:25Z</time></trkpt><trkpt lat="59.3346449733" lon="34.6538470220"><ele>154.35</ele><time>2026-08-14T09:06:40Z</time></trkpt><trkpt lat="59.3346261978" lon="34.6538632829"><ele>152.87</ele><time>2026-08-14T09:07:21Z</time></trkpt><trkpt lat="59.3346486613" lon="34.6537432540"><ele>153.44</ele><time>2026-08-14T09:07:52Z</time></trkpt><trkpt lat="59.3346400280" lon="34.6535021067"><ele>154.71</ele><time>2026-08-14T09:08:07Z</time></trkpt><trkpt lat="59.3346593063" lon="34.6533417609"><ele>156.28</ele><time>2026-08-14T09:08:23Z</time></trkpt><trkpt lat="59.3346769083" lon="34.6530874539"><ele>155.80</ele><time>2026-08-14T09:08:39Z</time></trkpt><trkpt lat="59.3347092625" lon="34.6528608911"><ele>158.93</ele><time>2026-08-14T09:08:55Z</time></trkpt><trkpt lat="59.3347225897" lon="34.6526975278"><ele>159.64</ele><time>2026-08-14T09:09:13Z</time></trkpt><trkpt lat="59.3347075861" lon="34.6525620762"><ele>159.21</ele><time>2026-08-14T09:09:31Z</time></trkpt><trkpt lat="59.3347041495" lon="34.6525153052"><ele>159.29</ele><time>2026-08-14T09:09:47Z</time></trkpt><trkpt lat="59.3346681073" lon="34.6524260379"><ele>161.25</ele><time>2026-08-14T09:10:18Z</time></trkpt><trkpt lat="59.3346565403" lon="34.6524334140"><ele>160.89</ele><time>2026-08-14T09:10:50Z</time></trkpt><trkpt lat="59.3346060812" lon="34.6524288878"><ele>164.13</ele><time>2026-08-14T09:11:22Z</time></trkpt><trkpt lat="59.3345913291" lon="34.6524471603"><ele>164.14</ele><time>2026-08-14T09:11:53Z</time></trkpt><trkpt lat="59.3345583882" lon="34.6524834540"><ele>166.70</ele><time>2026-08-14T09:12:21Z</time></trkpt><trkpt lat="59.3345549516" lon="34.6525587235"><ele>168.20</ele><time>2026-08-14T09:12:47Z</time></trkpt><trkpt lat="59.3345954362" lon="34.6525806002"><ele>172.33</ele><time>2026-08-14T09:13:18Z</time></trkpt><trkpt lat="59.3346046563" lon="34.6525647584"><ele>174.41</ele><time>2026-08-14T09:13:51Z</time></trkpt><trkpt lat="59.3346366752" lon="34.6525376849"><ele>176.14</ele><time>2026-08-14T09:14:21Z</time></trkpt><trkpt lat="59.3346096855" lon="34.6524604876"><ele>176.65</ele><time>2026-08-14T09:14:48Z</time></trkpt><trkpt lat="59.3345919158" lon="34.6524164826"><ele>175.49</ele><time>2026-08-14T09:15:19Z</time></trkpt><trkpt lat="59.3345976155" lon="34.6523958631"><ele>173.62</ele><time>2026-08-14T09:15:50Z</time></trkpt><trkpt lat="59.3346142117" lon="34.6524307318"><ele>172.24</ele><time>2026-08-14T09:16:29Z</time></trkpt><trkpt lat="59.3345776666" lon="34.6524246130"><ele>170.30</ele><time>2026-08-14T09:16:59Z</time></trkpt><trkpt lat="59.3346154690" lon="34.6523734834"><ele>170.27</ele><time>2026-08-14T09:17:30Z</time></trkpt><trkpt lat="59.3346185703" lon="34.6523883194"><ele>171.61</ele><time>2026-08-14T09:18:03Z</time></trkpt><trkpt lat="59.3346012197" lon="34.6523669455"><ele>173.15</ele><time>2026-08-14T09:18:34Z</time></trkpt><trkpt lat="59.3346002977" lon="34.6523484215"><ele>172.48</ele><time>2026-08-14T09:19:07Z</time></trkpt><trkpt lat="59.3345777504" lon="34.6524037421"><ele>169.10</ele><time>2026-08-14T09:19:41Z</time></trkpt><trkpt lat="59.3345757388" lon="34.6524283849"><ele>169.03</ele><time>2026-08-14T09:20:10Z</time></trkpt><trkpt lat="59.3345846236" lon="34.6524171531"><ele>170.82</ele><time>2026-08-14T09:20:39Z</time></trkpt><trkpt lat="59.3345948495" lon="34.6523966175"><ele>171.90</ele><time>2026-08-14T09:21:05Z</time></trkpt><trkpt lat="59.3346483260" lon="34.6524102800"><ele>171.99</ele><time>2026-08-14T09:21:32Z</time></trkpt><trkpt lat="59.3346644193" lon="34.6524334140"><ele>172.36</ele><time>2026-08-14T09:21:57Z</time></trkpt><trkpt lat="59.3346454762" lon="34.6523416322"><ele>171.91</ele><time>2026-08-14T09:22:23Z</time></trkpt><trkpt lat="59.3346280418" lon="34.6522683743"><ele>171.01</ele><time>2026-08-14T09:22:50Z</time></trkpt><trkpt lat="59.3346561212" lon="34.6522387862"><ele>169.57</ele><time>2026-08-14T09:23:16Z</time></trkpt><trkpt lat="59.3346795905" lon="34.6522992197"><ele>168.83</ele><time>2026-08-14T09:23:39Z</time></trkpt><trkpt lat="59.3346673530" lon="34.6522997227"><ele>169.92</ele><time>2026-08-14T09:24:08Z</time></trkpt><trkpt lat="59.3347077537" lon="34.6524162311"><ele>168.53</ele><time>2026-08-14T09:24:38Z</time></trkpt><trkpt lat="59.3347283732" lon="34.6523645986"><ele>169.56</ele><time>2026-08-14T09:25:07Z</time></trkpt><trkpt lat="59.3347161356" lon="34.6523381118"><ele>175.10</ele><time>2026-08-14T09:25:35Z</time></trkpt><trkpt lat="59.3346710410" lon="34.6522236150"><ele>175.15</ele><time>2026-08-14T09:25:58Z</time></trkpt><trkpt lat="59.3347155489" lon="34.6520259697"><ele>173.86</ele><time>2026-08-14T09:26:16Z</time></trkpt><trkpt lat="59.3347266968" lon="34.6519900952"><ele>173.62</ele><time>2026-08-14T09:26:18Z</time></trkpt><trkpt lat="59.3348354101" lon="34.6518015862"><ele>171.10</ele><time>2026-08-14T09:26:32Z</time></trkpt><trkpt lat="59.3348394334" lon="34.6514672320"><ele>167.98</ele><time>2026-08-14T09:26:55Z</time></trkpt><trkpt lat="59.3347815983" lon="34.6512249950"><ele>163.15</ele><time>2026-08-14T09:27:17Z</time></trkpt><trkpt lat="59.3348091748" lon="34.6509963367"><ele>162.81</ele><time>2026-08-14T09:27:38Z</time></trkpt><trkpt lat="59.3347919919" lon="34.6509343944"><ele>163.14</ele><time>2026-08-14T09:27:57Z</time></trkpt><trkpt lat="59.3347519264" lon="34.6509482246"><ele>160.19</ele><time>2026-08-14T09:28:25Z</time></trkpt><trkpt lat="59.3346966896" lon="34.6508708596"><ele>156.49</ele><time>2026-08-14T09:29:02Z</time></trkpt><trkpt lat="59.3347564526" lon="34.6508858632"><ele>156.11</ele><time>2026-08-14T09:29:28Z</time></trkpt><trkpt lat="59.3347622361" lon="34.6508399304"><ele>159.61</ele><time>2026-08-14T09:29:59Z</time></trkpt><trkpt lat="59.3348406907" lon="34.6508457977"><ele>163.54</ele><time>2026-08-14T09:30:25Z</time></trkpt><trkpt lat="59.3348534312" lon="34.6506482363"><ele>163.82</ele><time>2026-08-14T09:30:47Z</time></trkpt><trkpt lat="59.3348522577" lon="34.6506300475"><ele>163.65</ele><time>2026-08-14T09:30:48Z</time></trkpt><trkpt lat="59.3348518386" lon="34.6500821225"><ele>161.36</ele><time>2026-08-14T09:31:31Z</time></trkpt><trkpt lat="59.3348594662" lon="34.6498106327"><ele>159.47</ele><time>2026-08-14T09:31:53Z</time></trkpt><trkpt lat="59.3348927423" lon="34.6496301703"><ele>156.59</ele><time>2026-08-14T09:32:14Z</time></trkpt><trkpt lat="59.3348925747" lon="34.6496146638"><ele>156.65</ele><time>2026-08-14T09:32:15Z</time></trkpt><trkpt lat="59.3348665070" lon="34.6493720915"><ele>157.44</ele><time>2026-08-14T09:32:37Z</time></trkpt><trkpt lat="59.3348429538" lon="34.6490206383"><ele>157.46</ele><time>2026-08-14T09:33:02Z</time></trkpt><trkpt lat="59.3348495755" lon="34.6489788964"><ele>158.30</ele><time>2026-08-14T09:33:14Z</time></trkpt><trkpt lat="59.3348083366" lon="34.6489014477"><ele>160.10</ele><time>2026-08-14T09:33:40Z</time></trkpt><trkpt lat="59.3348248489" lon="34.6487847716"><ele>160.22</ele><time>2026-08-14T09:34:13Z</time></trkpt><trkpt lat="59.3348594662" lon="34.6488239989"><ele>160.52</ele><time>2026-08-14T09:35:28Z</time></trkpt><trkpt lat="59.3348758947" lon="34.6488395892"><ele>162.41</ele><time>2026-08-14T09:35:53Z</time></trkpt><trkpt lat="59.3349099252" lon="34.6488417685"><ele>163.39</ele><time>2026-08-14T09:36:23Z</time></trkpt><trkpt lat="59.3348739669" lon="34.6487359889"><ele>165.60</ele><time>2026-08-14T09:36:46Z</time></trkpt><trkpt lat="59.3348918203" lon="34.6487297025"><ele>165.84</ele><time>2026-08-14T09:37:12Z</time></trkpt><trkpt lat="59.3349181395" lon="34.6488201432"><ele>166.37</ele><time>2026-08-14T09:37:43Z</time></trkpt><trkpt lat="59.3348618969" lon="34.6488361526"><ele>166.39</ele><time>2026-08-14T09:38:08Z</time></trkpt><trkpt lat="59.3349533435" lon="34.6487506572"><ele>165.90</ele><time>2026-08-14T09:38:31Z</time></trkpt><trkpt lat="59.3349805009" lon="34.6488219034"><ele>165.43</ele><time>2026-08-14T09:38:56Z</time></trkpt><trkpt lat="59.3350117654" lon="34.6488265973"><ele>165.22</ele><time>2026-08-14T09:39:16Z</time></trkpt><trkpt lat="59.3350131903" lon="34.6487683430"><ele>164.92</ele><time>2026-08-14T09:39:22Z</time></trkpt><trkpt lat="59.3350417726" lon="34.6485959273"><ele>166.48</ele><time>2026-08-14T09:39:50Z</time></trkpt><trkpt lat="59.3350270204" lon="34.6483276226"><ele>166.30</ele><time>2026-08-14T09:40:13Z</time></trkpt><trkpt lat="59.3350239191" lon="34.6483096015"><ele>166.32</ele><time>2026-08-14T09:40:14Z</time></trkpt><trkpt lat="59.3349852785" lon="34.6480366029"><ele>165.43</ele><time>2026-08-14T09:40:36Z</time></trkpt><trkpt lat="59.3350073230" lon="34.6479059290"><ele>166.30</ele><time>2026-08-14T09:40:53Z</time></trkpt><trkpt lat="59.3349790759" lon="34.6476859041"><ele>165.01</ele><time>2026-08-14T09:41:11Z</time></trkpt><trkpt lat="59.3349536788" lon="34.6475116443"><ele>163.56</ele><time>2026-08-14T09:41:28Z</time></trkpt><trkpt lat="59.3349571992" lon="34.6474998258"><ele>164.98</ele><time>2026-08-14T09:41:57Z</time></trkpt><trkpt lat="59.3349456321" lon="34.6473466884"><ele>166.11</ele><time>2026-08-14T09:42:14Z</time></trkpt><trkpt lat="59.3349442910" lon="34.6472474467"><ele>167.11</ele><time>2026-08-14T09:42:38Z</time></trkpt><trkpt lat="59.3350008689" lon="34.6472011786"><ele>168.35</ele><time>2026-08-14T09:43:49Z</time></trkpt><trkpt lat="59.3349517509" lon="34.6471478697"><ele>168.76</ele><time>2026-08-14T09:44:12Z</time></trkpt><trkpt lat="59.3349919003" lon="34.6470840834"><ele>166.97</ele><time>2026-08-14T09:44:39Z</time></trkpt><trkpt lat="59.3349555228" lon="34.6469356399"><ele>166.73</ele><time>2026-08-14T09:44:52Z</time></trkpt><trkpt lat="59.3349439558" lon="34.6468099952"><ele>166.71</ele><time>2026-08-14T09:45:01Z</time></trkpt><trkpt lat="59.3348660041" lon="34.6465176344"><ele>166.31</ele><time>2026-08-14T09:45:17Z</time></trkpt><trkpt lat="59.3348722905" lon="34.6464867052"><ele>167.27</ele><time>2026-08-14T09:45:43Z</time></trkpt><trkpt lat="59.3348641600" lon="34.6464395151"><ele>167.70</ele><time>2026-08-14T09:46:14Z</time></trkpt><trkpt lat="59.3348520901" lon="34.6462800913"><ele>166.65</ele><time>2026-08-14T09:46:26Z</time></trkpt><trkpt lat="59.3348331470" lon="34.6461707912"><ele>166.93</ele><time>2026-08-14T09:46:49Z</time></trkpt><trkpt lat="59.3349028006" lon="34.6462041512"><ele>166.31</ele><time>2026-08-14T09:47:20Z</time></trkpt><trkpt lat="59.3349238392" lon="34.6462304704"><ele>166.03</ele><time>2026-08-14T09:47:49Z</time></trkpt><trkpt lat="59.3348928262" lon="34.6462649200"><ele>166.52</ele><time>2026-08-14T09:48:15Z</time></trkpt><trkpt lat="59.3348789960" lon="34.6462096833"><ele>166.77</ele><time>2026-08-14T09:48:42Z</time></trkpt><trkpt lat="59.3348887190" lon="34.6462923288"><ele>166.54</ele><time>2026-08-14T09:49:11Z</time></trkpt><trkpt lat="59.3348836061" lon="34.6462442167"><ele>166.82</ele><time>2026-08-14T09:49:38Z</time></trkpt><trkpt lat="59.3349236716" lon="34.6462767385"><ele>166.28</ele><time>2026-08-14T09:49:55Z</time></trkpt><trkpt lat="59.3349903077" lon="34.6463104337"><ele>164.12</ele><time>2026-08-14T09:50:06Z</time></trkpt><trkpt lat="59.3350950815" lon="34.6463857032"><ele>162.25</ele><time>2026-08-14T09:50:27Z</time></trkpt><trkpt lat="59.3351854384" lon="34.6463342384"><ele>164.25</ele><time>2026-08-14T09:50:57Z</time></trkpt><trkpt lat="59.3351561856" lon="34.6462525148"><ele>169.38</ele><time>2026-08-14T09:51:26Z</time></trkpt><trkpt lat="59.3351421878" lon="34.6462812647"><ele>171.96</ele><time>2026-08-14T09:51:55Z</time></trkpt><trkpt lat="59.3351862766" lon="34.6463034768"><ele>172.40</ele><time>2026-08-14T09:52:25Z</time></trkpt><trkpt lat="59.3351798225" lon="34.6463070810"><ele>173.51</ele><time>2026-08-14T09:52:52Z</time></trkpt><trkpt lat="59.3352489732" lon="34.6463278681"><ele>173.71</ele><time>2026-08-14T09:53:20Z</time></trkpt><trkpt lat="59.3352654856" lon="34.6465745475"><ele>172.82</ele><time>2026-08-14T09:53:39Z</time></trkpt><trkpt lat="59.3353161961" lon="34.6468678303"><ele>170.85</ele><time>2026-08-14T09:53:54Z</time></trkpt><trkpt lat="59.3353249133" lon="34.6468540002"><ele>170.68</ele><time>2026-08-14T09:54:07Z</time></trkpt><trkpt lat="59.3354325369" lon="34.6467834245"><ele>170.10</ele><time>2026-08-14T09:54:24Z</time></trkpt><trkpt lat="59.3355161883" lon="34.6467858553"><ele>173.50</ele><time>2026-08-14T09:54:49Z</time></trkpt><trkpt lat="59.3354957364" lon="34.6468183771"><ele>174.30</ele><time>2026-08-14T09:55:17Z</time></trkpt><trkpt lat="59.3354433496" lon="34.6467930637"><ele>173.08</ele><time>2026-08-14T09:55:46Z</time></trkpt><trkpt lat="59.3354476243" lon="34.6468533296"><ele>171.87</ele><time>2026-08-14T09:56:11Z</time></trkpt><trkpt lat="59.3354364764" lon="34.6469423454"><ele>171.64</ele><time>2026-08-14T09:56:49Z</time></trkpt><trkpt lat="59.3354135938" lon="34.6469094884"><ele>171.76</ele><time>2026-08-14T09:57:16Z</time></trkpt><trkpt lat="59.3353964109" lon="34.6468460374"><ele>170.91</ele><time>2026-08-14T09:57:44Z</time></trkpt><trkpt lat="59.3354373984" lon="34.6468657348"><ele>170.70</ele><time>2026-08-14T09:58:11Z</time></trkpt><trkpt lat="59.3354129232" lon="34.6470788028"><ele>170.12</ele><time>2026-08-14T09:58:31Z</time></trkpt><trkpt lat="59.3353640568" lon="34.6472373884"><ele>169.99</ele><time>2026-08-14T09:58:53Z</time></trkpt><trkpt lat="59.3353584409" lon="34.6472497936"><ele>170.08</ele><time>2026-08-14T09:58:56Z</time></trkpt><trkpt lat="59.3353515677" lon="34.6474258974"><ele>170.36</ele><time>2026-08-14T09:59:06Z</time></trkpt><trkpt lat="59.3353988416" lon="34.6475979779"><ele>170.17</ele><time>2026-08-14T09:59:25Z</time></trkpt><trkpt lat="59.3353883643" lon="34.6478146501"><ele>169.65</ele><time>2026-08-14T09:59:38Z</time></trkpt><trkpt lat="59.3353672419" lon="34.6480564680"><ele>168.70</ele><time>2026-08-14T10:00:00Z</time></trkpt><trkpt lat="59.3353825808" lon="34.6482447255"><ele>168.76</ele><time>2026-08-14T10:00:26Z</time></trkpt><trkpt lat="59.3353849277" lon="34.6482510120"><ele>168.73</ele><time>2026-08-14T10:00:27Z</time></trkpt><trkpt lat="59.3353249133" lon="34.6486328915"><ele>167.58</ele><time>2026-08-14T10:00:42Z</time></trkpt><trkpt lat="59.3352440279" lon="34.6488129348"><ele>168.33</ele><time>2026-08-14T10:01:07Z</time></trkpt><trkpt lat="59.3352793157" lon="34.6487433650"><ele>168.38</ele><time>2026-08-14T10:01:30Z</time></trkpt><trkpt lat="59.3353218958" lon="34.6487531718"><ele>169.36</ele><time>2026-08-14T10:01:57Z</time></trkpt><trkpt lat="59.3353881966" lon="34.6486885473"><ele>169.67</ele><time>2026-08-14T10:02:27Z</time></trkpt><trkpt lat="59.3352845963" lon="34.6485484857"><ele>170.72</ele><time>2026-08-14T10:03:16Z</time></trkpt><trkpt lat="59.3353307806" lon="34.6486436203"><ele>171.49</ele><time>2026-08-14T10:04:02Z</time></trkpt><trkpt lat="59.3353340495" lon="34.6487856098"><ele>172.04</ele><time>2026-08-14T10:04:19Z</time></trkpt><trkpt lat="59.3352954928" lon="34.6488073189"><ele>171.11</ele><time>2026-08-14T10:04:42Z</time></trkpt><trkpt lat="59.3352122605" lon="34.6485170536"><ele>166.06</ele><time>2026-08-14T10:05:13Z</time></trkpt><trkpt lat="59.3352518231" lon="34.6486037225"><ele>163.84</ele><time>2026-08-14T10:05:41Z</time></trkpt><trkpt lat="59.3352232408" lon="34.6486651618"><ele>163.97</ele><time>2026-08-14T10:05:59Z</time></trkpt><trkpt lat="59.3353019468" lon="34.6488183830"><ele>163.96</ele><time>2026-08-14T10:06:25Z</time></trkpt><trkpt lat="59.3352523260" lon="34.6488778945"><ele>165.23</ele><time>2026-08-14T10:06:46Z</time></trkpt><trkpt lat="59.3352261744" lon="34.6489882842"><ele>165.11</ele><time>2026-08-14T10:07:13Z</time></trkpt><trkpt lat="59.3352581095" lon="34.6490472089"><ele>166.38</ele><time>2026-08-14T10:07:35Z</time></trkpt><trkpt lat="59.3352678325" lon="34.6490397491"><ele>166.33</ele><time>2026-08-14T10:07:37Z</time></trkpt><trkpt lat="59.3353477959" lon="34.6491149347"><ele>166.04</ele><time>2026-08-14T10:08:06Z</time></trkpt><trkpt lat="59.3353247456" lon="34.6491322853"><ele>166.61</ele><time>2026-08-14T10:08:35Z</time></trkpt><trkpt lat="59.3352973368" lon="34.6491021942"><ele>171.40</ele><time>2026-08-14T10:09:06Z</time></trkpt><trkpt lat="59.3353595305" lon="34.6489617974"><ele>172.02</ele><time>2026-08-14T10:09:54Z</time></trkpt><trkpt lat="59.3353514001" lon="34.6490378212"><ele>172.41</ele><time>2026-08-14T10:09:59Z</time></trkpt><trkpt lat="59.3353198003" lon="34.6491857618"><ele>176.30</ele><time>2026-08-14T10:10:31Z</time></trkpt><trkpt lat="59.3353405036" lon="34.6493545733"><ele>176.26</ele><time>2026-08-14T10:10:57Z</time></trkpt><trkpt lat="59.3353433535" lon="34.6494027693"><ele>176.09</ele><time>2026-08-14T10:11:02Z</time></trkpt><trkpt lat="59.3353369832" lon="34.6496764384"><ele>175.22</ele><time>2026-08-14T10:11:22Z</time></trkpt><trkpt lat="59.3353531603" lon="34.6499190107"><ele>174.74</ele><time>2026-08-14T10:11:40Z</time></trkpt><trkpt lat="59.3353372347" lon="34.6501237806"><ele>174.20</ele><time>2026-08-14T10:12:01Z</time></trkpt><trkpt lat="59.3352885358" lon="34.6502206754"><ele>174.00</ele><time>2026-08-14T10:12:10Z</time></trkpt><trkpt lat="59.3352641445" lon="34.6503266227"><ele>173.93</ele><time>2026-08-14T10:12:35Z</time></trkpt><trkpt lat="59.3352517392" lon="34.6503031533"><ele>174.37</ele><time>2026-08-14T10:13:04Z</time></trkpt><trkpt lat="59.3353004381" lon="34.6503576357"><ele>173.78</ele><time>2026-08-14T10:13:35Z</time></trkpt><trkpt lat="59.3352236599" lon="34.6502834558"><ele>172.79</ele><time>2026-08-14T10:14:09Z</time></trkpt><trkpt lat="59.3351807445" lon="34.6501101181"><ele>174.14</ele><time>2026-08-14T10:14:41Z</time></trkpt><trkpt lat="59.3352040462" lon="34.6503770817"><ele>173.26</ele><time>2026-08-14T10:15:05Z</time></trkpt><trkpt lat="59.3352022022" lon="34.6504834481"><ele>172.89</ele><time>2026-08-14T10:15:30Z</time></trkpt><trkpt lat="59.3351925630" lon="34.6506107692"><ele>172.27</ele><time>2026-08-14T10:15:42Z</time></trkpt><trkpt lat="59.3352721073" lon="34.6507693548"><ele>171.45</ele><time>2026-08-14T10:15:59Z</time></trkpt><trkpt lat="59.3353426829" lon="34.6509022079"><ele>171.28</ele><time>2026-08-14T10:16:14Z</time></trkpt><trkpt lat="59.3352900445" lon="34.6512001008"><ele>170.83</ele><time>2026-08-14T10:16:36Z</time></trkpt><trkpt lat="59.3352570198" lon="34.6514297649"><ele>170.09</ele><time>2026-08-14T10:16:50Z</time></trkpt><trkpt lat="59.3352317065" lon="34.6514989156"><ele>169.58</ele><time>2026-08-14T10:16:55Z</time></trkpt><trkpt lat="59.3352051359" lon="34.6516129095"><ele>170.15</ele><time>2026-08-14T10:17:22Z</time></trkpt><trkpt lat="59.3351738714" lon="34.6516833175"><ele>169.73</ele><time>2026-08-14T10:17:50Z</time></trkpt><trkpt lat="59.3350572791" lon="34.6517709922"><ele>172.52</ele><time>2026-08-14T10:18:21Z</time></trkpt><trkpt lat="59.3351555988" lon="34.6516894363"><ele>172.97</ele><time>2026-08-14T10:18:46Z</time></trkpt><trkpt lat="59.3351804093" lon="34.6516667213"><ele>171.71</ele><time>2026-08-14T10:19:15Z</time></trkpt><trkpt lat="59.3351720273" lon="34.6516095567"><ele>168.94</ele><time>2026-08-14T10:19:43Z</time></trkpt><trkpt lat="59.3352012802" lon="34.6517677233"><ele>168.07</ele><time>2026-08-14T10:20:03Z</time></trkpt><trkpt lat="59.3352785613" lon="34.6518988162"><ele>167.71</ele><time>2026-08-14T10:20:20Z</time></trkpt><trkpt lat="59.3353152741" lon="34.6520816255"><ele>167.67</ele><time>2026-08-14T10:20:40Z</time></trkpt><trkpt lat="59.3353208061" lon="34.6521003172"><ele>167.66</ele><time>2026-08-14T10:20:42Z</time></trkpt><trkpt lat="59.3353716843" lon="34.6523677837"><ele>167.69</ele><time>2026-08-14T10:20:57Z</time></trkpt><trkpt lat="59.3353834189" lon="34.6526272036"><ele>168.40</ele><time>2026-08-14T10:21:16Z</time></trkpt><trkpt lat="59.3354157731" lon="34.6528678481"><ele>167.27</ele><time>2026-08-14T10:21:35Z</time></trkpt><trkpt lat="59.3354824930" lon="34.6529427823"><ele>168.55</ele><time>2026-08-14T10:21:53Z</time></trkpt><trkpt lat="59.3355161045" lon="34.6529473923"><ele>169.35</ele><time>2026-08-14T10:22:23Z</time></trkpt><trkpt lat="59.3355403282" lon="34.6528927423"><ele>169.32</ele><time>2026-08-14T10:22:52Z</time></trkpt><trkpt lat="59.3355141766" lon="34.6528701112"><ele>170.97</ele><time>2026-08-14T10:23:23Z</time></trkpt><trkpt lat="59.3354998436" lon="34.6529725380"><ele>171.86</ele><time>2026-08-14T10:23:45Z</time></trkpt><trkpt lat="59.3354813196" lon="34.6527841128"><ele>174.00</ele><time>2026-08-14T10:24:13Z</time></trkpt><trkpt lat="59.3354763743" lon="34.6527856216"><ele>175.87</ele><time>2026-08-14T10:24:40Z</time></trkpt><trkpt lat="59.3355125841" lon="34.6530399285"><ele>175.75</ele><time>2026-08-14T10:25:00Z</time></trkpt><trkpt lat="59.3354982510" lon="34.6531530842"><ele>177.17</ele><time>2026-08-14T10:25:23Z</time></trkpt><trkpt lat="59.3354750331" lon="34.6534424275"><ele>177.14</ele><time>2026-08-14T10:25:42Z</time></trkpt><trkpt lat="59.3355340417" lon="34.6538146678"><ele>176.14</ele><time>2026-08-14T10:26:01Z</time></trkpt><trkpt lat="59.3355334550" lon="34.6541278157"><ele>175.01</ele><time>2026-08-14T10:26:18Z</time></trkpt><trkpt lat="59.3354815710" lon="34.6543218568"><ele>173.79</ele><time>2026-08-14T10:26:38Z</time></trkpt><trkpt lat="59.3353646435" lon="34.6544430591"><ele>173.69</ele><time>2026-08-14T10:26:56Z</time></trkpt><trkpt lat="59.3352776393" lon="34.6545478329"><ele>174.49</ele><time>2026-08-14T10:27:22Z</time></trkpt><trkpt lat="59.3353032041" lon="34.6545262076"><ele>176.53</ele><time>2026-08-14T10:27:52Z</time></trkpt><trkpt lat="59.3353122566" lon="34.6545809414"><ele>177.53</ele><time>2026-08-14T10:28:21Z</time></trkpt><trkpt lat="59.3353135977" lon="34.6546519361"><ele>177.87</ele><time>2026-08-14T10:28:53Z</time></trkpt><trkpt lat="59.3352911342" lon="34.6545102820"><ele>175.71</ele><time>2026-08-14T10:29:18Z</time></trkpt><trkpt lat="59.3352151942" lon="34.6544956136"><ele>174.50</ele><time>2026-08-14T10:29:50Z</time></trkpt><trkpt lat="59.3353245780" lon="34.6546027344"><ele>176.46</ele><time>2026-08-14T10:30:15Z</time></trkpt><trkpt lat="59.3353698403" lon="34.6545888204"><ele>179.58</ele><time>2026-08-14T10:30:47Z</time></trkpt><trkpt lat="59.3353410903" lon="34.6546571329"><ele>181.72</ele><time>2026-08-14T10:31:19Z</time></trkpt><trkpt lat="59.3353249971" lon="34.6547705401"><ele>182.96</ele><time>2026-08-14T10:31:40Z</time></trkpt><trkpt lat="59.3352416810" lon="34.6549929958"><ele>181.52</ele><time>2026-08-14T10:31:56Z</time></trkpt><trkpt lat="59.3352474645" lon="34.6553291101"><ele>181.50</ele><time>2026-08-14T10:32:18Z</time></trkpt><trkpt lat="59.3352690898" lon="34.6555154398"><ele>179.36</ele><time>2026-08-14T10:32:34Z</time></trkpt><trkpt lat="59.3352975044" lon="34.6556412522"><ele>179.83</ele><time>2026-08-14T10:33:16Z</time></trkpt><trkpt lat="59.3352851830" lon="34.6555294376"><ele>178.57</ele><time>2026-08-14T10:33:48Z</time></trkpt><trkpt lat="59.3353780545" lon="34.6555664018"><ele>180.87</ele><time>2026-08-14T10:34:17Z</time></trkpt><trkpt lat="59.3353591952" lon="34.6555441897"><ele>180.03</ele><time>2026-08-14T10:34:31Z</time></trkpt><trkpt lat="59.3353807367" lon="34.6555327065"><ele>177.75</ele><time>2026-08-14T10:35:03Z</time></trkpt><trkpt lat="59.3353681639" lon="34.6555907931"><ele>175.62</ele><time>2026-08-14T10:35:30Z</time></trkpt><trkpt lat="59.3353611231" lon="34.6555840876"><ele>172.09</ele><time>2026-08-14T10:35:56Z</time></trkpt><trkpt lat="59.3354618736" lon="34.6555764601"><ele>172.01</ele><time>2026-08-14T10:36:14Z</time></trkpt><trkpt lat="59.3355341256" lon="34.6555825789"><ele>172.24</ele><time>2026-08-14T10:36:35Z</time></trkpt><trkpt lat="59.3357165996" lon="34.6556434315"><ele>172.70</ele><time>2026-08-14T10:36:58Z</time></trkpt><trkpt lat="59.3358057830" lon="34.6557913721"><ele>172.61</ele><time>2026-08-14T10:37:17Z</time></trkpt><trkpt lat="59.3358994089" lon="34.6558900271"><ele>173.71</ele><time>2026-08-14T10:37:35Z</time></trkpt><trkpt lat="59.3359332718" lon="34.6559268236"><ele>177.17</ele><time>2026-08-14T10:38:02Z</time></trkpt><trkpt lat="59.3359635305" lon="34.6558551583"><ele>177.95</ele><time>2026-08-14T10:38:30Z</time></trkpt><trkpt lat="59.3359356187" lon="34.6557622030"><ele>178.60</ele><time>2026-08-14T10:39:02Z</time></trkpt><trkpt lat="59.3359298352" lon="34.6557620354"><ele>178.15</ele><time>2026-08-14T10:39:50Z</time></trkpt><trkpt lat="59.3359372951" lon="34.6557373088"><ele>178.25</ele><time>2026-08-14T10:39:57Z</time></trkpt><trkpt lat="59.3359708227" lon="34.6556528192"><ele>178.17</ele><time>2026-08-14T10:40:25Z</time></trkpt><trkpt lat="59.3359469343" lon="34.6554581076"><ele>177.03</ele><time>2026-08-14T10:40:40Z</time></trkpt><trkpt lat="59.3359621055" lon="34.6552763041"><ele>177.01</ele><time>2026-08-14T10:40:56Z</time></trkpt><trkpt lat="59.3359301705" lon="34.6549804229"><ele>174.81</ele><time>2026-08-14T10:41:12Z</time></trkpt><trkpt lat="59.3358155899" lon="34.6546094399"><ele>169.63</ele><time>2026-08-14T10:41:32Z</time></trkpt><trkpt lat="59.3357344531" lon="34.6544181649"><ele>169.24</ele><time>2026-08-14T10:41:55Z</time></trkpt><trkpt lat="59.3358172663" lon="34.6542515326"><ele>170.17</ele><time>2026-08-14T10:42:11Z</time></trkpt><trkpt lat="59.3358246423" lon="34.6541252173"><ele>170.24</ele><time>2026-08-14T10:42:25Z</time></trkpt><trkpt lat="59.3358826451" lon="34.6539281588"><ele>167.71</ele><time>2026-08-14T10:42:42Z</time></trkpt><trkpt lat="59.3359039351" lon="34.6538398974"><ele>168.50</ele><time>2026-08-14T10:43:03Z</time></trkpt><trkpt lat="59.3359075394" lon="34.6537658013"><ele>168.16</ele><time>2026-08-14T10:43:44Z</time></trkpt><trkpt lat="59.3360652868" lon="34.6536429226"><ele>168.21</ele><time>2026-08-14T10:44:44Z</time></trkpt><trkpt lat="59.3360100500" lon="34.6536022704"><ele>167.38</ele><time>2026-08-14T10:45:18Z</time></trkpt><trkpt lat="59.3359932862" lon="34.6535289288"><ele>167.65</ele><time>2026-08-14T10:45:26Z</time></trkpt><trkpt lat="59.3360838946" lon="34.6534197126"><ele>167.63</ele><time>2026-08-14T10:45:42Z</time></trkpt><trkpt lat="59.3362410553" lon="34.6532631386"><ele>171.60</ele><time>2026-08-14T10:46:03Z</time></trkpt><trkpt lat="59.3363370281" lon="34.6532690059"><ele>177.24</ele><time>2026-08-14T10:46:32Z</time></trkpt><trkpt lat="59.3363231979" lon="34.6532322094"><ele>180.30</ele><time>2026-08-14T10:46:59Z</time></trkpt><trkpt lat="59.3362401333" lon="34.6531576943"><ele>181.16</ele><time>2026-08-14T10:47:19Z</time></trkpt><trkpt lat="59.3361354433" lon="34.6529865358"><ele>180.97</ele><time>2026-08-14T10:47:34Z</time></trkpt><trkpt lat="59.3360589165" lon="34.6528913174"><ele>180.47</ele><time>2026-08-14T10:47:42Z</time></trkpt><trkpt lat="59.3359750137" lon="34.6527985297"><ele>180.48</ele><time>2026-08-14T10:48:11Z</time></trkpt><trkpt lat="59.3359911907" lon="34.6527325641"><ele>180.51</ele><time>2026-08-14T10:48:19Z</time></trkpt><trkpt lat="59.3359749299" lon="34.6525639202"><ele>179.74</ele><time>2026-08-14T10:48:44Z</time></trkpt><trkpt lat="59.3359889276" lon="34.6525897365"><ele>180.56</ele><time>2026-08-14T10:49:13Z</time></trkpt><trkpt lat="59.3360786978" lon="34.6525629982"><ele>181.62</ele><time>2026-08-14T10:49:37Z</time></trkpt><trkpt lat="59.3359982315" lon="34.6525845397"><ele>180.68</ele><time>2026-08-14T10:50:04Z</time></trkpt><trkpt lat="59.3360415660" lon="34.6525929216"><ele>180.11</ele><time>2026-08-14T10:50:31Z</time></trkpt><trkpt lat="59.3360461760" lon="34.6525657643"><ele>179.26</ele><time>2026-08-14T10:51:02Z</time></trkpt><trkpt lat="59.3359975610" lon="34.6524897404"><ele>178.94</ele><time>2026-08-14T10:51:32Z</time></trkpt><trkpt lat="59.3360172585" lon="34.6525345836"><ele>177.97</ele><time>2026-08-14T10:52:01Z</time></trkpt><trkpt lat="59.3360157497" lon="34.6525352541"><ele>177.32</ele><time>2026-08-14T10:52:30Z</time></trkpt><trkpt lat="59.3360070325" lon="34.6525093541"><ele>176.52</ele><time>2026-08-14T10:53:04Z</time></trkpt><trkpt lat="59.3360113911" lon="34.6525183227"><ele>177.41</ele><time>2026-08-14T10:53:33Z</time></trkpt><trkpt lat="59.3360113911" lon="34.6525154728"><ele>178.51</ele><time>2026-08-14T10:53:58Z</time></trkpt><trkpt lat="59.3359958008" lon="34.6523233596"><ele>178.15</ele><time>2026-08-14T10:54:18Z</time></trkpt><trkpt lat="59.3360425718" lon="34.6520184260"><ele>176.61</ele><time>2026-08-14T10:54:36Z</time></trkpt><trkpt lat="59.3360481039" lon="34.6519103833"><ele>176.20</ele><time>2026-08-14T10:54:57Z</time></trkpt><trkpt lat="59.3359872513" lon="34.6515612770"><ele>173.89</ele><time>2026-08-14T10:55:18Z</time></trkpt><trkpt lat="59.3359405641" lon="34.6514886059"><ele>172.46</ele><time>2026-08-14T10:55:44Z</time></trkpt><trkpt lat="59.3358929548" lon="34.6515075490"><ele>171.78</ele><time>2026-08-14T10:56:26Z</time></trkpt><trkpt lat="59.3359854911" lon="34.6514473669"><ele>172.36</ele><time>2026-08-14T10:57:19Z</time></trkpt><trkpt lat="59.3359669670" lon="34.6513537411"><ele>169.47</ele><time>2026-08-14T10:57:52Z</time></trkpt><trkpt lat="59.3359781988" lon="34.6510519926"><ele>169.06</ele><time>2026-08-14T10:58:14Z</time></trkpt><trkpt lat="59.3360760156" lon="34.6509052254"><ele>168.77</ele><time>2026-08-14T10:58:31Z</time></trkpt><trkpt lat="59.3361305818" lon="34.6508527547"><ele>170.12</ele><time>2026-08-14T10:58:51Z</time></trkpt><trkpt lat="59.3362018280" lon="34.6507261880"><ele>169.65</ele><time>2026-08-14T10:59:07Z</time></trkpt><trkpt lat="59.3361695576" lon="34.6506653354"><ele>169.34</ele><time>2026-08-14T10:59:23Z</time></trkpt><trkpt lat="59.3360373750" lon="34.6506482363"><ele>168.48</ele><time>2026-08-14T10:59:40Z</time></trkpt><trkpt lat="59.3359938730" lon="34.6504173987"><ele>166.83</ele><time>2026-08-14T10:59:57Z</time></trkpt><trkpt lat="59.3361035921" lon="34.6502598189"><ele>165.32</ele><time>2026-08-14T11:00:17Z</time></trkpt><trkpt lat="59.3362133950" lon="34.6500641014"><ele>162.60</ele><time>2026-08-14T11:00:37Z</time></trkpt><trkpt lat="59.3362412229" lon="34.6498735808"><ele>160.37</ele><time>2026-08-14T11:00:56Z</time></trkpt><trkpt lat="59.3362278119" lon="34.6497730818"><ele>163.60</ele><time>2026-08-14T11:01:14Z</time></trkpt><trkpt lat="59.3361978885" lon="34.6497546416"><ele>166.54</ele><time>2026-08-14T11:01:39Z</time></trkpt><trkpt lat="59.3361795321" lon="34.6497241315"><ele>167.27</ele><time>2026-08-14T11:02:03Z</time></trkpt><trkpt lat="59.3362006545" lon="34.6497181803"><ele>168.02</ele><time>2026-08-14T11:02:32Z</time></trkpt><trkpt lat="59.3361942843" lon="34.6497309208"><ele>165.43</ele><time>2026-08-14T11:03:02Z</time></trkpt><trkpt lat="59.3362034205" lon="34.6497338545"><ele>165.08</ele><time>2026-08-14T11:03:31Z</time></trkpt><trkpt lat="59.3361675460" lon="34.6496699844"><ele>166.02</ele><time>2026-08-14T11:03:46Z</time></trkpt><trkpt lat="59.3361475132" lon="34.6495826449"><ele>168.11</ele><time>2026-08-14T11:04:10Z</time></trkpt><trkpt lat="59.3361605890" lon="34.6493668947"><ele>169.48</ele><time>2026-08-14T11:04:30Z</time></trkpt><trkpt lat="59.3360905163" lon="34.6491079777"><ele>168.66</ele><time>2026-08-14T11:04:49Z</time></trkpt><trkpt lat="59.3360908516" lon="34.6488773916"><ele>167.10</ele><time>2026-08-14T11:05:11Z</time></trkpt><trkpt lat="59.3360294122" lon="34.6488249209"><ele>168.01</ele><time>2026-08-14T11:05:39Z</time></trkpt><trkpt lat="59.3361108005" lon="34.6487721987"><ele>171.01</ele><time>2026-08-14T11:06:11Z</time></trkpt><trkpt lat="59.3360916898" lon="34.6487085801"><ele>174.36</ele><time>2026-08-14T11:06:39Z</time></trkpt><trkpt lat="59.3361129798" lon="34.6487327199"><ele>174.68</ele><time>2026-08-14T11:07:04Z</time></trkpt><trkpt lat="59.3361373711" lon="34.6487196442"><ele>177.24</ele><time>2026-08-14T11:07:33Z</time></trkpt><trkpt lat="59.3360952102" lon="34.6486692689"><ele>176.85</ele><time>2026-08-14T11:07:57Z</time></trkpt><trkpt lat="59.3361007422" lon="34.6484064125"><ele>176.35</ele><time>2026-08-14T11:08:15Z</time></trkpt><trkpt lat="59.3361874111" lon="34.6481900755"><ele>176.23</ele><time>2026-08-14T11:08:34Z</time></trkpt><trkpt lat="59.3361906800" lon="34.6481289715"><ele>176.00</ele><time>2026-08-14T11:09:00Z</time></trkpt><trkpt lat="59.3361817952" lon="34.6481117886"><ele>177.05</ele><time>2026-08-14T11:09:19Z</time></trkpt><trkpt lat="59.3363193423" lon="34.6481329948"><ele>177.43</ele><time>2026-08-14T11:09:39Z</time></trkpt><trkpt lat="59.3363488466" lon="34.6481873095"><ele>176.86</ele><time>2026-08-14T11:09:57Z</time></trkpt><trkpt lat="59.3363857269" lon="34.6483846195"><ele>174.48</ele><time>2026-08-14T11:10:16Z</time></trkpt><trkpt lat="59.3364394549" lon="34.6484273672"><ele>172.92</ele><time>2026-08-14T11:10:31Z</time></trkpt><trkpt lat="59.3364630081" lon="34.6484308038"><ele>172.04</ele><time>2026-08-14T11:10:58Z</time></trkpt><trkpt lat="59.3364428915" lon="34.6484397724"><ele>170.94</ele><time>2026-08-14T11:11:25Z</time></trkpt><trkpt lat="59.3364798557" lon="34.6484499983"><ele>172.38</ele><time>2026-08-14T11:11:53Z</time></trkpt><trkpt lat="59.3364709709" lon="34.6484581288"><ele>173.21</ele><time>2026-08-14T11:12:21Z</time></trkpt><trkpt lat="59.3364516087" lon="34.6484152973"><ele>173.19</ele><time>2026-08-14T11:12:50Z</time></trkpt><trkpt lat="59.3364376109" lon="34.6484903153"><ele>174.06</ele><time>2026-08-14T11:13:20Z</time></trkpt><trkpt lat="59.3363954499" lon="34.6485263575"><ele>175.58</ele><time>2026-08-14T11:13:46Z</time></trkpt><trkpt lat="59.3363874033" lon="34.6485313028"><ele>176.44</ele><time>2026-08-14T11:14:14Z</time></trkpt><trkpt lat="59.3364014011" lon="34.6485140361"><ele>175.54</ele><time>2026-08-14T11:14:41Z</time></trkpt><trkpt lat="59.3364212662" lon="34.6484861244"><ele>175.46</ele><time>2026-08-14T11:15:02Z</time></trkpt><trkpt lat="59.3364508543" lon="34.6484542731"><ele>174.68</ele><time>2026-08-14T11:15:30Z</time></trkpt><trkpt lat="59.3364566378" lon="34.6484674327"><ele>173.96</ele><time>2026-08-14T11:15:55Z</time></trkpt><trkpt lat="59.3364936020" lon="34.6485002059"><ele>172.86</ele><time>2026-08-14T11:16:25Z</time></trkpt><trkpt lat="59.3365152273" lon="34.6484898962"><ele>172.68</ele><time>2026-08-14T11:16:47Z</time></trkpt><trkpt lat="59.3366445601" lon="34.6485148743"><ele>172.45</ele><time>2026-08-14T11:17:04Z</time></trkpt><trkpt lat="59.3368292134" lon="34.6483878046"><ele>171.52</ele><time>2026-08-14T11:17:29Z</time></trkpt><trkpt lat="59.3369161338" lon="34.6483985335"><ele>169.49</ele><time>2026-08-14T11:17:43Z</time></trkpt><trkpt lat="59.3369600549" lon="34.6485162154"><ele>169.60</ele><time>2026-08-14T11:18:02Z</time></trkpt><trkpt lat="59.3370730430" lon="34.6485801693"><ele>169.34</ele><time>2026-08-14T11:18:16Z</time></trkpt><trkpt lat="59.3370422814" lon="34.6486720350"><ele>169.98</ele><time>2026-08-14T11:18:34Z</time></trkpt><trkpt lat="59.3369552772" lon="34.6486788243"><ele>169.60</ele><time>2026-08-14T11:18:57Z</time></trkpt><trkpt lat="59.3369478174" lon="34.6487846877"><ele>169.66</ele><time>2026-08-14T11:19:23Z</time></trkpt><trkpt lat="59.3369183131" lon="34.6487517469"><ele>168.76</ele><time>2026-08-14T11:19:51Z</time></trkpt><trkpt lat="59.3369486555" lon="34.6487449575"><ele>164.37</ele><time>2026-08-14T11:20:19Z</time></trkpt><trkpt lat="59.3370374199" lon="34.6487706061"><ele>165.46</ele><time>2026-08-14T11:20:51Z</time></trkpt><trkpt lat="59.3369600549" lon="34.6487744618"><ele>165.98</ele><time>2026-08-14T11:21:18Z</time></trkpt><trkpt lat="59.3369786628" lon="34.6488407627"><ele>166.26</ele><time>2026-08-14T11:21:33Z</time></trkpt><trkpt lat="59.3369618990" lon="34.6490173694"><ele>167.27</ele><time>2026-08-14T11:21:52Z</time></trkpt><trkpt lat="59.3369566184" lon="34.6491687465"><ele>167.17</ele><time>2026-08-14T11:22:06Z</time></trkpt><trkpt lat="59.3369630724" lon="34.6494202036"><ele>166.30</ele><time>2026-08-14T11:22:24Z</time></trkpt><trkpt lat="59.3369383458" lon="34.6496564057"><ele>165.58</ele><time>2026-08-14T11:22:41Z</time></trkpt><trkpt lat="59.3368622381" lon="34.6499621775"><ele>164.04</ele><time>2026-08-14T11:23:01Z</time></trkpt><trkpt lat="59.3368962687" lon="34.6501825377"><ele>163.24</ele><time>2026-08-14T11:23:20Z</time></trkpt><trkpt lat="59.3368981127" lon="34.6502539515"><ele>163.21</ele><time>2026-08-14T11:23:43Z</time></trkpt><trkpt lat="59.3369094282" lon="34.6503152233"><ele>162.99</ele><time>2026-08-14T11:24:10Z</time></trkpt><trkpt lat="59.3368893117" lon="34.6503049135"><ele>163.88</ele><time>2026-08-14T11:24:43Z</time></trkpt><trkpt lat="59.3368520960" lon="34.6503168996"><ele>164.28</ele><time>2026-08-14T11:25:15Z</time></trkpt><trkpt lat="59.3369012978" lon="34.6503553726"><ele>165.48</ele><time>2026-08-14T11:25:42Z</time></trkpt><trkpt lat="59.3368769065" lon="34.6503726393"><ele>167.52</ele><time>2026-08-14T11:26:12Z</time></trkpt><trkpt lat="59.3368683569" lon="34.6505445521"><ele>167.53</ele><time>2026-08-14T11:26:31Z</time></trkpt><trkpt lat="59.3368621543" lon="34.6507744677"><ele>166.91</ele><time>2026-08-14T11:26:52Z</time></trkpt><trkpt lat="59.3368500844" lon="34.6508277766"><ele>166.42</ele><time>2026-08-14T11:27:00Z</time></trkpt><trkpt lat="59.3368520960" lon="34.6511885338"><ele>164.87</ele><time>2026-08-14T11:27:18Z</time></trkpt><trkpt lat="59.3368667644" lon="34.6514629573"><ele>164.56</ele><time>2026-08-14T11:27:36Z</time></trkpt><trkpt lat="59.3368607294" lon="34.6516066231"><ele>166.18</ele><time>2026-08-14T11:27:58Z</time></trkpt><trkpt lat="59.3368728831" lon="34.6516204532"><ele>166.62</ele><time>2026-08-14T11:28:25Z</time></trkpt><trkpt lat="59.3368651718" lon="34.6516604349"><ele>167.42</ele><time>2026-08-14T11:28:56Z</time></trkpt><trkpt lat="59.3368855398" lon="34.6516511310"><ele>168.19</ele><time>2026-08-14T11:29:05Z</time></trkpt><trkpt lat="59.3368894793" lon="34.6516437549"><ele>168.78</ele><time>2026-08-14T11:29:35Z</time></trkpt><trkpt lat="59.3368868809" lon="34.6518186852"><ele>169.05</ele><time>2026-08-14T11:29:51Z</time></trkpt><trkpt lat="59.3368782476" lon="34.6519429889"><ele>169.01</ele><time>2026-08-14T11:30:02Z</time></trkpt><trkpt lat="59.3369014654" lon="34.6521755867"><ele>169.11</ele><time>2026-08-14T11:30:18Z</time></trkpt><trkpt lat="59.3368629087" lon="34.6525127906"><ele>169.27</ele><time>2026-08-14T11:30:41Z</time></trkpt><trkpt lat="59.3368593045" lon="34.6525787562"><ele>168.85</ele><time>2026-08-14T11:31:08Z</time></trkpt><trkpt lat="59.3368263636" lon="34.6524420474"><ele>166.81</ele><time>2026-08-14T11:31:39Z</time></trkpt><trkpt lat="59.3368463963" lon="34.6524867229"><ele>166.81</ele><time>2026-08-14T11:32:09Z</time></trkpt><trkpt lat="59.3368245196" lon="34.6526499186"><ele>167.73</ele><time>2026-08-14T11:32:41Z</time></trkpt><trkpt lat="59.3367679417" lon="34.6528225020"><ele>167.74</ele><time>2026-08-14T11:32:56Z</time></trkpt><trkpt lat="59.3367070053" lon="34.6531297825"><ele>168.40</ele><time>2026-08-14T11:33:13Z</time></trkpt><trkpt lat="59.3366827816" lon="34.6534189582"><ele>168.29</ele><time>2026-08-14T11:33:32Z</time></trkpt><trkpt lat="59.3366583902" lon="34.6536761150"><ele>168.56</ele><time>2026-08-14T11:33:51Z</time></trkpt><trkpt lat="59.3367013894" lon="34.6539465152"><ele>166.69</ele><time>2026-08-14T11:34:09Z</time></trkpt><trkpt lat="59.3366541155" lon="34.6540175099"><ele>168.28</ele><time>2026-08-14T11:34:33Z</time></trkpt><trkpt lat="59.3366409559" lon="34.6540824696"><ele>170.21</ele><time>2026-08-14T11:35:02Z</time></trkpt><trkpt lat="59.3366926722" lon="34.6540608443"><ele>168.70</ele><time>2026-08-14T11:35:30Z</time></trkpt><trkpt lat="59.3367091846" lon="34.6540492773"><ele>168.82</ele><time>2026-08-14T11:35:47Z</time></trkpt><trkpt lat="59.3366832007" lon="34.6540463436"><ele>170.20</ele><time>2026-08-14T11:36:16Z</time></trkpt><trkpt lat="59.3366840389" lon="34.6540138219"><ele>170.89</ele><time>2026-08-14T11:36:43Z</time></trkpt><trkpt lat="59.3367105257" lon="34.6540975571"><ele>170.91</ele><time>2026-08-14T11:37:13Z</time></trkpt><trkpt lat="59.3366768304" lon="34.6541195177"><ele>171.18</ele><time>2026-08-14T11:37:43Z</time></trkpt><trkpt lat="59.3367270380" lon="34.6542015765"><ele>170.04</ele><time>2026-08-14T11:38:10Z</time></trkpt><trkpt lat="59.3367105257" lon="34.6545278840"><ele>167.79</ele><time>2026-08-14T11:38:36Z</time></trkpt><trkpt lat="59.3367132917" lon="34.6545438096"><ele>167.83</ele><time>2026-08-14T11:38:37Z</time></trkpt><trkpt lat="59.3367388565" lon="34.6548726317"><ele>167.11</ele><time>2026-08-14T11:38:58Z</time></trkpt><trkpt lat="59.3367222603" lon="34.6551819239"><ele>166.46</ele><time>2026-08-14T11:39:20Z</time></trkpt><trkpt lat="59.3366971146" lon="34.6554134320"><ele>166.68</ele><time>2026-08-14T11:39:37Z</time></trkpt><trkpt lat="59.3366866373" lon="34.6556052938"><ele>167.13</ele><time>2026-08-14T11:39:59Z</time></trkpt><trkpt lat="59.3367109448" lon="34.6555487998"><ele>170.11</ele><time>2026-08-14T11:40:26Z</time></trkpt><trkpt lat="59.3367219251" lon="34.6555181220"><ele>172.29</ele><time>2026-08-14T11:40:52Z</time></trkpt><trkpt lat="59.3367406167" lon="34.6556740254"><ele>174.33</ele><time>2026-08-14T11:41:22Z</time></trkpt><trkpt lat="59.3367379345" lon="34.6556580998"><ele>176.71</ele><time>2026-08-14T11:41:52Z</time></trkpt><trkpt lat="59.3367752340" lon="34.6556222253"><ele>176.63</ele><time>2026-08-14T11:42:21Z</time></trkpt><trkpt lat="59.3367541116" lon="34.6557052899"><ele>176.19</ele><time>2026-08-14T11:42:48Z</time></trkpt><trkpt lat="59.3367969431" lon="34.6556715108"><ele>177.14</ele><time>2026-08-14T11:43:21Z</time></trkpt><trkpt lat="59.3368065823" lon="34.6555778850"><ele>179.00</ele><time>2026-08-14T11:43:49Z</time></trkpt><trkpt lat="59.3368415348" lon="34.6555518173"><ele>179.85</ele><time>2026-08-14T11:44:14Z</time></trkpt><trkpt lat="59.3369468115" lon="34.6556151845"><ele>176.12</ele><time>2026-08-14T11:44:34Z</time></trkpt><trkpt lat="59.3370574526" lon="34.6556472871"><ele>171.83</ele><time>2026-08-14T11:44:54Z</time></trkpt><trkpt lat="59.3372105900" lon="34.6556788869"><ele>167.15</ele><time>2026-08-14T11:45:12Z</time></trkpt><trkpt lat="59.3373409286" lon="34.6556776296"><ele>161.07</ele><time>2026-08-14T11:45:32Z</time></trkpt><trkpt lat="59.3374906294" lon="34.6556675714"><ele>158.36</ele><time>2026-08-14T11:45:50Z</time></trkpt><trkpt lat="59.3375449441" lon="34.6555959061"><ele>166.15</ele><time>2026-08-14T11:46:18Z</time></trkpt><trkpt lat="59.3375131767" lon="34.6555917151"><ele>168.71</ele><time>2026-08-14T11:46:46Z</time></trkpt><trkpt lat="59.3375373166" lon="34.6555975825"><ele>170.53</ele><time>2026-08-14T11:47:13Z</time></trkpt><trkpt lat="59.3375199661" lon="34.6556008514"><ele>171.38</ele><time>2026-08-14T11:47:40Z</time></trkpt><trkpt lat="59.3374949042" lon="34.6555341315"><ele>172.79</ele><time>2026-08-14T11:48:06Z</time></trkpt><trkpt lat="59.3375437707" lon="34.6555249114"><ele>173.70</ele><time>2026-08-14T11:48:37Z</time></trkpt><trkpt lat="59.3375207204" lon="34.6554692555"><ele>172.36</ele><time>2026-08-14T11:49:06Z</time></trkpt><trkpt lat="59.3374975864" lon="34.6556245722"><ele>171.26</ele><time>2026-08-14T11:50:03Z</time></trkpt><trkpt lat="59.3375154398" lon="34.6556409169"><ele>171.12</ele><time>2026-08-14T11:50:36Z</time></trkpt><trkpt lat="59.3375072256" lon="34.6555812377"><ele>171.63</ele><time>2026-08-14T11:51:00Z</time></trkpt><trkpt lat="59.3375000171" lon="34.6554955747"><ele>171.22</ele><time>2026-08-14T11:51:24Z</time></trkpt><trkpt lat="59.3375415914" lon="34.6553469636"><ele>170.21</ele><time>2026-08-14T11:51:40Z</time></trkpt><trkpt lat="59.3375633005" lon="34.6551305428"><ele>167.48</ele><time>2026-08-14T11:51:58Z</time></trkpt><trkpt lat="59.3375653122" lon="34.6548570413"><ele>164.74</ele><time>2026-08-14T11:52:16Z</time></trkpt><trkpt lat="59.3375151884" lon="34.6545509342"><ele>160.03</ele><time>2026-08-14T11:52:34Z</time></trkpt><trkpt lat="59.3375753704" lon="34.6542579029"><ele>155.50</ele><time>2026-08-14T11:52:54Z</time></trkpt><trkpt lat="59.3375828303" lon="34.6540884208"><ele>154.48</ele><time>2026-08-14T11:53:19Z</time></trkpt><trkpt lat="59.3375514820" lon="34.6541280672"><ele>155.26</ele><time>2026-08-14T11:53:46Z</time></trkpt><trkpt lat="59.3375043757" lon="34.6541114710"><ele>161.62</ele><time>2026-08-14T11:54:17Z</time></trkpt><trkpt lat="59.3375134282" lon="34.6541244630"><ele>162.91</ele><time>2026-08-14T11:54:40Z</time></trkpt><trkpt lat="59.3375230674" lon="34.6540536359"><ele>163.62</ele><time>2026-08-14T11:55:06Z</time></trkpt><trkpt lat="59.3375315331" lon="34.6540107206"><ele>164.08</ele><time>2026-08-14T11:55:28Z</time></trkpt><trkpt lat="59.3374990951" lon="34.6539572440"><ele>164.59</ele><time>2026-08-14T11:55:56Z</time></trkpt><trkpt lat="59.3374629691" lon="34.6539424080"><ele>163.72</ele><time>2026-08-14T11:56:26Z</time></trkpt><trkpt lat="59.3374586944" lon="34.6540003270"><ele>164.78</ele><time>2026-08-14T11:56:55Z</time></trkpt><trkpt lat="59.3374182098" lon="34.6539761033"><ele>166.15</ele><time>2026-08-14T11:57:19Z</time></trkpt><trkpt lat="59.3374056369" lon="34.6539460961"><ele>167.47</ele><time>2026-08-14T11:57:49Z</time></trkpt><trkpt lat="59.3374932278" lon="34.6540384647"><ele>166.95</ele><time>2026-08-14T11:58:48Z</time></trkpt><trkpt lat="59.3375273421" lon="34.6540502831"><ele>166.62</ele><time>2026-08-14T11:58:58Z</time></trkpt><trkpt lat="59.3374461215" lon="34.6541821305"><ele>165.60</ele><time>2026-08-14T11:59:26Z</time></trkpt><trkpt lat="59.3374235742" lon="34.6542434022"><ele>166.18</ele><time>2026-08-14T11:59:51Z</time></trkpt><trkpt lat="59.3374778889" lon="34.6541253012"><ele>164.36</ele><time>2026-08-14T12:00:30Z</time></trkpt><trkpt lat="59.3374752905" lon="34.6541440766"><ele>164.07</ele><time>2026-08-14T12:00:57Z</time></trkpt><trkpt lat="59.3374294415" lon="34.6541543026"><ele>166.49</ele><time>2026-08-14T12:01:26Z</time></trkpt><trkpt lat="59.3374616280" lon="34.6541630197"><ele>168.55</ele><time>2026-08-14T12:01:54Z</time></trkpt><trkpt lat="59.3374473788" lon="34.6541329287"><ele>168.89</ele><time>2026-08-14T12:02:25Z</time></trkpt><trkpt lat="59.3374108337" lon="34.6541300789"><ele>170.65</ele><time>2026-08-14T12:02:51Z</time></trkpt><trkpt lat="59.3373516575" lon="34.6541247144"><ele>169.97</ele><time>2026-08-14T12:03:18Z</time></trkpt><trkpt lat="59.3374641426" lon="34.6540454216"><ele>170.99</ele><time>2026-08-14T12:03:50Z</time></trkpt><trkpt lat="59.3375496380" lon="34.6540491935"><ele>170.65</ele><time>2026-08-14T12:04:17Z</time></trkpt><trkpt lat="59.3375705089" lon="34.6539530531"><ele>169.56</ele><time>2026-08-14T12:04:26Z</time></trkpt><trkpt lat="59.3376508914" lon="34.6537133306"><ele>164.85</ele><time>2026-08-14T12:04:47Z</time></trkpt><trkpt lat="59.3377133366" lon="34.6536227223"><ele>163.19</ele><time>2026-08-14T12:04:57Z</time></trkpt><trkpt lat="59.3377552461" lon="34.6533146035"><ele>160.44</ele><time>2026-08-14T12:05:09Z</time></trkpt><trkpt lat="59.3377472833" lon="34.6530420240"><ele>156.72</ele><time>2026-08-14T12:05:24Z</time></trkpt><trkpt lat="59.3377093133" lon="34.6528608073"><ele>153.72</ele><time>2026-08-14T12:05:41Z</time></trkpt><trkpt lat="59.3376663979" lon="34.6527015511"><ele>153.54</ele><time>2026-08-14T12:06:08Z</time></trkpt><trkpt lat="59.3376360554" lon="34.6525980346"><ele>153.95</ele><time>2026-08-14T12:06:34Z</time></trkpt><trkpt lat="59.3376280088" lon="34.6527058259"><ele>155.31</ele><time>2026-08-14T12:07:02Z</time></trkpt><trkpt lat="59.3376293499" lon="34.6526415367"><ele>157.65</ele><time>2026-08-14T12:07:30Z</time></trkpt><trkpt lat="59.3375568464" lon="34.6526188217"><ele>158.97</ele><time>2026-08-14T12:07:58Z</time></trkpt><trkpt lat="59.3375306111" lon="34.6527242661"><ele>157.80</ele><time>2026-08-14T12:08:18Z</time></trkpt><trkpt lat="59.3375288509" lon="34.6527311392"><ele>157.76</ele><time>2026-08-14T12:08:19Z</time></trkpt><trkpt lat="59.3375843391" lon="34.6526320651"><ele>157.81</ele><time>2026-08-14T12:08:46Z</time></trkpt><trkpt lat="59.3375906255" lon="34.6525776666"><ele>157.67</ele><time>2026-08-14T12:08:49Z</time></trkpt><trkpt lat="59.3376641348" lon="34.6524004731"><ele>156.75</ele><time>2026-08-14T12:09:05Z</time></trkpt><trkpt lat="59.3376591057" lon="34.6520424820"><ele>155.88</ele><time>2026-08-14T12:09:20Z</time></trkpt><trkpt lat="59.3376689125" lon="34.6516996622"><ele>156.30</ele><time>2026-08-14T12:09:39Z</time></trkpt><trkpt lat="59.3377033621" lon="34.6514761169"><ele>155.66</ele><time>2026-08-14T12:09:56Z</time></trkpt><trkpt lat="59.3377425056" lon="34.6514146775"><ele>156.49</ele><time>2026-08-14T12:10:27Z</time></trkpt><trkpt lat="59.3377276696" lon="34.6515243128"><ele>161.03</ele><time>2026-08-14T12:10:53Z</time></trkpt><trkpt lat="59.3377252389" lon="34.6515470278"><ele>164.19</ele><time>2026-08-14T12:11:21Z</time></trkpt><trkpt lat="59.3377307709" lon="34.6516062040"><ele>164.97</ele><time>2026-08-14T12:11:49Z</time></trkpt><trkpt lat="59.3377946410" lon="34.6516316850"><ele>168.53</ele><time>2026-08-14T12:12:11Z</time></trkpt><trkpt lat="59.3376974110" lon="34.6516150888"><ele>168.55</ele><time>2026-08-14T12:12:39Z</time></trkpt><trkpt lat="59.3377116602" lon="34.6513369773"><ele>167.12</ele><time>2026-08-14T12:13:01Z</time></trkpt><trkpt lat="59.3377319444" lon="34.6509292815"><ele>164.62</ele><time>2026-08-14T12:13:20Z</time></trkpt><trkpt lat="59.3377914559" lon="34.6507395152"><ele>165.40</ele><time>2026-08-14T12:13:35Z</time></trkpt><trkpt lat="59.3377847504" lon="34.6505399421"><ele>164.49</ele><time>2026-08-14T12:13:55Z</time></trkpt><trkpt lat="59.3377741054" lon="34.6502588969"><ele>162.77</ele><time>2026-08-14T12:14:10Z</time></trkpt><trkpt lat="59.3377441820" lon="34.6500312444"><ele>158.05</ele><time>2026-08-14T12:14:26Z</time></trkpt><trkpt lat="59.3377317768" lon="34.6498838905"><ele>156.06</ele><time>2026-08-14T12:14:46Z</time></trkpt><trkpt lat="59.3377207126" lon="34.6498532128"><ele>157.75</ele><time>2026-08-14T12:15:09Z</time></trkpt><trkpt lat="59.3377545755" lon="34.6498719882"><ele>158.21</ele><time>2026-08-14T12:15:38Z</time></trkpt><trkpt lat="59.3377456907" lon="34.6498719044"><ele>160.93</ele><time>2026-08-14T12:16:01Z</time></trkpt><trkpt lat="59.3377184495" lon="34.6498252172"><ele>162.41</ele><time>2026-08-14T12:16:31Z</time></trkpt><trkpt lat="59.3377222214" lon="34.6498018317"><ele>163.97</ele><time>2026-08-14T12:17:03Z</time></trkpt><trkpt lat="59.3377348781" lon="34.6497315913"><ele>165.12</ele><time>2026-08-14T12:17:26Z</time></trkpt><trkpt lat="59.3378403224" lon="34.6496905200"><ele>164.29</ele><time>2026-08-14T12:17:40Z</time></trkpt><trkpt lat="59.3379171845" lon="34.6497533005"><ele>163.28</ele><time>2026-08-14T12:17:55Z</time></trkpt><trkpt lat="59.3380346149" lon="34.6497152466"><ele>161.67</ele><time>2026-08-14T12:18:09Z</time></trkpt><trkpt lat="59.3381861597" lon="34.6497031767"><ele>159.34</ele><time>2026-08-14T12:18:26Z</time></trkpt><trkpt lat="59.3383085355" lon="34.6497328486"><ele>156.98</ele><time>2026-08-14T12:18:46Z</time></trkpt><trkpt lat="59.3384447414" lon="34.6498411428"><ele>158.50</ele><time>2026-08-14T12:19:13Z</time></trkpt><trkpt lat="59.3385711405" lon="34.6497566532"><ele>159.41</ele><time>2026-08-14T12:19:31Z</time></trkpt><trkpt lat="59.3386597373" lon="34.6497204434"><ele>161.16</ele><time>2026-08-14T12:19:48Z</time></trkpt><trkpt lat="59.3386698794" lon="34.6497471817"><ele>164.92</ele><time>2026-08-14T12:20:14Z</time></trkpt><trkpt lat="59.3386702146" lon="34.6497646999"><ele>164.80</ele><time>2026-08-14T12:20:30Z</time></trkpt><trkpt lat="59.3386486731" lon="34.6497909352"><ele>165.13</ele><time>2026-08-14T12:20:57Z</time></trkpt><trkpt lat="59.3386418000" lon="34.6498002391"><ele>165.74</ele><time>2026-08-14T12:21:20Z</time></trkpt><trkpt lat="59.3386583123" lon="34.6497866604"><ele>165.68</ele><time>2026-08-14T12:21:43Z</time></trkpt><trkpt lat="59.3386654370" lon="34.6498122253"><ele>164.75</ele><time>2026-08-14T12:22:12Z</time></trkpt><trkpt lat="59.3386765011" lon="34.6498108003"><ele>165.16</ele><time>2026-08-14T12:22:35Z</time></trkpt><trkpt lat="59.3387065083" lon="34.6498315036"><ele>165.24</ele><time>2026-08-14T12:23:01Z</time></trkpt><trkpt lat="59.3386968691" lon="34.6500291489"><ele>165.58</ele><time>2026-08-14T12:23:20Z</time></trkpt><trkpt lat="59.3386102002" lon="34.6502527781"><ele>165.34</ele><time>2026-08-14T12:23:38Z</time></trkpt><trkpt lat="59.3385453243" lon="34.6504274569"><ele>164.89</ele><time>2026-08-14T12:23:55Z</time></trkpt><trkpt lat="59.3385306560" lon="34.6505197417"><ele>165.40</ele><time>2026-08-14T12:24:08Z</time></trkpt><trkpt lat="59.3385535385" lon="34.6507574525"><ele>164.09</ele><time>2026-08-14T12:24:25Z</time></trkpt><trkpt lat="59.3385444861" lon="34.6509181336"><ele>164.21</ele><time>2026-08-14T12:24:42Z</time></trkpt><trkpt lat="59.3385555502" lon="34.6511579398"><ele>162.79</ele><time>2026-08-14T12:25:00Z</time></trkpt><trkpt lat="59.3385760859" lon="34.6512638871"><ele>160.87</ele><time>2026-08-14T12:25:16Z</time></trkpt><trkpt lat="59.3386161514" lon="34.6513159387"><ele>162.61</ele><time>2026-08-14T12:25:44Z</time></trkpt><trkpt lat="59.3386193365" lon="34.6513760369"><ele>163.62</ele><time>2026-08-14T12:26:11Z</time></trkpt><trkpt lat="59.3385993876" lon="34.6513932198"><ele>163.26</ele><time>2026-08-14T12:26:45Z</time></trkpt><trkpt lat="59.3386057578" lon="34.6513404977"><ele>161.63</ele><time>2026-08-14T12:27:12Z</time></trkpt><trkpt lat="59.3386141397" lon="34.6513591055"><ele>162.05</ele><time>2026-08-14T12:27:43Z</time></trkpt><trkpt lat="59.3386114575" lon="34.6515029389"><ele>161.70</ele><time>2026-08-14T12:28:09Z</time></trkpt><trkpt lat="59.3386533670" lon="34.6516831499"><ele>158.25</ele><time>2026-08-14T12:28:32Z</time></trkpt><trkpt lat="59.3386906665" lon="34.6517127380"><ele>158.32</ele><time>2026-08-14T12:28:36Z</time></trkpt><trkpt lat="59.3386992998" lon="34.6518768556"><ele>160.59</ele><time>2026-08-14T12:29:10Z</time></trkpt><trkpt lat="59.3386806920" lon="34.6518586669"><ele>162.83</ele><time>2026-08-14T12:29:41Z</time></trkpt><trkpt lat="59.3386653531" lon="34.6519517060"><ele>165.00</ele><time>2026-08-14T12:30:11Z</time></trkpt><trkpt lat="59.3386397883" lon="34.6520007402"><ele>165.42</ele><time>2026-08-14T12:30:30Z</time></trkpt><trkpt lat="59.3386085238" lon="34.6520840563"><ele>165.87</ele><time>2026-08-14T12:30:48Z</time></trkpt><trkpt lat="59.3386101164" lon="34.6520785242"><ele>164.32</ele><time>2026-08-14T12:31:11Z</time></trkpt><trkpt lat="59.3386410456" lon="34.6520369500"><ele>165.50</ele><time>2026-08-14T12:31:33Z</time></trkpt><trkpt lat="59.3387139682" lon="34.6520407218"><ele>166.25</ele><time>2026-08-14T12:31:44Z</time></trkpt><trkpt lat="59.3388744816" lon="34.6520554740"><ele>165.57</ele><time>2026-08-14T12:32:06Z</time></trkpt><trkpt lat="59.3389677722" lon="34.6521324199"><ele>165.09</ele><time>2026-08-14T12:32:19Z</time></trkpt><trkpt lat="59.3391515035" lon="34.6522473358"><ele>163.16</ele><time>2026-08-14T12:32:33Z</time></trkpt><trkpt lat="59.3392595463" lon="34.6522888262"><ele>166.14</ele><time>2026-08-14T12:32:52Z</time></trkpt><trkpt lat="59.3394074030" lon="34.6523571387"><ele>162.93</ele><time>2026-08-14T12:33:10Z</time></trkpt><trkpt lat="59.3394483067" lon="34.6523356810"><ele>165.88</ele><time>2026-08-14T12:33:34Z</time></trkpt><trkpt lat="59.3394512404" lon="34.6523061767"><ele>166.58</ele><time>2026-08-14T12:34:03Z</time></trkpt><trkpt lat="59.3394657411" lon="34.6523567196"><ele>167.46</ele><time>2026-08-14T12:34:25Z</time></trkpt><trkpt lat="59.3394207302" lon="34.6524054185"><ele>167.42</ele><time>2026-08-14T12:34:52Z</time></trkpt><trkpt lat="59.3394074030" lon="34.6524607390"><ele>169.13</ele><time>2026-08-14T12:35:14Z</time></trkpt><trkpt lat="59.3394184671" lon="34.6522204299"><ele>172.54</ele><time>2026-08-14T12:35:40Z</time></trkpt><trkpt lat="59.3394285254" lon="34.6522718947"><ele>172.24</ele><time>2026-08-14T12:36:11Z</time></trkpt><trkpt lat="59.3394824211" lon="34.6521393768"><ele>172.01</ele><time>2026-08-14T12:36:31Z</time></trkpt><trkpt lat="59.3395613786" lon="34.6521632653"><ele>170.70</ele><time>2026-08-14T12:36:46Z</time></trkpt><trkpt lat="59.3396892864" lon="34.6521113813"><ele>170.06</ele><time>2026-08-14T12:37:06Z</time></trkpt><trkpt lat="59.3397822417" lon="34.6521527041"><ele>169.01</ele><time>2026-08-14T12:37:24Z</time></trkpt><trkpt lat="59.3398057111" lon="34.6521324199"><ele>168.71</ele><time>2026-08-14T12:37:38Z</time></trkpt><trkpt lat="59.3398772087" lon="34.6520349383"><ele>167.90</ele><time>2026-08-14T12:37:53Z</time></trkpt><trkpt lat="59.3400189467" lon="34.6517419070"><ele>168.19</ele><time>2026-08-14T12:38:13Z</time></trkpt><trkpt lat="59.3400289211" lon="34.6517069545"><ele>168.58</ele><time>2026-08-14T12:38:36Z</time></trkpt><trkpt lat="59.3400805537" lon="34.6516685653"><ele>167.95</ele><time>2026-08-14T12:39:00Z</time></trkpt><trkpt lat="59.3400373030" lon="34.6516698226"><ele>168.60</ele><time>2026-08-14T12:39:30Z</time></trkpt><trkpt lat="59.3400485348" lon="34.6516375523"><ele>169.89</ele><time>2026-08-14T12:40:00Z</time></trkpt><trkpt lat="59.3401233852" lon="34.6516471077"><ele>168.36</ele><time>2026-08-14T12:40:26Z</time></trkpt><trkpt lat="59.3401440047" lon="34.6516459342"><ele>169.51</ele><time>2026-08-14T12:40:52Z</time></trkpt><trkpt lat="59.3401841540" lon="34.6515128296"><ele>169.88</ele><time>2026-08-14T12:41:11Z</time></trkpt><trkpt lat="59.3402504548" lon="34.6514069661"><ele>169.62</ele><time>2026-08-14T12:41:28Z</time></trkpt><trkpt lat="59.3402632792" lon="34.6513515618"><ele>169.03</ele><time>2026-08-14T12:41:44Z</time></trkpt><trkpt lat="59.3402756006" lon="34.6512866858"><ele>168.54</ele><time>2026-08-14T12:42:16Z</time></trkpt><trkpt lat="59.3402736727" lon="34.6513007674"><ele>168.53</ele><time>2026-08-14T12:42:21Z</time></trkpt><trkpt lat="59.3403493613" lon="34.6511921380"><ele>170.62</ele><time>2026-08-14T12:42:40Z</time></trkpt><trkpt lat="59.3404030055" lon="34.6511575207"><ele>172.02</ele><time>2026-08-14T12:43:07Z</time></trkpt><trkpt lat="59.3404818792" lon="34.6510486398"><ele>170.51</ele><time>2026-08-14T12:43:22Z</time></trkpt><trkpt lat="59.3405676261" lon="34.6510163695"><ele>169.99</ele><time>2026-08-14T12:43:40Z</time></trkpt><trkpt lat="59.3405419774" lon="34.6510285232"><ele>170.13</ele><time>2026-08-14T12:44:06Z</time></trkpt><trkpt lat="59.3406093679" lon="34.6510040481"><ele>171.36</ele><time>2026-08-14T12:44:25Z</time></trkpt><trkpt lat="59.3406366091" lon="34.6509973425"><ele>172.06</ele><time>2026-08-14T12:44:42Z</time></trkpt><trkpt lat="59.3406696338" lon="34.6508949157"><ele>170.55</ele><time>2026-08-14T12:44:54Z</time></trkpt><trkpt lat="59.3406905048" lon="34.6508680936"><ele>169.53</ele><time>2026-08-14T12:45:13Z</time></trkpt><trkpt lat="59.3407500163" lon="34.6507447120"><ele>167.96</ele><time>2026-08-14T12:45:29Z</time></trkpt><trkpt lat="59.3407800235" lon="34.6506731305"><ele>166.51</ele><time>2026-08-14T12:45:49Z</time></trkpt><trkpt lat="59.3408058397" lon="34.6506574564"><ele>167.92</ele><time>2026-08-14T12:46:14Z</time></trkpt><trkpt lat="59.3408335000" lon="34.6506755613"><ele>168.95</ele><time>2026-08-14T12:46:44Z</time></trkpt><trkpt lat="59.3408286385" lon="34.6506710351"><ele>170.54</ele><time>2026-08-14T12:47:15Z</time></trkpt><trkpt lat="59.3408531975" lon="34.6506949235"><ele>171.36</ele><time>2026-08-14T12:47:44Z</time></trkpt><trkpt lat="59.3408917543" lon="34.6506618150"><ele>170.23</ele><time>2026-08-14T12:48:16Z</time></trkpt><trkpt lat="59.3409123737" lon="34.6506362502"><ele>172.12</ele><time>2026-08-14T12:48:38Z</time></trkpt><trkpt lat="59.3409249466" lon="34.6507124417"><ele>170.83</ele><time>2026-08-14T12:49:01Z</time></trkpt><trkpt lat="59.3409561273" lon="34.6508592926"><ele>169.83</ele><time>2026-08-14T12:49:24Z</time></trkpt><trkpt lat="59.3410251103" lon="34.6508306265"><ele>170.18</ele><time>2026-08-14T12:49:44Z</time></trkpt><trkpt lat="59.3411142938" lon="34.6505742241"><ele>169.89</ele><time>2026-08-14T12:50:01Z</time></trkpt><trkpt lat="59.3411329854" lon="34.6504948474"><ele>169.40</ele><time>2026-08-14T12:50:05Z</time></trkpt><trkpt lat="59.3411448039" lon="34.6502569690"><ele>165.23</ele><time>2026-08-14T12:50:21Z</time></trkpt><trkpt lat="59.3411541078" lon="34.6500955336"><ele>163.91</ele><time>2026-08-14T12:50:36Z</time></trkpt><trkpt lat="59.3411943410" lon="34.6499678772"><ele>162.81</ele><time>2026-08-14T12:50:50Z</time></trkpt><trkpt lat="59.3412057403" lon="34.6499413904"><ele>163.05</ele><time>2026-08-14T12:51:21Z</time></trkpt><trkpt lat="59.3411614839" lon="34.6498976368"><ele>162.61</ele><time>2026-08-14T12:51:51Z</time></trkpt><trkpt lat="59.3411606457" lon="34.6498189308"><ele>165.16</ele><time>2026-08-14T12:52:20Z</time></trkpt><trkpt lat="59.3411809299" lon="34.6498105489"><ele>166.80</ele><time>2026-08-14T12:52:48Z</time></trkpt><trkpt lat="59.3412024714" lon="34.6498958766"><ele>166.22</ele><time>2026-08-14T12:53:39Z</time></trkpt><trkpt lat="59.3412384298" lon="34.6498589963"><ele>166.85</ele><time>2026-08-14T12:54:14Z</time></trkpt><trkpt lat="59.3412380945" lon="34.6498678811"><ele>167.09</ele><time>2026-08-14T12:54:30Z</time></trkpt><trkpt lat="59.3413384259" lon="34.6497385483"><ele>165.70</ele><time>2026-08-14T12:54:51Z</time></trkpt><trkpt lat="59.3413870409" lon="34.6495438367"><ele>164.79</ele><time>2026-08-14T12:55:13Z</time></trkpt><trkpt lat="59.3414496537" lon="34.6494880132"><ele>164.53</ele><time>2026-08-14T12:55:37Z</time></trkpt><trkpt lat="59.3414434511" lon="34.6495704912"><ele>166.03</ele><time>2026-08-14T12:56:03Z</time></trkpt><trkpt lat="59.3415174633" lon="34.6496561542"><ele>165.72</ele><time>2026-08-14T12:56:26Z</time></trkpt><trkpt lat="59.3416099157" lon="34.6495200321"><ele>165.93</ele><time>2026-08-14T12:56:45Z</time></trkpt><trkpt lat="59.3416076526" lon="34.6495087165"><ele>165.76</ele><time>2026-08-14T12:56:49Z</time></trkpt><trkpt lat="59.3416176271" lon="34.6493499633"><ele>166.94</ele><time>2026-08-14T12:57:08Z</time></trkpt><trkpt lat="59.3417239934" lon="34.6491281781"><ele>167.17</ele><time>2026-08-14T12:57:27Z</time></trkpt><trkpt lat="59.3417772185" lon="34.6490569320"><ele>166.92</ele><time>2026-08-14T12:57:45Z</time></trkpt><trkpt lat="59.3418378197" lon="34.6489283536"><ele>165.87</ele><time>2026-08-14T12:58:02Z</time></trkpt><trkpt lat="59.3418801483" lon="34.6488192212"><ele>164.79</ele><time>2026-08-14T12:58:21Z</time></trkpt><trkpt lat="59.3419280089" lon="34.6487337258"><ele>165.17</ele><time>2026-08-14T12:58:39Z</time></trkpt><trkpt lat="59.3420297652" lon="34.6486273594"><ele>165.93</ele><time>2026-08-14T12:59:00Z</time></trkpt><trkpt lat="59.3420608621" lon="34.6486475598"><ele>165.51</ele><time>2026-08-14T12:59:27Z</time></trkpt><trkpt lat="59.3421026040" lon="34.6486442070"><ele>165.11</ele><time>2026-08-14T12:59:47Z</time></trkpt><trkpt lat="59.3421211280" lon="34.6487043053"><ele>166.09</ele><time>2026-08-14T13:00:11Z</time></trkpt><trkpt lat="59.3421476148" lon="34.6486639883"><ele>167.44</ele><time>2026-08-14T13:00:34Z</time></trkpt><trkpt lat="59.3421342876" lon="34.6487414371"><ele>166.43</ele><time>2026-08-14T13:01:06Z</time></trkpt><trkpt lat="59.3421543203" lon="34.6487293672"><ele>166.12</ele><time>2026-08-14T13:01:28Z</time></trkpt><trkpt lat="59.3421757780" lon="34.6487210691"><ele>166.69</ele><time>2026-08-14T13:01:59Z</time></trkpt><trkpt lat="59.3422124069" lon="34.6488148626"><ele>167.37</ele><time>2026-08-14T13:02:18Z</time></trkpt><trkpt lat="59.3422808032" lon="34.6489902120"><ele>166.13</ele><time>2026-08-14T13:02:52Z</time></trkpt><trkpt lat="59.3423323520" lon="34.6492297668"><ele>165.26</ele><time>2026-08-14T13:03:19Z</time></trkpt><trkpt lat="59.3424668815" lon="34.6495736763"><ele>163.21</ele><time>2026-08-14T13:03:45Z</time></trkpt><trkpt lat="59.3425438274" lon="34.6497546416"><ele>160.98</ele><time>2026-08-14T13:04:04Z</time></trkpt><trkpt lat="59.3425568193" lon="34.6498870756"><ele>161.85</ele><time>2026-08-14T13:04:23Z</time></trkpt><trkpt lat="59.3425496947" lon="34.6499283984"><ele>165.62</ele><time>2026-08-14T13:04:53Z</time></trkpt><trkpt lat="59.3426357768" lon="34.6501196735"><ele>162.74</ele><time>2026-08-14T13:05:12Z</time></trkpt><trkpt lat="59.3427294027" lon="34.6503060870"><ele>159.52</ele><time>2026-08-14T13:05:32Z</time></trkpt><trkpt lat="59.3427482620" lon="34.6504387725"><ele>158.55</ele><time>2026-08-14T13:05:49Z</time></trkpt><trkpt lat="59.3428264651" lon="34.6505861264"><ele>156.01</ele><time>2026-08-14T13:06:06Z</time></trkpt><trkpt lat="59.3428577296" lon="34.6508016251"><ele>153.79</ele><time>2026-08-14T13:06:27Z</time></trkpt><trkpt lat="59.3428476714" lon="34.6509219892"><ele>155.36</ele><time>2026-08-14T13:06:45Z</time></trkpt><trkpt lat="59.3427408859" lon="34.6510270145"><ele>157.25</ele><time>2026-08-14T13:07:06Z</time></trkpt><trkpt lat="59.3427194282" lon="34.6511271782"><ele>157.58</ele><time>2026-08-14T13:07:26Z</time></trkpt><trkpt lat="59.3426729925" lon="34.6512227319"><ele>158.50</ele><time>2026-08-14T13:07:48Z</time></trkpt><trkpt lat="59.3426398002" lon="34.6512819082"><ele>160.59</ele><time>2026-08-14T13:08:07Z</time></trkpt><trkpt lat="59.3426346872" lon="34.6513075568"><ele>161.56</ele><time>2026-08-14T13:08:27Z</time></trkpt><trkpt lat="59.3426094577" lon="34.6513345465"><ele>161.37</ele><time>2026-08-14T13:08:55Z</time></trkpt><trkpt lat="59.3426275626" lon="34.6512721013"><ele>161.52</ele><time>2026-08-14T13:09:21Z</time></trkpt><trkpt lat="59.3426694721" lon="34.6512129251"><ele>162.33</ele><time>2026-08-14T13:09:50Z</time></trkpt><trkpt lat="59.3426460028" lon="34.6513274219"><ele>162.50</ele><time>2026-08-14T13:10:10Z</time></trkpt><trkpt lat="59.3425182626" lon="34.6514791343"><ele>163.54</ele><time>2026-08-14T13:10:31Z</time></trkpt><trkpt lat="59.3423598446" lon="34.6516450122"><ele>165.51</ele><time>2026-08-14T13:10:51Z</time></trkpt><trkpt lat="59.3422749359" lon="34.6517497022"><ele>165.61</ele><time>2026-08-14T13:11:10Z</time></trkpt><trkpt lat="59.3422378879" lon="34.6516994108"><ele>168.05</ele><time>2026-08-14T13:11:32Z</time></trkpt><trkpt lat="59.3421248160" lon="34.6515295096"><ele>168.12</ele><time>2026-08-14T13:11:49Z</time></trkpt><trkpt lat="59.3420207966" lon="34.6514359675"><ele>168.34</ele><time>2026-08-14T13:12:09Z</time></trkpt><trkpt lat="59.3419774622" lon="34.6514555812"><ele>169.85</ele><time>2026-08-14T13:12:37Z</time></trkpt><trkpt lat="59.3419746961" lon="34.6514743567"><ele>171.80</ele><time>2026-08-14T13:13:07Z</time></trkpt><trkpt lat="59.3419296853" lon="34.6516013425"><ele>172.14</ele><time>2026-08-14T13:13:36Z</time></trkpt><trkpt lat="59.3419387378" lon="34.6515026037"><ele>173.71</ele><time>2026-08-14T13:14:05Z</time></trkpt><trkpt lat="59.3419750314" lon="34.6514621191"><ele>175.29</ele><time>2026-08-14T13:14:30Z</time></trkpt><trkpt lat="59.3419717625" lon="34.6514193714"><ele>175.53</ele><time>2026-08-14T13:14:38Z</time></trkpt><trkpt lat="59.3419552501" lon="34.6513411682"><ele>176.85</ele><time>2026-08-14T13:15:05Z</time></trkpt><trkpt lat="59.3419074733" lon="34.6512996778"><ele>175.94</ele><time>2026-08-14T13:15:21Z</time></trkpt><trkpt lat="59.3418866023" lon="34.6511315368"><ele>175.83</ele><time>2026-08-14T13:15:40Z</time></trkpt><trkpt lat="59.3418529909" lon="34.6509471349"><ele>175.42</ele><time>2026-08-14T13:15:59Z</time></trkpt><trkpt lat="59.3418464530" lon="34.6509277727"><ele>175.31</ele><time>2026-08-14T13:16:01Z</time></trkpt><trkpt lat="59.3417560961" lon="34.6507732943"><ele>176.26</ele><time>2026-08-14T13:16:14Z</time></trkpt><trkpt lat="59.3416720256" lon="34.6506776568"><ele>176.84</ele><time>2026-08-14T13:16:36Z</time></trkpt><trkpt lat="59.3416235782" lon="34.6507951710"><ele>176.55</ele><time>2026-08-14T13:17:04Z</time></trkpt><trkpt lat="59.3416219857" lon="34.6508142818"><ele>176.52</ele><time>2026-08-14T13:17:06Z</time></trkpt><trkpt lat="59.3415400945" lon="34.6509555168"><ele>176.01</ele><time>2026-08-14T13:17:22Z</time></trkpt><trkpt lat="59.3415047228" lon="34.6510747913"><ele>175.54</ele><time>2026-08-14T13:17:34Z</time></trkpt><trkpt lat="59.3414756376" lon="34.6510851011"><ele>175.45</ele><time>2026-08-14T13:17:39Z</time></trkpt><trkpt lat="59.3413831852" lon="34.6512254141"><ele>175.09</ele><time>2026-08-14T13:18:01Z</time></trkpt><trkpt lat="59.3412405252" lon="34.6513596084"><ele>175.23</ele><time>2026-08-14T13:18:26Z</time></trkpt><trkpt lat="59.3412120268" lon="34.6514302678"><ele>175.22</ele><time>2026-08-14T13:19:00Z</time></trkpt><trkpt lat="59.3412516732" lon="34.6513937227"><ele>176.32</ele><time>2026-08-14T13:19:30Z</time></trkpt><trkpt lat="59.3412834406" lon="34.6514066309"><ele>174.71</ele><time>2026-08-14T13:20:02Z</time></trkpt><trkpt lat="59.3413282000" lon="34.6513621230"><ele>174.21</ele><time>2026-08-14T13:20:33Z</time></trkpt><trkpt lat="59.3412002921" lon="34.6514555812"><ele>172.80</ele><time>2026-08-14T13:20:55Z</time></trkpt><trkpt lat="59.3411350809" lon="34.6514824033"><ele>171.59</ele><time>2026-08-14T13:21:17Z</time></trkpt><trkpt lat="59.3410841189" lon="34.6516544838"><ele>170.28</ele><time>2026-08-14T13:21:33Z</time></trkpt><trkpt lat="59.3411106896" lon="34.6516683977"><ele>169.74</ele><time>2026-08-14T13:21:47Z</time></trkpt><trkpt lat="59.3410373479" lon="34.6517015900"><ele>169.37</ele><time>2026-08-14T13:22:02Z</time></trkpt><trkpt lat="59.3409826141" lon="34.6516955551"><ele>169.50</ele><time>2026-08-14T13:22:08Z</time></trkpt><trkpt lat="59.3408466596" lon="34.6517867502"><ele>170.23</ele><time>2026-08-14T13:22:25Z</time></trkpt><trkpt lat="59.3407492619" lon="34.6518956311"><ele>170.81</ele><time>2026-08-14T13:22:43Z</time></trkpt><trkpt lat="59.3407036643" lon="34.6522077732"><ele>168.87</ele><time>2026-08-14T13:23:03Z</time></trkpt><trkpt lat="59.3406266347" lon="34.6523135528"><ele>168.81</ele><time>2026-08-14T13:23:23Z</time></trkpt><trkpt lat="59.3405642733" lon="34.6524243616"><ele>168.54</ele><time>2026-08-14T13:23:42Z</time></trkpt><trkpt lat="59.3404633552" lon="34.6525295544"><ele>168.78</ele><time>2026-08-14T13:23:59Z</time></trkpt><trkpt lat="59.3403331842" lon="34.6526167262"><ele>169.51</ele><time>2026-08-14T13:24:19Z</time></trkpt><trkpt lat="59.3402471859" lon="34.6527105197"><ele>170.37</ele><time>2026-08-14T13:24:35Z</time></trkpt><trkpt lat="59.3401808850" lon="34.6528381761"><ele>170.15</ele><time>2026-08-14T13:24:57Z</time></trkpt><trkpt lat="59.3400934618" lon="34.6528884675"><ele>171.44</ele><time>2026-08-14T13:25:17Z</time></trkpt><trkpt lat="59.3402215373" lon="34.6529665869"><ele>170.60</ele><time>2026-08-14T13:25:37Z</time></trkpt><trkpt lat="59.3402479403" lon="34.6530296188"><ele>169.93</ele><time>2026-08-14T13:25:42Z</time></trkpt><trkpt lat="59.3402823899" lon="34.6531359851"><ele>168.52</ele><time>2026-08-14T13:26:10Z</time></trkpt><trkpt lat="59.3403400574" lon="34.6530835982"><ele>168.97</ele><time>2026-08-14T13:26:38Z</time></trkpt><trkpt lat="59.3403558992" lon="34.6531715244"><ele>169.91</ele><time>2026-08-14T13:27:23Z</time></trkpt><trkpt lat="59.3403130677" lon="34.6533216443"><ele>172.88</ele><time>2026-08-14T13:27:59Z</time></trkpt><trkpt lat="59.3402980641" lon="34.6533211414"><ele>171.75</ele><time>2026-08-14T13:28:19Z</time></trkpt><trkpt lat="59.3403880019" lon="34.6536671463"><ele>171.47</ele><time>2026-08-14T13:29:07Z</time></trkpt><trkpt lat="59.3404598348" lon="34.6538440045"><ele>172.55</ele><time>2026-08-14T13:29:28Z</time></trkpt><trkpt lat="59.3404537998" lon="34.6540533844"><ele>172.78</ele><time>2026-08-14T13:29:46Z</time></trkpt><trkpt lat="59.3403850682" lon="34.6541205235"><ele>172.92</ele><time>2026-08-14T13:30:05Z</time></trkpt><trkpt lat="59.3402409833" lon="34.6540605929"><ele>170.37</ele><time>2026-08-14T13:30:24Z</time></trkpt><trkpt lat="59.3401648756" lon="34.6540457569"><ele>168.69</ele><time>2026-08-14T13:30:39Z</time></trkpt><trkpt lat="59.3401310127" lon="34.6540452540"><ele>168.50</ele><time>2026-08-14T13:30:46Z</time></trkpt><trkpt lat="59.3400274124" lon="34.6540488582"><ele>168.52</ele><time>2026-08-14T13:31:03Z</time></trkpt><trkpt lat="59.3399540707" lon="34.6540609282"><ele>168.77</ele><time>2026-08-14T13:31:18Z</time></trkpt><trkpt lat="59.3398985825" lon="34.6541134827"><ele>168.96</ele><time>2026-08-14T13:31:37Z</time></trkpt><trkpt lat="59.3398943078" lon="34.6541327611"><ele>169.03</ele><time>2026-08-14T13:31:59Z</time></trkpt><trkpt lat="59.3399075512" lon="34.6541206073"><ele>168.72</ele><time>2026-08-14T13:32:24Z</time></trkpt><trkpt lat="59.3398541585" lon="34.6538497042"><ele>167.69</ele><time>2026-08-14T13:32:44Z</time></trkpt><trkpt lat="59.3398566730" lon="34.6537745185"><ele>168.64</ele><time>2026-08-14T13:33:08Z</time></trkpt><trkpt lat="59.3398599420" lon="34.6537162643"><ele>169.95</ele><time>2026-08-14T13:33:33Z</time></trkpt><trkpt lat="59.3398730177" lon="34.6537209582"><ele>171.32</ele><time>2026-08-14T13:34:04Z</time></trkpt><trkpt lat="59.3398430105" lon="34.6537976526"><ele>170.26</ele><time>2026-08-14T13:34:34Z</time></trkpt><trkpt lat="59.3398276716" lon="34.6538100578"><ele>169.56</ele><time>2026-08-14T13:34:52Z</time></trkpt><trkpt lat="59.3397913780" lon="34.6538404003"><ele>169.63</ele><time>2026-08-14T13:35:16Z</time></trkpt><trkpt lat="59.3397939764" lon="34.6538489498"><ele>169.64</ele><time>2026-08-14T13:35:20Z</time></trkpt><trkpt lat="59.3398265820" lon="34.6539023425"><ele>169.35</ele><time>2026-08-14T13:35:47Z</time></trkpt><trkpt lat="59.3397614546" lon="34.6538617741"><ele>168.59</ele><time>2026-08-14T13:36:05Z</time></trkpt><trkpt lat="59.3397539947" lon="34.6538667195"><ele>168.45</ele><time>2026-08-14T13:36:07Z</time></trkpt><trkpt lat="59.3396704271" lon="34.6539018396"><ele>167.43</ele><time>2026-08-14T13:36:29Z</time></trkpt><trkpt lat="59.3395203073" lon="34.6538734250"><ele>167.11</ele><time>2026-08-14T13:36:55Z</time></trkpt><trkpt lat="59.3393856101" lon="34.6538538113"><ele>167.53</ele><time>2026-08-14T13:37:18Z</time></trkpt><trkpt lat="59.3393811677" lon="34.6538639534"><ele>167.53</ele><time>2026-08-14T13:37:19Z</time></trkpt><trkpt lat="59.3393395096" lon="34.6539210342"><ele>169.13</ele><time>2026-08-14T13:37:40Z</time></trkpt><trkpt lat="59.3393374141" lon="34.6538698208"><ele>169.27</ele><time>2026-08-14T13:38:09Z</time></trkpt><trkpt lat="59.3393186387" lon="34.6538890991"><ele>171.67</ele><time>2026-08-14T13:38:34Z</time></trkpt><trkpt lat="59.3393426109" lon="34.6539103892"><ele>173.07</ele><time>2026-08-14T13:39:05Z</time></trkpt><trkpt lat="59.3393420242" lon="34.6539491974"><ele>173.82</ele><time>2026-08-14T13:39:53Z</time></trkpt><trkpt lat="59.3393370789" lon="34.6539829765"><ele>175.23</ele><time>2026-08-14T13:40:24Z</time></trkpt><trkpt lat="59.3393369950" lon="34.6541106328"><ele>174.17</ele><time>2026-08-14T13:40:50Z</time></trkpt><trkpt lat="59.3393414374" lon="34.6542838868"><ele>173.56</ele><time>2026-08-14T13:41:16Z</time></trkpt><trkpt lat="59.3393426947" lon="34.6542981360"><ele>173.54</ele><time>2026-08-14T13:41:17Z</time></trkpt><trkpt lat="59.3392289523" lon="34.6544744913"><ele>173.43</ele><time>2026-08-14T13:41:36Z</time></trkpt><trkpt lat="59.3391504139" lon="34.6546540316"><ele>172.68</ele><time>2026-08-14T13:41:54Z</time></trkpt><trkpt lat="59.3391063251" lon="34.6548634116"><ele>171.33</ele><time>2026-08-14T13:42:11Z</time></trkpt><trkpt lat="59.3390700314" lon="34.6551235858"><ele>169.63</ele><time>2026-08-14T13:42:32Z</time></trkpt><trkpt lat="59.3390188180" lon="34.6552223247"><ele>168.32</ele><time>2026-08-14T13:42:49Z</time></trkpt><trkpt lat="59.3389981147" lon="34.6552347299"><ele>168.01</ele><time>2026-08-14T13:43:08Z</time></trkpt><trkpt lat="59.3389040697" lon="34.6553164534"><ele>167.89</ele><time>2026-08-14T13:43:24Z</time></trkpt><trkpt lat="59.3387560453" lon="34.6554292738"><ele>166.79</ele><time>2026-08-14T13:43:46Z</time></trkpt><trkpt lat="59.3387359288" lon="34.6554635558"><ele>167.32</ele><time>2026-08-14T13:44:05Z</time></trkpt><trkpt lat="59.3386906665" lon="34.6555082314"><ele>167.75</ele><time>2026-08-14T13:44:27Z</time></trkpt><trkpt lat="59.3386130501" lon="34.6556097362"><ele>168.32</ele><time>2026-08-14T13:44:48Z</time></trkpt><trkpt lat="59.3385471683" lon="34.6557922941"><ele>169.09</ele><time>2026-08-14T13:45:07Z</time></trkpt><trkpt lat="59.3384725694" lon="34.6560656279"><ele>168.66</ele><time>2026-08-14T13:45:27Z</time></trkpt><trkpt lat="59.3384890817" lon="34.6560861636"><ele>169.19</ele><time>2026-08-14T13:45:47Z</time></trkpt><trkpt lat="59.3385041691" lon="34.6561266482"><ele>170.04</ele><time>2026-08-14T13:46:15Z</time></trkpt><trkpt lat="59.3385181669" lon="34.6561384667"><ele>170.76</ele><time>2026-08-14T13:46:45Z</time></trkpt><trkpt lat="59.3385142274" lon="34.6561256424"><ele>169.67</ele><time>2026-08-14T13:47:16Z</time></trkpt><trkpt lat="59.3384508602" lon="34.6560711600"><ele>169.48</ele><time>2026-08-14T13:47:47Z</time></trkpt><trkpt lat="59.3384011555" lon="34.6562196873"><ele>170.68</ele><time>2026-08-14T13:48:11Z</time></trkpt><trkpt lat="59.3383361958" lon="34.6564492676"><ele>172.87</ele><time>2026-08-14T13:48:30Z</time></trkpt><trkpt lat="59.3382823840" lon="34.6566570550"><ele>172.12</ele><time>2026-08-14T13:48:48Z</time></trkpt><trkpt lat="59.3382258061" lon="34.6566899959"><ele>172.56</ele><time>2026-08-14T13:49:07Z</time></trkpt><trkpt lat="59.3381056096" lon="34.6567874774"><ele>174.24</ele><time>2026-08-14T13:49:29Z</time></trkpt><trkpt lat="59.3379375525" lon="34.6569310594"><ele>173.95</ele><time>2026-08-14T13:49:49Z</time></trkpt><trkpt lat="59.3378882669" lon="34.6569423750"><ele>174.27</ele><time>2026-08-14T13:50:04Z</time></trkpt><trkpt lat="59.3377606943" lon="34.6570654213"><ele>174.14</ele><time>2026-08-14T13:50:23Z</time></trkpt><trkpt lat="59.3376135081" lon="34.6571843605"><ele>172.82</ele><time>2026-08-14T13:50:42Z</time></trkpt><trkpt lat="59.3375796452" lon="34.6572442912"><ele>172.74</ele><time>2026-08-14T13:51:07Z</time></trkpt><trkpt lat="59.3375567626" lon="34.6572958399"><ele>173.87</ele><time>2026-08-14T13:51:32Z</time></trkpt><trkpt lat="59.3374446128" lon="34.6573396772"><ele>174.88</ele><time>2026-08-14T13:51:52Z</time></trkpt><trkpt lat="59.3374292739" lon="34.6574923955"><ele>177.12</ele><time>2026-08-14T13:52:20Z</time></trkpt><trkpt lat="59.3373589497" lon="34.6575889550"><ele>178.08</ele><time>2026-08-14T13:52:39Z</time></trkpt><trkpt lat="59.3371879589" lon="34.6576635540"><ele>179.05</ele><time>2026-08-14T13:53:01Z</time></trkpt><trkpt lat="59.3370890524" lon="34.6577598620"><ele>180.79</ele><time>2026-08-14T13:53:21Z</time></trkpt><trkpt lat="59.3370411079" lon="34.6578983311"><ele>182.43</ele><time>2026-08-14T13:53:49Z</time></trkpt><trkpt lat="59.3369982764" lon="34.6579762828"><ele>183.49</ele><time>2026-08-14T13:54:14Z</time></trkpt><trkpt lat="59.3369594682" lon="34.6578869317"><ele>183.72</ele><time>2026-08-14T13:54:31Z</time></trkpt><trkpt lat="59.3367852923" lon="34.6577938925"><ele>184.65</ele><time>2026-08-14T13:54:55Z</time></trkpt><trkpt lat="59.3366363458" lon="34.6577004343"><ele>185.18</ele><time>2026-08-14T13:55:15Z</time></trkpt><trkpt lat="59.3364694621" lon="34.6576303616"><ele>185.24</ele><time>2026-08-14T13:55:33Z</time></trkpt><trkpt lat="59.3363934383" lon="34.6576235723"><ele>185.42</ele><time>2026-08-14T13:55:46Z</time></trkpt><trkpt lat="59.3363366928" lon="34.6577748656"><ele>184.40</ele><time>2026-08-14T13:56:14Z</time></trkpt><trkpt lat="59.3362010736" lon="34.6577140130"><ele>184.36</ele><time>2026-08-14T13:56:32Z</time></trkpt><trkpt lat="59.3361284863" lon="34.6577292681"><ele>183.67</ele><time>2026-08-14T13:56:47Z</time></trkpt><trkpt lat="59.3360232096" lon="34.6577292681"><ele>182.21</ele><time>2026-08-14T13:57:09Z</time></trkpt><trkpt lat="59.3357922882" lon="34.6577012725"><ele>181.93</ele><time>2026-08-14T13:57:28Z</time></trkpt><trkpt lat="59.3356923759" lon="34.6577378176"><ele>181.99</ele><time>2026-08-14T13:57:57Z</time></trkpt><trkpt lat="59.3355736043" lon="34.6576801501"><ele>181.75</ele><time>2026-08-14T13:58:21Z</time></trkpt><trkpt lat="59.3354494683" lon="34.6576870233"><ele>181.32</ele><time>2026-08-14T13:58:41Z</time></trkpt><trkpt lat="59.3353070598" lon="34.6576576866"><ele>181.49</ele><time>2026-08-14T13:58:58Z</time></trkpt><trkpt lat="59.3350892141" lon="34.6576122567"><ele>180.10</ele><time>2026-08-14T13:59:21Z</time></trkpt><trkpt lat="59.3349890504" lon="34.6575780585"><ele>178.50</ele><time>2026-08-14T13:59:33Z</time></trkpt><trkpt lat="59.3348429538" lon="34.6576374024"><ele>177.06</ele><time>2026-08-14T13:59:53Z</time></trkpt><trkpt lat="59.3345848750" lon="34.6576744504"><ele>174.16</ele><time>2026-08-14T14:00:10Z</time></trkpt><trkpt lat="59.3344421312" lon="34.6577360574"><ele>173.56</ele><time>2026-08-14T14:00:26Z</time></trkpt><trkpt lat="59.3342929333" lon="34.6578399092"><ele>172.29</ele><time>2026-08-14T14:00:48Z</time></trkpt><trkpt lat="59.3341361918" lon="34.6578948107"><ele>171.82</ele><time>2026-08-14T14:01:01Z</time></trkpt><trkpt lat="59.3340172525" lon="34.6579704992"><ele>170.84</ele><time>2026-08-14T14:01:20Z</time></trkpt><trkpt lat="59.3338750955" lon="34.6580702439"><ele>169.67</ele><time>2026-08-14T14:01:40Z</time></trkpt><trkpt lat="59.3337454274" lon="34.6582117304"><ele>166.23</ele><time>2026-08-14T14:02:07Z</time></trkpt><trkpt lat="59.3337374646" lon="34.6582218725"><ele>166.02</ele><time>2026-08-14T14:02:08Z</time></trkpt><trkpt lat="59.3332263362" lon="34.6583382133"><ele>166.59</ele><time>2026-08-14T14:02:29Z</time></trkpt><trkpt lat="59.3329379149" lon="34.6584229544"><ele>166.27</ele><time>2026-08-14T14:02:44Z</time></trkpt><trkpt lat="59.3326821830" lon="34.6586871520"><ele>166.77</ele><time>2026-08-14T14:03:05Z</time></trkpt><trkpt lat="59.3326287065" lon="34.6587408800"><ele>166.61</ele><time>2026-08-14T14:03:10Z</time></trkpt><trkpt lat="59.3324950989" lon="34.6589022316"><ele>166.41</ele><time>2026-08-14T14:03:24Z</time></trkpt><trkpt lat="59.3324565422" lon="34.6589365974"><ele>166.03</ele><time>2026-08-14T14:03:28Z</time></trkpt><trkpt lat="59.3323117867" lon="34.6589773335"><ele>164.97</ele><time>2026-08-14T14:03:44Z</time></trkpt><trkpt lat="59.3321415503" lon="34.6588954423"><ele>162.48</ele><time>2026-08-14T14:04:05Z</time></trkpt><trkpt lat="59.3320418056" lon="34.6588117070"><ele>159.91</ele><time>2026-08-14T14:04:24Z</time></trkpt><trkpt lat="59.3320234492" lon="34.6588005591"><ele>159.96</ele><time>2026-08-14T14:04:27Z</time></trkpt><trkpt lat="59.3318154942" lon="34.6586043388"><ele>159.19</ele><time>2026-08-14T14:04:45Z</time></trkpt><trkpt lat="59.3316097185" lon="34.6583262272"><ele>157.52</ele><time>2026-08-14T14:05:03Z</time></trkpt><trkpt lat="59.3315399811" lon="34.6581750177"><ele>156.39</ele><time>2026-08-14T14:05:17Z</time></trkpt><trkpt lat="59.3314609397" lon="34.6579993330"><ele>155.28</ele><time>2026-08-14T14:05:35Z</time></trkpt><trkpt lat="59.3313317746" lon="34.6578270849"><ele>153.32</ele><time>2026-08-14T14:05:51Z</time></trkpt><trkpt lat="59.3311900366" lon="34.6576646436"><ele>150.97</ele><time>2026-08-14T14:06:08Z</time></trkpt><trkpt lat="59.3310259189" lon="34.6575339697"><ele>150.12</ele><time>2026-08-14T14:06:24Z</time></trkpt><trkpt lat="59.3308547605" lon="34.6574271005"><ele>149.79</ele><time>2026-08-14T14:06:41Z</time></trkpt><trkpt lat="59.3307534233" lon="34.6574261785"><ele>149.88</ele><time>2026-08-14T14:06:51Z</time></trkpt><trkpt lat="59.3305783253" lon="34.6574577782"><ele>150.01</ele><time>2026-08-14T14:07:08Z</time></trkpt><trkpt lat="59.3304115254" lon="34.6576073114"><ele>152.96</ele><time>2026-08-14T14:07:26Z</time></trkpt><trkpt lat="59.3302551191" lon="34.6577919647"><ele>154.40</ele><time>2026-08-14T14:07:48Z</time></trkpt><trkpt lat="59.3302468210" lon="34.6578059625"><ele>161.21</ele><time>2026-08-14T14:08:19Z</time></trkpt><trkpt lat="59.3302539457" lon="34.6578040347"><ele>162.99</ele><time>2026-08-14T14:08:25Z</time></trkpt><trkpt lat="59.3301640078" lon="34.6577669028"><ele>169.10</ele><time>2026-08-14T14:08:55Z</time></trkpt><trkpt lat="59.3301800173" lon="34.6578363050"><ele>170.47</ele><time>2026-08-14T14:09:21Z</time></trkpt><trkpt lat="59.3301593978" lon="34.6579961479"><ele>170.42</ele><time>2026-08-14T14:09:36Z</time></trkpt><trkpt lat="59.3300901633" lon="34.6582303382"><ele>170.37</ele><time>2026-08-14T14:09:55Z</time></trkpt><trkpt lat="59.3299484253" lon="34.6584741678"><ele>168.66</ele><time>2026-08-14T14:10:13Z</time></trkpt><trkpt lat="59.3298469204" lon="34.6587540396"><ele>165.82</ele><time>2026-08-14T14:10:29Z</time></trkpt><trkpt lat="59.3297114689" lon="34.6591442171"><ele>163.45</ele><time>2026-08-14T14:10:48Z</time></trkpt><trkpt lat="59.3296733312" lon="34.6591652557"><ele>164.22</ele><time>2026-08-14T14:11:10Z</time></trkpt><trkpt lat="59.3295896798" lon="34.6593222488"><ele>164.25</ele><time>2026-08-14T14:11:24Z</time></trkpt><trkpt lat="59.3295279890" lon="34.6595095005"><ele>163.77</ele><time>2026-08-14T14:11:38Z</time></trkpt><trkpt lat="59.3295126501" lon="34.6596803237"><ele>165.44</ele><time>2026-08-14T14:11:56Z</time></trkpt><trkpt lat="59.3294678070" lon="34.6597121749"><ele>167.12</ele><time>2026-08-14T14:12:27Z</time></trkpt><trkpt lat="59.3294811342" lon="34.6596908011"><ele>169.66</ele><time>2026-08-14T14:12:58Z</time></trkpt><trkpt lat="59.3294757698" lon="34.6597251669"><ele>171.41</ele><time>2026-08-14T14:13:26Z</time></trkpt></trkseg></trk></gpx>